[[{"header":{"parameterUnit":"m.s-1","parameterCategory":1,"la1":31.0,"la2":29.5877,"lo1":-88.7671,"lo2":-86.6584,"dy":0.0162,"dx":0.0185,"nx":115,"ny":88,"refTime":"2024-07-26T06:00:00:Z","depth":0,"parameterNumber":2,"parameterNumberName":"U-component_of_WINDS"},"data":[0.0,0.0,0.0,0.0,0.0,0.0,0.0,0.0,0.0,0.0,0.0,0.0,0.0,0.0,0.0,0.0,0.0,0.0,0.0,0.0,0.0,0.0,0.0,0.0,0.0,0.0,0.0,0.0,0.0,0.0,0.0,0.0,0.0,0.0,0.0,0.0,0.0,0.0,0.0,0.0,0.0,0.0,0.0,0.0,0.0,0.0,0.0,0.0,0.0,0.0,0.0,0.0,0.0,0.0,0.0,0.0,0.0,0.0,0.0,0.0,0.0,0.0,0.0,0.0,0.0,0.0,0.0,0.0,0.0,0.0,0.0,0.0,0.0,0.0,0.0,0.0,0.0,0.0,0.0,0.0,0.0,0.0,0.0,0.0,0.0,0.0,0.0,0.0,0.0,0.0,0.0,0.0,0.0,0.0,0.0,0.0,0.0,0.0,0.0,0.0,0.0,0.0,0.0,0.0,0.0,0.0,0.0,0.0,0.0,0.0,0.0,0.0,0.0,0.0,0.0,0.0,0.0,0.0,0.0,0.0,0.0,0.0,0.0,0.0,0.0,0.0,0.0,0.0,0.0,0.0,0.0,0.0,0.0,0.0,0.0,0.0,0.0,0.0,0.0,0.0,0.0,0.0,0.0,0.0,0.0,0.0,0.0,0.0,0.0,0.0,0.0,0.0,0.0,0.0,0.0,0.0,0.0,0.0,0.0,0.0,0.0,0.0,0.0,0.0,0.0,0.0,0.0,0.0,0.0,0.0,0.0,0.0,0.0,0.0,0.0,0.0,0.0,0.0,0.0,0.0,0.0,0.0,0.0,0.0,0.0,0.0,0.0,0.0,0.0,0.0,0.0,0.0,0.0,0.0,0.0,0.0,0.0,0.0,0.0,0.0,0.0,0.0,0.0,0.0,0.0,0.0,0.0,0.0,0.0,0.0,0.0,0.0,0.0,0.0,0.0,0.0,0.0,0.0,0.0,0.0,0.0,0.0,0.0,0.0,0.0,0.0,0.0,0.0,0.0,0.0,0.0,0.0,0.0,0.0,0.0,0.0,0.0,0.0,0.0,0.0,0.0,0.0,0.0,0.0,0.0,0.0,0.0,0.0,0.0,0.0,0.0,0.0,0.0,0.0,0.0,0.0,0.0,0.0,0.0,0.0,0.0,0.0,0.0,0.0,0.0,0.0,0.0,0.0,0.0,0.0,0.0,0.0,0.0,0.0,0.0,0.0,0.0,0.0,0.0,0.0,0.0,0.0,0.0,0.0,0.0,0.0,0.0,0.0,0.0,0.0,0.0,0.0,0.0,0.0,0.0,0.0,0.0,0.0,0.0,0.0,0.0,0.0,0.0,0.0,0.0,0.0,0.0,0.0,0.0,0.0,0.0,0.0,0.0,0.0,0.0,0.0,0.0,0.0,0.0,0.0,0.0,0.0,0.0,0.0,0.0,0.0,0.0,0.0,0.0,0.0,0.0,0.0,0.0,0.0,0.0,0.0,0.0,0.0,0.0,0.0,0.0,0.0,0.0,0.0,0.0,0.0,0.0,0.0,0.0,0.0,0.0,0.0,0.0,0.0,0.0,0.0,0.0,0.0,0.0,0.0,0.0,0.0,0.0,0.0,0.0,0.0,0.0,0.0,0.0,0.0,0.0,0.0,0.0,0.0,0.0,0.0,0.0,0.0,0.0,0.0,0.0,0.0,0.0,0.0,0.0,0.0,0.0,0.0,0.0,0.0,0.0,0.0,0.0,0.0,0.0,0.0,0.0,0.0,0.0,0.0,0.0,0.0,0.0,0.0,0.0,0.0,0.0,0.0,0.0,0.0,0.0,0.0,0.0,0.0,0.0,0.0,0.0,0.0,0.0,0.0,0.0,0.0,0.0,0.0,0.0,0.0,0.0,0.0,0.0,0.0,0.0,0.0,0.0,0.0,0.0,0.0,0.0,0.0,0.0,0.0,0.0,0.0,0.0,0.0,0.0,0.0,0.0,0.0,0.0,0.0,0.0,0.0,0.0,0.0,0.0,0.0,0.0,0.0,0.0,0.0,0.0,0.0,0.0,0.0,0.0,0.0,0.0,0.0,0.0,0.0,0.0,0.0,0.0,0.0,0.0,0.0,0.0,0.0,0.0,0.0,0.0,0.0,0.0,0.0,0.0,0.0,0.0,0.0,0.0,0.0,0.0,0.0,0.0,0.0,0.0,0.0,0.0,0.0,0.0,0.0,0.0,0.0,0.0,0.0,0.0,0.0,0.0,0.0,0.0,0.0,0.0,0.0,0.0,0.0,0.0,0.0,0.0,0.0,0.0,0.0,0.0,0.0,0.0,0.0,0.0,0.0,0.0,0.0,0.0,0.0,0.0,0.0,0.0,0.0,0.0,0.0,0.0,0.0,0.0,0.0,0.0,0.0,0.0,0.0,0.0,0.0,0.0,0.0,0.0,0.0,0.0,0.0,0.0,0.0,0.0,0.0,0.0,0.0,0.0,0.0,0.0,0.0,0.0,0.0,0.0,0.0,0.0,0.0,0.0,0.0,0.0,0.0,0.0,0.0,0.0,0.0,0.0,0.0,0.0,0.0,0.0,0.0,0.0,0.0,0.0,0.0,0.0,0.0,0.0,0.0,0.0,0.0,0.0,0.0,0.0,0.0,0.0,0.0,0.0,0.0,0.0,0.0,0.0,0.0,0.0,0.0,0.0,0.0,0.0,0.0,0.0,0.0,0.0,0.0,0.0,0.0,0.0,0.0,0.0,0.0,0.0,0.0,0.0,0.0,0.0,0.0,0.0,0.0,0.0,0.0,0.0,0.0,0.0,0.0,0.0,0.0,0.0,0.0,0.0,0.0,0.0,0.0,0.0,0.0,0.0,0.0,0.0,0.0,0.0,0.0,0.0,0.0,0.0,0.0,0.0,0.0,0.0,0.0,0.0,0.0,0.0,0.0,0.0,0.0,0.0,0.0,0.0,0.0,0.0,0.0,0.0,0.0,0.0,0.0,0.0,0.0,0.0,0.0,0.0,0.0,0.0,0.0,0.0,0.0,0.0,0.0,0.0,0.0,0.0,0.0,0.0,0.0,0.0,0.0,0.0,0.0,0.0,0.0,0.0,0.0,0.0,0.0,0.0,0.0,0.0,0.0,0.0,0.0,0.0,0.0,0.0,0.0,0.0,0.0,0.0,0.0,0.0,0.0,0.0,0.0,0.0,0.0,0.0,0.0,0.0,0.0,0.0,0.0,0.0,0.0,0.0,0.0,0.0,0.0,0.0,0.0,0.0,0.0,0.0,0.0,0.0,0.0,0.0,0.0,0.0,0.0,0.0,0.0,0.0,0.0,0.0,0.0,0.0,0.0,0.0,0.0,0.0,0.0,0.0,0.0,0.0,0.0,0.0,0.0,0.0,0.0,0.0,0.0,0.0,0.0,0.0,0.0,0.0,0.0,0.0,0.0,0.0,0.0,0.0,0.0,0.0,0.0,0.0,0.0,0.0,0.0,0.0,0.0,0.0,0.0,0.0,0.0,0.0,0.0,0.0,0.0,0.0,0.0,0.0,0.0,0.0,0.0,0.0,0.0,0.0,0.0,0.0,0.0,0.0,0.0,0.0,0.0,0.0,0.0,0.0,0.0,0.0,0.0,0.0,0.0,0.0,0.0,0.0,0.0,0.0,0.0,0.0,0.0,0.0,0.0,0.0,0.0,0.0,0.0,0.0,0.0,0.0,0.0,0.0,0.0,0.0,0.0,0.0,0.0,0.0,0.0,0.0,0.0,0.0,0.0,0.0,0.0,0.0,0.0,0.0,0.0,0.0,0.0,0.0,0.0,0.0,0.0,0.0,0.0,0.0,0.0,0.0,0.0,0.0,0.0,0.0,0.0,0.0,0.0,0.0,0.0,0.0,0.0,0.0,0.0,0.0,0.0,0.0,0.0,0.0,0.0,0.0,0.0,0.0,0.0,0.0,0.0,0.0,0.0,0.0,0.0,0.0,0.0,0.0,0.0,0.0,0.0,0.0,0.0,0.0,0.0,0.0,0.0,0.0,0.0,0.0,0.0,0.0,0.0,0.0,0.0,0.0,0.0,0.0,0.0,0.0,0.0,0.0,0.0,0.0,0.0,0.0,0.0,0.0,0.0,0.0,0.0,0.0,0.0,0.0,0.0,0.0,0.0,0.0,0.0,0.0,0.0,0.0,0.0,0.0,0.0,0.0,0.0,0.0,0.0,0.0,0.0,0.0,0.0,0.0,0.0,0.0,0.0,0.0,0.0,0.0,0.0,0.0,0.0,0.0,0.0,-0.3984,0.0,0.0,0.0,0.0,0.0,0.0,0.0,0.0,0.0,0.0,0.0,0.0,0.0,0.0,0.0,0.0,0.0,0.0,0.0,0.0,0.0,0.0,0.0,0.0,0.0,0.0,0.0,0.0,0.0,0.0,0.0,0.0,0.0,0.0,0.0,0.0,0.0,0.0,0.0,0.0,0.0,0.0,0.0,0.0,0.0,0.0,0.0,0.0,0.0,0.0,0.0,0.0,0.0,0.0,0.0,0.0,0.0,0.0,0.0,0.0,0.0,0.0,0.0,0.0,0.0,0.0,0.0,0.0,0.0,0.0,0.0,0.0,0.0,0.0,0.0,0.0,0.0,0.0,0.0,0.0,0.0,0.0,0.0,0.0,0.0,0.0,0.0,0.0,0.0,0.0,0.0,0.0,0.0,0.0,0.0,0.0,0.0,0.0,0.0,0.0,0.0,0.0,0.0,0.0,0.0,0.0,0.0,0.0,0.0,0.0,-0.2746,-0.384,-0.3965,-0.3957,-0.3863,0.0,0.0,0.0,0.0,0.0,0.0,0.0,0.0,0.0,0.0,0.0,0.0,0.0,0.0,0.0,0.0,0.0,0.0,0.0,0.0,0.0,0.0,0.0,0.0,0.0,0.0,0.0,0.0,0.0,0.0,0.0,0.0,0.0,0.0,0.0,0.0,0.0,0.0,0.0,0.0,0.0,0.0,0.0,0.0,0.0,0.0,0.0,0.0,0.0,0.0,0.0,0.0,0.0,0.0,0.0,0.0,0.0,0.0,0.0,0.0,0.0,0.0,0.0,0.0,0.0,0.0,0.0,0.0,0.0,0.0,0.0,0.0,0.0,0.0,0.0,0.0,0.0,0.0,0.0,0.0,0.0,0.0,0.0,0.0,0.0,0.0,0.0,0.0,0.0,0.0,0.0,0.0,0.0,0.0,0.0,0.0,0.0,0.0,0.0,0.0,0.0,0.0,0.0,0.0,0.0,0.0,0.0,0.0,0.0,0.0,0.0,0.0,-0.3917,-0.4152,-0.3948,0.0,0.0,0.0,0.0,0.0,0.0,0.0,0.0,0.0,0.0,0.0,0.0,0.0,0.0,0.0,0.0,0.0,0.0,0.0,0.0,0.0,0.0,0.0,0.0,0.0,0.0,0.0,0.0,0.0,0.0,0.0,0.0,0.0,0.0,0.0,0.0,0.0,0.0,0.0,0.0,0.0,0.0,0.0,0.0,0.0,0.0,0.0,0.0,0.0,0.0,0.0,0.0,0.0,0.0,0.0,0.0,0.0,0.0,0.0,0.0,0.0,0.0,0.0,0.0,0.0,0.0,0.0,0.0,0.0,0.0,0.0,0.0,0.0,0.0,0.0,0.0,0.0,0.0,0.0,0.0,0.0,0.0,0.0,0.0,0.0,0.0,0.0,0.0,0.0,0.0,0.0,0.0,0.0,0.0,0.0,0.0,0.0,0.0,0.0,0.0,0.0,0.0,0.0,0.0,0.0,0.0,0.0,0.0,0.0,0.0,-0.2385,-0.311,-0.4343,0.0,-0.4387,0.0,0.0,0.0,0.0,0.0,0.0,0.0,0.0,0.0,0.0,0.0,0.0,0.0,0.0,0.0,0.0,0.0,0.0,0.0,0.0,0.0,0.0,0.0,0.0,0.0,0.0,0.0,0.0,0.0,0.0,0.0,0.0,0.0,0.0,0.0,0.0,0.0,0.0,0.0,0.0,0.0,0.0,0.0,0.0,0.0,0.0,0.0,0.0,0.0,0.0,0.0,0.0,0.0,0.0,0.0,0.0,0.0,0.0,0.0,0.0,0.0,0.0,0.0,0.0,0.0,0.0,0.0,0.0,0.0,0.0,0.0,0.0,0.0,0.0,0.0,0.0,0.0,0.0,0.0,0.0,0.0,0.0,0.0,0.0,0.0,0.0,0.0,0.0,0.0,0.0,0.0,0.0,0.0,0.0,0.0,0.0,0.0,0.0,0.0,0.0,0.0,0.0,0.0,0.0,0.0,0.0,0.0,0.0,0.0,0.0,0.0,-0.3076,-0.4063,-0.4661,0.0,0.0,0.0,0.0,0.0,0.0,0.0,0.0,0.0,0.0,0.0,0.0,0.0,0.0,0.0,0.0,0.0,0.0,0.0,0.0,0.0,0.0,0.0,0.0,0.0,0.0,0.0,0.0,0.0,0.0,0.0,0.0,0.0,0.0,0.0,0.0,0.0,0.0,0.0,0.0,0.0,0.0,0.0,0.0,0.0,0.0,0.0,0.0,0.0,0.0,0.0,0.0,0.0,0.0,0.0,0.0,0.0,0.0,0.0,0.0,0.0,0.0,0.0,0.0,0.0,0.0,0.0,0.0,0.0,0.0,0.0,0.0,0.0,0.0,0.0,0.0,0.0,0.0,0.0,0.0,0.0,0.0,0.0,0.0,0.0,0.0,0.0,0.0,0.0,0.0,0.0,0.0,0.0,0.0,0.0,0.0,0.0,0.0,0.0,0.0,0.0,0.0,0.0,0.0,0.0,0.0,0.0,0.0,0.0,0.0,-0.2301,0.0,-0.4163,-0.4907,-0.5356,-0.5519,0.0,0.0,0.0,0.0,0.0,0.0,0.0,0.0,0.0,0.0,0.0,0.0,0.0,0.0,0.0,0.0,0.0,0.0,0.0,0.0,0.0,0.0,0.0,0.0,0.0,0.0,0.0,0.0,0.0,0.0,0.0,0.0,0.0,0.0,0.0,0.0,0.0,0.0,0.0,0.0,0.0,0.0,0.0,0.0,0.0,0.0,0.0,0.0,0.0,0.0,0.0,0.0,0.0,0.0,0.0,0.0,0.0,0.0,0.0,0.0,0.0,0.0,0.0,0.0,0.0,0.0,0.0,0.0,0.0,0.0,0.0,0.0,0.0,0.0,0.0,0.0,0.0,0.0,0.0,0.0,0.0,0.0,0.0,0.0,0.0,0.0,0.0,0.0,0.0,0.0,0.0,0.0,0.0,0.0,0.0,0.0,0.0,0.0,0.0,0.0,0.0,0.0,0.0,0.0,0.0,0.0,0.0,0.0,0.0,-0.3649,-0.4912,-0.6887,-0.759,-0.7504,0.0,0.0,0.0,0.0,0.0,0.0,0.0,0.0,0.0,0.0,0.0,0.0,0.0,0.0,0.0,0.0,0.0,0.0,0.0,0.0,0.0,0.0,0.0,0.0,0.0,0.0,0.0,0.0,0.0,0.0,0.0,0.0,0.0,0.0,0.0,0.0,0.0,0.0,0.0,0.0,0.0,0.0,0.0,0.0,0.0,0.0,0.0,0.0,0.0,0.0,0.0,0.0,0.0,0.0,0.0,0.0,0.0,0.0,0.0,0.0,0.0,0.0,0.0,0.0,0.0,0.0,0.0,0.0,0.0,0.0,0.0,0.0,0.0,0.0,0.0,0.0,0.0,0.0,0.0,0.0,0.0,0.0,0.0,0.0,0.0,0.0,0.0,0.0,0.0,0.0,0.0,0.0,0.0,0.0,0.0,0.0,0.0,0.0,0.0,0.0,0.0,0.0,0.0,0.0,0.0,0.0,0.0,0.0,0.0,-0.4438,-0.6723,-0.8783,-1.0377,-0.9459,-0.8765,0.0,0.0,0.0,0.0,0.0,0.0,0.0,0.0,0.0,0.0,0.0,0.0,0.0,0.0,0.0,0.0,0.0,0.0,0.0,0.0,0.0,0.0,0.0,0.0,0.0,0.0,0.0,0.0,0.0,0.0,0.0,0.0,0.0,0.0,0.0,0.0,0.0,0.0,0.0,0.0,0.0,0.0,0.0,0.0,0.0,0.0,0.0,0.0,0.0,0.0,0.0,0.0,0.0,0.0,0.0,0.0,0.0,0.0,0.0,0.0,0.0,0.0,0.0,0.0,0.0,0.0,0.0,0.0,0.0,0.0,0.0,0.0,0.0,0.0,0.0,0.0,0.0,0.0,0.0,0.0,0.0,0.0,0.0,0.0,0.0,0.0,0.0,0.0,0.0,0.0,0.0,0.0,0.0,0.0,0.0,0.0,0.0,0.0,0.0,0.0,0.0,0.0,0.0,0.0,0.0,0.0,0.0,0.0,0.0,-0.7072,0.0,-1.2026,0.0,-1.1686,-1.0584,0.0,0.0,0.0,0.0,0.0,0.0,0.0,0.0,0.0,0.0,0.0,0.0,0.0,0.0,0.0,0.0,0.0,0.0,0.0,0.0,0.0,0.0,0.0,0.0,0.0,0.0,0.0,0.0,0.0,0.0,0.0,0.0,0.0,0.0,0.0,0.0,0.0,0.0,0.0,0.0,0.0,0.0,0.0,0.0,0.0,0.0,0.0,0.0,0.0,0.0,0.0,0.0,0.0,0.0,0.0,0.0,0.0,0.0,0.0,0.0,0.0,0.0,0.0,0.0,0.0,0.0,0.0,0.0,0.0,0.0,0.0,0.0,0.0,0.0,0.0,0.0,0.0,0.0,0.0,0.0,0.0,0.0,0.0,0.0,0.0,0.0,0.0,0.0,0.0,0.0,0.0,0.0,0.0,0.0,0.0,0.0,0.0,0.0,0.0,0.0,0.0,0.0,0.0,0.0,0.0,0.0,0.0,0.0,-0.7335,-1.1104,-1.3417,-1.4511,-1.4116,-1.435,-1.3132,0.0,0.0,0.0,0.0,0.0,0.0,0.0,0.0,0.0,0.0,0.0,0.0,0.0,0.0,0.0,0.0,0.0,0.0,0.0,0.0,0.0,0.0,0.0,0.0,0.0,0.0,0.0,0.0,0.0,0.0,0.0,0.0,0.0,0.0,0.0,0.0,0.0,0.0,0.0,0.0,0.0,0.0,0.0,0.0,0.0,0.0,0.0,0.0,0.0,0.0,0.0,0.0,0.0,0.0,0.0,0.0,0.0,0.0,0.0,0.0,0.0,0.0,0.0,0.0,0.0,0.0,0.0,0.0,0.0,0.0,0.0,0.0,0.0,0.0,0.0,0.0,0.0,0.0,0.0,0.0,0.0,0.0,0.0,0.0,0.0,0.0,0.0,0.0,0.0,0.0,0.0,0.0,0.0,0.0,0.0,0.0,0.0,0.0,0.0,0.0,0.0,0.0,0.0,0.0,0.0,0.0,0.0,0.0,0.0,-1.4483,-1.7085,-1.866,-1.9021,-1.7314,-1.5616,0.0,0.0,0.0,0.0,0.0,0.0,0.0,0.0,0.0,0.0,0.0,0.0,0.0,0.0,0.0,0.0,0.0,0.0,0.0,0.0,0.0,0.0,0.0,0.0,0.0,0.0,0.0,0.0,0.0,0.0,0.0,0.0,0.0,0.0,0.0,0.0,0.0,0.0,0.0,0.0,0.0,0.0,0.0,0.0,0.0,0.0,0.0,0.0,0.0,0.0,0.0,0.0,0.0,0.0,0.0,0.0,0.0,0.0,0.0,0.0,0.0,0.0,0.0,0.0,0.0,0.0,0.0,0.0,0.0,0.0,0.0,0.0,0.0,0.0,0.0,0.0,0.0,0.0,0.0,0.0,0.0,0.0,0.0,0.0,0.0,0.0,0.0,0.0,0.0,0.0,0.0,0.0,0.0,0.0,0.0,0.0,0.0,0.0,0.0,0.0,0.0,0.0,0.0,0.0,0.0,0.0,0.0,0.0,0.0,-1.7745,-1.9906,-2.1317,-2.1873,-1.9997,-1.8068,-1.6097,0.0,0.0,0.0,0.0,0.0,0.0,0.0,0.0,0.0,0.0,0.0,0.0,0.0,0.0,0.0,0.0,0.0,0.0,0.0,0.0,0.0,0.0,0.0,0.0,0.0,0.0,0.0,0.0,0.0,0.0,0.0,0.0,0.0,0.0,0.0,0.0,0.0,0.0,0.0,0.0,0.0,0.0,0.0,0.0,0.0,0.0,0.0,0.0,0.0,0.0,0.0,0.0,0.0,0.0,0.0,0.0,0.0,0.0,0.0,0.0,0.0,0.0,0.0,0.0,0.0,0.0,0.0,0.0,0.0,0.0,0.0,0.0,0.0,0.0,0.0,0.0,0.0,0.0,0.0,0.0,0.0,0.0,0.0,0.0,0.0,0.0,0.0,0.0,0.0,0.0,0.0,0.0,0.0,0.0,0.0,0.0,0.0,0.0,0.0,0.0,0.0,0.0,0.0,0.0,0.0,0.0,0.0,0.0,-2.0636,-2.192,-2.2674,-2.2844,-2.2309,-2.0434,0.0,0.0,0.0,0.0,0.0,0.0,0.0,0.0,0.0,0.0,0.0,0.0,0.0,0.0,0.0,0.0,0.0,0.0,0.0,0.0,0.0,0.0,0.0,0.0,0.0,0.0,0.0,0.0,0.0,0.0,0.0,0.0,0.0,0.0,0.0,0.0,0.0,0.0,0.0,0.0,0.0,0.0,0.0,0.0,0.0,0.0,0.0,0.0,0.0,0.0,0.0,0.0,0.0,0.0,0.0,0.0,0.0,0.0,0.0,0.0,0.0,0.0,0.0,0.0,0.0,0.0,0.0,0.0,0.0,0.0,0.0,0.0,0.0,0.0,0.0,0.0,0.0,0.0,0.0,0.0,0.0,0.0,0.0,0.0,0.0,0.0,0.0,0.0,0.0,0.0,0.0,0.0,0.0,0.0,0.0,0.0,0.0,0.0,0.0,0.0,0.0,0.0,0.0,0.0,0.0,0.0,0.0,0.0,0.0,-2.1347,-2.2803,-2.3846,-2.4407,-2.3396,-2.1775,0.0,0.0,0.0,0.0,0.0,0.0,0.0,0.0,0.0,0.0,0.0,0.0,0.0,0.0,0.0,0.0,0.0,0.0,0.0,0.0,0.0,0.0,0.0,0.0,0.0,0.0,0.0,0.0,0.0,0.0,0.0,0.0,0.0,0.0,0.0,0.0,0.0,0.0,0.0,0.0,0.0,0.0,0.0,0.0,0.0,0.0,0.0,0.0,0.0,0.0,0.0,0.0,0.0,0.0,0.0,0.0,0.0,0.0,0.0,0.0,0.0,0.0,0.0,0.0,0.0,0.0,0.0,0.0,0.0,0.0,0.0,0.0,0.0,0.0,0.0,0.0,0.0,0.0,0.0,0.0,0.0,0.0,0.0,0.0,0.0,0.0,0.0,0.0,0.0,0.0,0.0,0.0,0.0,0.0,0.0,0.0,0.0,0.0,0.0,0.0,0.0,0.0,0.0,0.0,0.0,0.0,0.0,0.0,-1.9857,-2.1895,-2.3213,-2.428,-2.5072,-2.4258,-2.3006,0.0,0.0,0.0,0.0,0.0,0.0,0.0,0.0,0.0,0.0,0.0,0.0,0.0,0.0,0.0,0.0,0.0,0.0,0.0,0.0,0.0,0.0,0.0,0.0,0.0,0.0,0.0,0.0,0.0,0.0,0.0,0.0,0.0,0.0,0.0,0.0,0.0,0.0,0.0,0.0,0.0,0.0,0.0,0.0,0.0,0.0,0.0,0.0,0.0,0.0,0.0,0.0,0.0,0.0,0.0,0.0,0.0,0.0,0.0,0.0,0.0,0.0,0.0,0.0,0.0,0.0,0.0,0.0,0.0,0.0,0.0,0.0,0.0,0.0,0.0,0.0,0.0,0.0,0.0,0.0,0.0,0.0,0.0,0.0,0.0,0.0,0.0,0.0,0.0,0.0,0.0,0.0,0.0,0.0,0.0,0.0,0.0,0.0,0.0,0.0,0.0,0.0,0.0,0.0,0.0,0.0,0.0,0.0,-2.0384,-2.2227,-2.3239,-2.4188,-2.5023,-2.493,-2.4025,0.0,0.0,0.0,0.0,0.0,0.0,0.0,0.0,0.0,0.0,0.0,0.0,0.0,0.0,0.0,0.0,0.0,0.0,0.0,0.0,0.0,0.0,0.0,0.0,0.0,0.0,0.0,0.0,0.0,0.0,0.0,0.0,0.0,0.0,0.0,0.0,0.0,0.0,0.0,0.0,0.0,0.0,0.0,0.0,0.0,0.0,0.0,0.0,0.0,0.0,0.0,0.0,0.0,0.0,0.0,0.0,0.0,0.0,0.0,0.0,0.0,0.0,0.0,0.0,0.0,0.0,0.0,0.0,0.0,0.0,0.0,0.0,0.0,0.0,0.0,0.0,0.0,0.0,0.0,0.0,0.0,0.0,0.0,0.0,0.0,0.0,0.0,0.0,0.0,0.0,0.0,0.0,0.0,0.0,0.0,0.0,0.0,0.0,0.0,0.0,0.0,0.0,0.0,0.0,0.0,0.0,0.0,0.0,-2.0905,-2.2693,-2.2793,-2.351,-2.4989,-2.5183,-2.4457,0.0,0.0,0.0,0.0,0.0,0.0,0.0,0.0,0.0,0.0,0.0,0.0,0.0,0.0,0.0,0.0,0.0,0.0,0.0,0.0,0.0,0.0,0.0,0.0,0.0,0.0,0.0,0.0,0.0,0.0,0.0,0.0,0.0,0.0,0.0,0.0,0.0,0.0,0.0,0.0,0.0,0.0,0.0,0.0,0.0,0.0,0.0,0.0,-1.2695,0.0,0.0,0.0,0.0,0.0,0.0,0.0,0.0,0.0,0.0,0.0,0.0,0.0,0.0,0.0,0.0,0.0,0.0,0.0,0.0,0.0,0.0,0.0,0.0,0.0,0.0,0.0,0.0,0.0,0.0,0.0,0.0,0.0,0.0,0.0,0.0,0.0,0.0,0.0,0.0,0.0,0.0,0.0,0.0,0.0,0.0,0.0,0.0,0.0,0.0,0.0,0.0,0.0,0.0,0.0,0.0,0.0,0.0,0.0,-2.1031,-2.2695,-2.2524,-2.2975,-2.415,-2.4495,-2.406,0.0,0.0,0.0,0.0,0.0,0.0,0.0,0.0,0.0,0.0,0.0,0.0,0.0,0.0,0.0,0.0,0.0,0.0,0.0,0.0,0.0,0.0,0.0,0.0,0.0,0.0,0.0,0.0,0.0,0.0,0.0,0.0,0.0,0.0,0.0,0.0,0.0,0.0,0.0,0.0,0.0,0.0,0.0,0.0,0.0,0.0,0.0,0.0,0.0,0.0,0.0,0.0,0.0,0.0,0.0,0.0,0.0,0.0,0.0,0.0,0.0,0.0,0.0,0.0,0.0,0.0,0.0,0.0,0.0,0.0,0.0,0.0,0.0,0.0,0.0,0.0,0.0,0.0,0.0,0.0,0.0,0.0,0.0,0.0,0.0,0.0,0.0,0.0,0.0,0.0,0.0,0.0,0.0,0.0,0.0,0.0,0.0,0.0,0.0,0.0,0.0,0.0,0.0,0.0,0.0,0.0,0.0,-1.9795,-2.1019,-2.2436,-2.2258,-2.2464,-2.3198,-2.3328,-2.3043,-2.2324,0.0,0.0,0.0,0.0,0.0,0.0,0.0,0.0,0.0,0.0,0.0,0.0,0.0,0.0,0.0,0.0,0.0,0.0,0.0,0.0,0.0,0.0,0.0,0.0,0.0,0.0,0.0,0.0,0.0,0.0,0.0,0.0,0.0,0.0,0.0,0.0,0.0,0.0,-1.045,-1.1584,0.0,0.0,0.0,0.0,0.0,0.0,0.0,0.0,-1.3616,0.0,0.0,0.0,0.0,0.0,0.0,0.0,0.0,0.0,0.0,0.0,0.0,0.0,0.0,0.0,0.0,0.0,0.0,0.0,0.0,0.0,0.0,0.0,0.0,0.0,0.0,0.0,0.0,0.0,0.0,0.0,0.0,0.0,0.0,0.0,0.0,0.0,0.0,0.0,0.0,0.0,0.0,0.0,0.0,0.0,0.0,0.0,0.0,0.0,0.0,0.0,0.0,0.0,0.0,0.0,0.0,-1.8777,-2.0152,-2.1319,-2.2143,-2.1537,-2.1757,-2.2812,-2.2009,-2.1231,-2.0586,0.0,0.0,0.0,0.0,0.0,0.0,0.0,0.0,0.0,0.0,0.0,0.0,0.0,0.0,0.0,0.0,0.0,0.0,0.0,0.0,0.0,0.0,0.0,0.0,0.0,0.0,0.0,0.0,0.0,0.0,0.0,0.0,0.0,0.0,0.0,0.0,0.0,0.0,0.0,-1.2046,-1.3153,0.0,0.0,0.0,0.0,0.0,0.0,0.0,0.0,-1.2801,0.0,0.0,0.0,0.0,0.0,0.0,0.0,0.0,0.0,0.0,0.0,0.0,0.0,0.0,0.0,0.0,0.0,0.0,0.0,0.0,0.0,0.0,0.0,0.0,0.0,0.0,0.0,0.0,0.0,0.0,0.0,0.0,0.0,0.0,0.0,0.0,0.0,0.0,0.0,0.0,0.0,0.0,0.0,0.0,0.0,0.0,0.0,0.0,0.0,0.0,0.0,0.0,0.0,0.0,0.0,-1.8777,-2.0268,-2.1366,-2.2046,-2.1177,-2.111,-2.1961,-2.1229,-2.0378,0.0,0.0,0.0,0.0,0.0,0.0,0.0,0.0,0.0,0.0,0.0,0.0,0.0,0.0,0.0,0.0,0.0,0.0,0.0,0.0,0.0,0.0,0.0,0.0,0.0,0.0,0.0,0.0,0.0,0.0,0.0,0.0,0.0,0.0,0.0,0.0,0.0,0.0,0.0,0.0,-1.2736,-1.3773,-1.4204,0.0,0.0,0.0,0.0,0.0,0.0,-1.2672,-1.2186,0.0,0.0,0.0,0.0,0.0,0.0,0.0,0.0,0.0,0.0,0.0,0.0,0.0,0.0,0.0,0.0,0.0,0.0,0.0,0.0,0.0,0.0,0.0,0.0,0.0,0.0,0.0,0.0,0.0,0.0,0.0,0.0,0.0,0.0,0.0,0.0,0.0,0.0,0.0,0.0,0.0,0.0,0.0,0.0,0.0,0.0,0.0,0.0,0.0,0.0,0.0,0.0,0.0,0.0,0.0,-1.846,-1.9963,-2.1101,-2.1788,-2.0833,-2.0546,-2.1085,-2.0525,-1.9792,0.0,0.0,0.0,0.0,0.0,0.0,0.0,0.0,0.0,0.0,0.0,0.0,0.0,0.0,0.0,0.0,0.0,0.0,0.0,0.0,0.0,0.0,0.0,0.0,0.0,0.0,0.0,0.0,0.0,0.0,0.0,0.0,0.0,0.0,0.0,0.0,0.0,0.0,0.0,0.0,0.0,-1.4665,-1.4971,-1.5807,0.0,0.0,0.0,0.0,-1.398,-1.2865,0.0,0.0,0.0,0.0,0.0,0.0,0.0,0.0,0.0,0.0,0.0,0.0,0.0,0.0,0.0,0.0,0.0,0.0,0.0,0.0,0.0,0.0,0.0,0.0,0.0,0.0,0.0,0.0,0.0,0.0,0.0,0.0,0.0,0.0,0.0,0.0,0.0,0.0,0.0,0.0,0.0,0.0,0.0,0.0,0.0,0.0,0.0,0.0,0.0,0.0,0.0,0.0,0.0,0.0,0.0,0.0,-1.739,-1.8946,-2.0215,-2.1038,-2.0298,-2.0079,-2.0477,-1.9635,-1.9003,0.0,0.0,0.0,0.0,0.0,0.0,0.0,0.0,0.0,0.0,0.0,0.0,0.0,0.0,0.0,0.0,0.0,0.0,0.0,0.0,0.0,0.0,0.0,0.0,0.0,0.0,0.0,0.0,0.0,0.0,0.0,0.0,0.0,0.0,0.0,0.0,0.0,0.0,0.0,0.0,0.0,-1.6127,-1.6095,-1.6271,-1.6139,0.0,0.0,-1.4606,-1.4583,-1.3514,0.0,0.0,0.0,0.0,0.0,0.0,0.0,0.0,0.0,0.0,0.0,0.0,0.0,0.0,0.0,0.0,0.0,0.0,0.0,0.0,0.0,0.0,0.0,0.0,0.0,0.0,0.0,0.0,0.0,0.0,0.0,0.0,0.0,0.0,0.0,0.0,0.0,0.0,0.0,0.0,0.0,0.0,0.0,0.0,0.0,0.0,0.0,0.0,0.0,0.0,0.0,0.0,0.0,0.0,0.0,-1.592,-1.6789,-1.8627,-1.9783,-2.0169,-1.9788,-1.9725,-2.0054,-1.9066,-1.8574,0.0,0.0,0.0,0.0,0.0,0.0,0.0,0.0,0.0,0.0,0.0,0.0,0.0,0.0,0.0,0.0,0.0,0.0,0.0,0.0,0.0,0.0,0.0,0.0,0.0,0.0,0.0,0.0,0.0,0.0,0.0,0.0,0.0,0.0,0.0,0.0,0.0,0.0,0.0,0.0,0.0,0.0,-1.7665,-1.7773,0.0,0.0,0.0,-1.5895,-1.5252,0.0,0.0,0.0,0.0,0.0,0.0,0.0,0.0,0.0,0.0,0.0,0.0,0.0,0.0,0.0,0.0,0.0,0.0,0.0,0.0,0.0,0.0,0.0,0.0,0.0,0.0,0.0,0.0,0.0,0.0,0.0,0.0,0.0,0.0,0.0,0.0,0.0,0.0,0.0,0.0,0.0,0.0,0.0,0.0,0.0,0.0,0.0,0.0,0.0,0.0,0.0,0.0,0.0,0.0,0.0,0.0,0.0,-1.6182,-1.7917,-1.9053,-1.9543,-1.9155,-1.9172,-1.9666,-1.8631,0.0,0.0,0.0,0.0,0.0,0.0,0.0,0.0,0.0,0.0,0.0,0.0,0.0,0.0,0.0,0.0,0.0,0.0,0.0,0.0,0.0,0.0,0.0,0.0,0.0,0.0,0.0,-1.2688,0.0,0.0,0.0,0.0,0.0,0.0,0.0,0.0,0.0,0.0,0.0,0.0,0.0,0.0,-1.8767,-1.9401,-1.9247,-1.8521,0.0,0.0,-1.7072,-1.6103,-1.584,-1.543,0.0,0.0,0.0,0.0,0.0,0.0,0.0,0.0,0.0,0.0,0.0,0.0,0.0,0.0,0.0,0.0,0.0,0.0,0.0,0.0,0.0,0.0,0.0,0.0,0.0,0.0,0.0,0.0,0.0,0.0,0.0,0.0,0.0,0.0,0.0,0.0,0.0,0.0,0.0,0.0,0.0,0.0,0.0,0.0,0.0,0.0,0.0,0.0,0.0,0.0,0.0,0.0,0.0,0.0,0.0,-1.5548,-1.6246,-1.7598,-1.9453,-1.8315,-1.8207,-1.9353,-1.8339,-1.7874,0.0,0.0,0.0,0.0,0.0,0.0,0.0,0.0,0.0,0.0,0.0,0.0,0.0,0.0,0.0,0.0,0.0,0.0,0.0,0.0,0.0,0.0,0.0,0.0,0.0,0.0,0.0,0.0,0.0,0.0,0.0,0.0,0.0,0.0,0.0,0.0,0.0,0.0,0.0,0.0,0.0,-2.036,-2.1195,-2.0306,-1.9177,0.0,0.0,-1.782,-1.7272,-1.713,-1.6945,-1.6609,0.0,0.0,0.0,0.0,0.0,0.0,0.0,0.0,0.0,0.0,0.0,0.0,0.0,0.0,0.0,0.0,0.0,0.0,0.0,0.0,0.0,0.0,0.0,0.0,0.0,0.0,0.0,0.0,0.0,0.0,0.0,0.0,0.0,0.0,0.0,0.0,0.0,0.0,0.0,0.0,0.0,0.0,0.0,0.0,0.0,0.0,0.0,0.0,0.0,0.0,0.0,0.0,0.0,-1.4016,-1.4481,-1.5738,-1.6798,-1.7578,-1.7536,-1.7754,-1.8207,-1.7524,-1.7377,0.0,0.0,0.0,0.0,0.0,0.0,0.0,0.0,0.0,0.0,0.0,0.0,0.0,0.0,0.0,0.0,0.0,0.0,0.0,0.0,0.0,0.0,0.0,0.0,0.0,0.0,0.0,0.0,-1.7807,-1.8698,-2.0407,0.0,0.0,0.0,0.0,0.0,0.0,0.0,0.0,0.0,0.0,-2.1579,-2.2149,-2.1225,0.0,0.0,-1.9858,-1.9784,-1.9038,-1.9363,-1.9447,-1.8639,-1.8143,0.0,0.0,0.0,0.0,0.0,0.0,0.0,0.0,0.0,0.0,0.0,0.0,0.0,0.0,0.0,0.0,0.0,0.0,0.0,0.0,0.0,0.0,0.0,0.0,0.0,0.0,0.0,0.0,0.0,0.0,0.0,0.0,0.0,0.0,0.0,0.0,0.0,0.0,0.0,0.0,0.0,0.0,0.0,0.0,0.0,0.0,0.0,0.0,0.0,0.0,0.0,0.0,-1.3613,-1.3792,-1.5173,-1.6055,-1.6387,-1.6725,-1.7086,-1.7468,-1.6807,-1.6799,0.0,0.0,0.0,0.0,0.0,0.0,0.0,0.0,0.0,0.0,0.0,0.0,0.0,0.0,0.0,0.0,0.0,0.0,0.0,0.0,0.0,0.0,0.0,0.0,0.0,0.0,0.0,0.0,-1.9468,-2.0066,-2.1287,0.0,0.0,0.0,0.0,0.0,0.0,0.0,0.0,0.0,0.0,-2.2346,-2.265,-2.1824,-2.1068,-2.0791,-2.1211,-2.1337,-2.0756,-2.1194,-2.1461,-2.0949,0.0,0.0,0.0,0.0,0.0,0.0,0.0,0.0,0.0,0.0,0.0,0.0,0.0,0.0,0.0,0.0,0.0,0.0,0.0,0.0,0.0,0.0,0.0,0.0,0.0,0.0,0.0,-1.9578,0.0,0.0,-1.5602,0.0,0.0,0.0,0.0,0.0,0.0,0.0,0.0,0.0,0.0,0.0,0.0,0.0,0.0,0.0,0.0,0.0,0.0,0.0,0.0,0.0,0.0,-1.3224,-1.3779,-1.4445,-1.5286,-1.6323,-1.5834,-1.6194,-1.7385,-1.6293,-1.6163,-1.7284,0.0,0.0,0.0,0.0,0.0,0.0,0.0,0.0,0.0,0.0,0.0,0.0,0.0,0.0,0.0,0.0,0.0,0.0,0.0,0.0,0.0,0.0,0.0,0.0,0.0,0.0,-1.906,-1.9609,-2.027,0.0,0.0,0.0,0.0,0.0,0.0,0.0,0.0,0.0,0.0,-2.3063,-2.2636,-2.2698,-2.2088,-2.1581,-2.1363,-2.1779,-2.217,-2.2316,-2.2375,-2.2713,0.0,0.0,0.0,0.0,0.0,0.0,0.0,0.0,0.0,0.0,0.0,0.0,0.0,0.0,0.0,0.0,0.0,0.0,0.0,0.0,0.0,0.0,0.0,0.0,0.0,0.0,0.0,-2.2019,-2.1134,0.0,0.0,0.0,0.0,0.0,0.0,0.0,0.0,0.0,0.0,0.0,-2.1724,-2.2143,0.0,0.0,0.0,0.0,0.0,0.0,0.0,0.0,0.0,0.0,0.0,0.0,-1.3396,-1.3262,-1.419,-1.488,-1.5275,-1.5772,-1.608,-1.6176,-1.598,-1.6202,-1.6959,0.0,0.0,0.0,0.0,0.0,0.0,0.0,0.0,0.0,0.0,0.0,0.0,0.0,0.0,0.0,0.0,0.0,0.0,0.0,0.0,0.0,0.0,0.0,0.0,0.0,-2.0947,0.0,0.0,0.0,0.0,0.0,0.0,0.0,0.0,0.0,0.0,0.0,-2.3775,-2.4358,-2.4098,-2.3887,-2.3902,-2.3483,-2.3298,0.0,0.0,0.0,0.0,0.0,0.0,0.0,0.0,0.0,0.0,0.0,0.0,0.0,0.0,-2.5222,-2.4767,-2.465,-2.4701,-2.482,0.0,0.0,0.0,0.0,0.0,0.0,0.0,0.0,0.0,0.0,0.0,0.0,0.0,0.0,-2.2197,0.0,-2.0962,0.0,0.0,0.0,0.0,0.0,0.0,0.0,0.0,-2.2289,-2.2568,-2.2362,-2.2598,-2.2791,0.0,-2.2802,-2.2411,0.0,0.0,0.0,0.0,0.0,0.0,0.0,0.0,-1.3899,-1.3012,-1.4283,-1.4903,-1.4732,-1.5606,-1.5899,-1.5522,-1.5719,-1.6173,-1.6779,-1.8344,-1.9132,0.0,0.0,0.0,0.0,0.0,0.0,0.0,0.0,0.0,0.0,0.0,0.0,0.0,0.0,0.0,0.0,0.0,0.0,0.0,0.0,0.0,0.0,0.0,-2.1825,0.0,0.0,0.0,0.0,0.0,0.0,0.0,0.0,0.0,-2.3184,-2.3713,-2.4232,-2.489,-2.4636,-2.4463,-2.4751,0.0,0.0,0.0,0.0,0.0,0.0,0.0,-2.3717,-2.3811,-2.4039,-2.4265,-2.4454,-2.5093,-2.5509,-2.525,0.0,0.0,-2.479,-2.4746,-2.4796,-2.491,-2.514,-2.5401,-2.5631,-2.5903,-2.6017,0.0,0.0,0.0,0.0,0.0,0.0,0.0,0.0,-2.1282,-2.1536,0.0,-2.0997,0.0,0.0,0.0,0.0,0.0,-2.0096,0.0,0.0,-2.2136,-2.2987,-2.3435,-2.2928,-2.2979,-2.3583,-2.4127,-2.4119,-2.35,-2.1804,0.0,0.0,0.0,0.0,0.0,0.0,-1.4653,-1.3012,-1.4595,-1.5253,-1.4732,-1.5359,-1.5662,-1.5528,-1.5567,-1.5963,-1.6843,-1.8822,-1.967,-1.9024,-2.0929,0.0,0.0,0.0,0.0,0.0,0.0,0.0,0.0,0.0,0.0,0.0,0.0,0.0,0.0,0.0,0.0,0.0,0.0,0.0,0.0,-2.184,0.0,0.0,0.0,0.0,0.0,0.0,0.0,0.0,0.0,0.0,-2.3532,-2.3684,-2.4038,-2.5075,0.0,0.0,0.0,0.0,-2.4963,-2.6051,-2.5444,-2.5137,-2.586,-2.5047,-2.448,-2.507,0.0,0.0,-2.5067,-2.5726,-2.5909,-2.5265,-2.5088,-2.5154,-2.5107,-2.5067,-2.5053,-2.4869,-2.5338,-2.5698,-2.5304,-2.5651,-2.6065,-1.4367,0.0,0.0,0.0,0.0,-2.0145,-2.1602,-2.2616,-2.275,-2.2829,-2.2809,-2.267,0.0,0.0,0.0,0.0,0.0,0.0,-2.1293,-2.2111,-2.2038,-2.2086,-2.2248,-2.2063,-2.2325,-2.2951,-2.2659,-2.293,-2.3606,-2.2677,-2.1652,-2.0623,0.0,0.0,0.0,0.0,-1.4653,-1.3071,-1.3849,-1.4434,-1.4698,-1.5313,-1.5727,-1.591,-1.5574,-1.5942,-1.7127,-1.8536,-1.9631,-2.0382,-2.1741,0.0,0.0,0.0,0.0,0.0,0.0,0.0,0.0,0.0,0.0,0.0,0.0,0.0,0.0,0.0,0.0,0.0,0.0,0.0,-2.1307,-2.0943,-2.0856,0.0,0.0,0.0,0.0,0.0,0.0,0.0,0.0,0.0,-2.3974,-2.4538,-2.4544,0.0,0.0,-2.5221,-2.4976,-2.5617,-2.6225,-2.6512,-2.6168,0.0,-2.5982,-2.4414,-2.3513,-2.4455,-2.4199,-2.3864,-2.4032,-2.4255,-2.4304,-2.4099,-2.4051,-2.4055,-2.4082,-2.4292,-2.4514,-2.4734,-2.4676,-2.4695,-2.5011,-2.5281,-2.5307,-1.6988,-1.6035,-1.7538,-1.8561,-1.9293,-2.0586,-2.1587,-2.2288,-2.23,-2.2305,-2.228,-2.228,-2.1518,-2.0253,-2.0368,0.0,0.0,0.0,-2.1348,-2.1728,-2.1179,-2.0886,-2.0833,-2.0588,-2.0959,-2.1828,-2.1437,-2.1838,-2.2899,-2.2507,-2.1816,-2.0887,0.0,0.0,-1.5958,-1.6105,-1.5128,-1.3046,-1.3718,-1.4329,-1.4698,-1.5332,-1.5909,-1.645,-1.5988,-1.6303,-1.7621,-1.8618,-1.9589,-2.053,-2.1482,-2.2138,0.0,0.0,0.0,0.0,0.0,0.0,0.0,0.0,0.0,0.0,0.0,-1.9046,-1.966,0.0,0.0,0.0,-2.0578,-2.1008,-2.1109,-2.0897,0.0,0.0,0.0,0.0,0.0,0.0,0.0,-2.3872,-2.271,-2.2101,-2.303,-2.343,-2.3615,-2.3708,-2.4414,-2.4869,-2.4871,0.0,-2.65,-2.6589,-2.6183,-2.573,-2.5307,-2.3826,-2.2846,-2.3252,-2.3084,-2.2958,-2.3209,-2.3231,-2.3231,-2.3273,-2.344,-2.3439,-2.2942,-2.3044,-2.3321,-2.3729,-2.355,-2.3439,-2.3678,-2.394,-2.4061,-1.7251,-1.66,-1.7807,-1.8673,-1.9354,-2.0236,-2.0611,-2.059,-2.0611,-2.059,-2.059,-2.059,-2.0301,-1.98,-2.0085,0.0,-2.0204,-2.1039,-2.1001,-2.0327,-1.9779,-1.9468,-1.9318,-1.8797,-1.9173,-2.0364,-2.0351,-2.0735,-2.1421,-2.1445,-2.1207,-2.0733,-2.1207,-1.9748,-1.6596,-1.6936,-1.5793,-1.2964,-1.3978,-1.4594,-1.4687,-1.5362,-1.6117,-1.6987,-1.6597,-1.6933,-1.8129,-1.8965,-1.9577,-1.994,-2.0623,-2.1007,-2.1007,0.0,0.0,0.0,0.0,0.0,0.0,0.0,0.0,0.0,0.0,0.0,0.0,0.0,0.0,0.0,-2.1334,0.0,-2.1218,-2.1274,0.0,0.0,0.0,-2.099,-2.1746,-2.2119,-2.2561,-2.3223,0.0,0.0,-2.1185,-2.0952,-2.1597,-2.3757,-2.3674,-2.3734,-2.46,-2.5358,-2.6003,-2.6202,-2.5584,-2.4804,-2.4155,-2.3113,-2.2178,-2.1722,-2.158,-2.1895,-2.2398,-2.2526,-2.2546,-2.2447,-2.2927,-2.2939,-2.1792,-2.1604,-2.1684,-2.2049,-2.2183,-2.2094,-2.1807,-2.2188,-2.2605,-1.5728,-1.557,-1.5896,-1.7281,-1.9365,-2.0236,-2.059,-2.059,-2.059,-2.059,-2.059,-2.059,-2.0512,-2.04,-2.0477,-2.031,-1.9973,-1.9755,-1.943,-1.8934,-1.837,-1.8078,-1.8028,-1.7927,-1.7997,-1.8297,-1.8309,-1.8672,-1.9315,-1.9328,-1.9558,-1.9915,-1.9558,-1.8365,-1.6496,-1.655,-1.5397,-1.2939,-1.3176,-1.3776,-1.4675,-1.5314,-1.5911,-1.6487,-1.6769,-1.7249,-1.7943,-1.8886,-1.9651,-2.02,-2.0701,-2.1007,-2.1007,-2.1007,0.0,0.0,0.0,0.0,0.0,0.0,0.0,0.0,0.0,-1.9367,-1.9121,0.0,-1.9243,0.0,-2.1252,-2.1276,-2.0259,-2.0553,0.0,0.0,-2.1434,-2.1993,-2.3527,-2.2418,-2.1754,-2.2485,-2.0931,-1.9789,-1.9779,-1.9362,-1.9287,-1.9905,-2.1493,-2.2569,-2.2389,-2.3907,-2.5008,-2.4725,-2.4111,-2.3506,-2.2914,-2.1679,-2.0617,-2.0422,-2.0747,-2.1139,-2.1304,-2.1349,-2.1176,-2.0817,-2.0819,-2.0784,-2.0528,-2.0401,-2.0366,-2.0475,-2.0657,-2.0872,-2.1071,-2.1295,-2.142,-1.4645,-1.4382,-1.4681,-1.5689,-1.7152,-1.7902,-1.8208,-1.8184,-1.8184,-1.8218,-1.8208,-1.8208,-1.8218,-1.8231,-1.8461,-1.8592,-1.867,-1.8376,-1.7951,-1.7411,-1.6828,-1.6239,-1.5553,-1.5553,-1.5716,-1.6038,-1.6038,-1.6581,-1.758,-1.7607,-1.802,-1.8747,-1.8377,-1.7501,-1.6214,-1.5983,-1.4959,-1.3189,-1.3532,-1.4014,-1.4675,-1.5555,-1.6236,-1.6743,-1.7023,-1.7556,-1.8319,-1.8883,-1.9448,-2.0004,-2.0278,-2.043,-2.043,-2.0414,-2.0414,0.0,0.0,0.0,0.0,0.0,0.0,0.0,0.0,0.0,0.0,0.0,-1.8963,-1.9879,-2.0955,-2.1234,-2.0331,-2.0931,-2.1462,-2.159,-2.1446,-2.1675,-2.2551,-2.1416,-2.0693,-2.0916,-1.9575,-1.8425,-1.7937,-1.7287,-1.6654,-1.6166,-1.7725,-1.9296,-2.0258,-2.165,-2.2645,-2.2696,-2.2174,-2.1342,-2.0423,-1.9242,-1.8437,-1.8432,-1.8663,-1.8971,-1.924,-1.9297,-1.9275,-1.9255,-1.9484,-1.9582,-1.9293,-1.9412,-1.9466,-1.9185,-1.9204,-1.9654,-2.0501,-2.0682,-2.0734,-1.3593,-1.3128,-1.368,-1.3917,-1.3966,-1.4482,-1.4839,-1.5093,-1.5093,-1.5093,-1.5093,-1.5058,-1.5093,-1.5103,-1.5578,-1.6136,-1.6735,-1.6729,-1.6376,-1.569,-1.5215,-1.4298,-1.3009,-1.2879,-1.3171,-1.3779,-1.3809,-1.4499,-1.577,-1.6028,-1.6539,-1.728,-1.7319,-1.6873,-1.6001,-1.5431,-1.462,-1.357,-1.424,-1.4663,-1.4812,-1.5832,-1.6646,-1.7167,-1.7271,-1.7747,-1.865,-1.8779,-1.9043,-1.9566,-1.9603,-1.9621,-1.969,-1.9723,-1.9627,0.0,-1.9498,0.0,0.0,0.0,0.0,0.0,0.0,0.0,0.0,-1.8706,-1.8401,-1.8817,-2.0356,-2.1113,-2.0661,-2.1432,-2.1802,-2.1376,-2.0986,-2.0629,-2.0358,-1.9931,-1.9438,-1.8948,-1.8123,-1.7114,-1.5877,-1.509,-1.4215,-1.3498,-1.4002,-1.5421,-1.7606,-1.895,-1.9875,-2.0359,-1.9875,-1.8958,-1.759,-1.6678,-1.6272,-1.6289,-1.6447,-1.6474,-1.7063,-1.7135,-1.7239,-1.7651,-1.8104,-1.8332,-1.7848,-1.8288,-1.8529,-1.811,-1.8139,-1.8603,-1.9606,-1.9921,-2.0181,-1.1895,-1.1778,-1.1881,-1.1955,-1.1969,-1.2081,-1.3006,-1.4455,-1.4488,-1.4455,-1.4488,-1.4488,-1.4455,-1.448,-1.4562,-1.4489,-1.4285,-1.4296,-1.403,-1.361,-1.3472,-1.3265,-1.297,-1.2273,-1.1997,-1.2173,-1.2142,-1.2279,-1.2635,-1.3963,-1.5012,-1.5744,-1.5795,-1.5985,-1.6308,0.0,0.0,0.0,-1.3881,-1.4445,-1.5387,-1.5654,-1.6051,-1.6625,-1.7076,0.0,-1.7605,-1.7993,-1.8496,-1.9006,-1.9043,0.0,0.0,0.0,0.0,0.0,0.0,0.0,0.0,0.0,0.0,0.0,-1.7375,-1.7162,-1.7371,-1.8071,-1.8411,-1.8175,-1.9155,-1.9783,-1.969,-1.9679,-1.9824,-2.0035,-1.9688,-1.9599,-1.9882,-1.9021,-1.7942,-1.6818,-1.5991,-1.5001,-1.387,-1.3436,-1.3266,-1.2907,-1.2675,-1.2847,-1.3806,-1.6113,-1.7741,-1.792,-1.7501,-1.6878,-1.6045,-1.5406,-1.5166,-1.5521,-1.568,-1.5693,-1.5791,-1.5815,-1.5642,-1.5522,-1.5475,-1.5749,-1.6039,-1.6526,-1.7041,-1.7353,-1.7753,-1.819,-1.8468,-1.8507,-1.8679,-1.1082,0.0,-1.1056,-1.0995,0.0,-1.0995,-1.1547,-1.2497,-1.2757,-1.2643,-1.2231,-1.2224,-1.2231,-1.2217,-1.21,-1.2342,-1.2885,-1.2783,-1.2617,-1.2428,-1.2389,-1.195,-1.1135,-1.0714,-1.0279,-0.9895,-0.9863,-1.0304,-1.1117,-1.1966,-1.2973,-1.4159,-1.4195,-1.4619,-1.5332,-1.5355,-1.4928,-1.409,-1.4191,-1.4687,-1.5565,-1.5886,-1.6173,-1.65,-1.6752,0.0,0.0,0.0,0.0,0.0,0.0,0.0,0.0,0.0,0.0,-1.9377,-1.9077,-1.8581,-1.7894,-1.7291,-1.6993,-1.7044,-1.6102,-1.6012,-1.7102,-1.774,-1.8105,-1.8135,-1.8797,-1.9224,-1.9177,-1.9543,-1.9809,-1.9705,-1.9186,-1.8911,-1.8796,-1.7472,-1.6141,-1.5303,-1.4462,-1.3568,-1.2566,-1.2004,-1.1552,-1.1092,-1.0513,-1.0236,-1.0657,-1.2786,-1.462,-1.5028,-1.5208,-1.4959,-1.4396,-1.4037,-1.3889,-1.4166,-1.4208,-1.4208,-1.4208,-1.4219,-1.4201,-1.4225,-1.4262,-1.4432,-1.4994,-1.539,-1.5652,-1.5981,-1.6464,-1.6844,-1.6907,-1.7504,-1.8163,-1.0807,-1.0962,-1.0713,-1.0586,-1.0586,-1.0434,-1.0269,-1.0168,0.0,0.0,0.0,-0.9725,-0.9719,-0.9742,-0.9645,-1.0398,-1.1632,-1.1609,-1.1593,-1.1593,-1.1586,-1.0773,-0.9306,-0.9139,-0.8619,-0.78,-0.7767,-0.8559,-1.0046,-1.0355,-1.127,-1.2665,-1.2917,-1.3403,-1.4236,-1.5325,-1.5495,-1.4747,-1.4914,-1.5301,-1.5884,-1.629,-1.6552,-1.6637,-1.6552,-1.671,-1.7152,-1.7531,-1.8056,-1.8732,-1.8581,-1.9038,-2.0258,-1.9355,-1.901,-1.9518,-1.9082,-1.8444,-1.7759,-1.713,-1.6596,-1.6128,-1.4787,-1.4856,-1.6862,-1.7002,-1.7303,-1.8023,-1.839,-1.8594,-1.8712,-1.9471,-1.981,-1.9235,-1.8638,-1.805,-1.7441,-1.5896,-1.4604,-1.3847,-1.3191,-1.242,-1.1454,-1.0752,-0.9919,-0.8996,-0.856,-0.8003,-0.8076,-0.9918,-1.1901,-1.2677,-1.3249,-1.3356,-1.3181,-1.3041,-1.2929,-1.3056,-1.2866,-1.2715,-1.27,-1.2618,-1.2729,-1.3072,-1.3337,-1.3678,-1.4204,-1.4477,-1.456,-1.4675,-1.5073,-1.5477,-1.5686,-1.6676,-1.7632,-1.0955,-1.0969,-1.0713,-1.0586,-1.0561,-0.9817,-0.9075,-0.8458,-0.9247,-0.9108,-0.8282,-0.8282,-0.8287,-0.8347,-0.9047,-0.9488,-0.9733,-1.0441,-1.0776,-1.0776,-1.0776,-1.0263,-0.9274,-0.8549,-0.7735,-0.6948,-0.6883,-0.74,-0.8404,-0.9793,-1.0996,-1.195,-1.2642,-1.3394,-1.4236,-1.5325,-1.5865,-1.5788,-1.6029,-1.6457,-1.7042,-1.6689,-1.6731,-1.7146,-1.6731,-1.6509,-1.6607,-1.6212,-1.6688,-1.8191,-1.7299,-1.7486,-1.9003,-1.8553,-1.8282,-1.8422,-1.8336,-1.7903,-1.7024,-1.6867,-1.614,-1.4652,-1.3666,-1.3606,-1.458,-1.4698,-1.5429,-1.7091,-1.6859,-1.6931,-1.779,-1.7866,-1.7673,-1.7203,-1.7028,-1.6536,-1.5545,-1.4729,-1.3675,-1.2358,-1.205,-1.1329,-0.999,-0.9544,-0.9024,-0.8146,-0.7506,-0.7159,-0.6592,-0.8295,-1.0339,-1.1548,-1.1959,-1.2517,-1.3168,-1.3214,-1.2929,-1.2915,-1.2369,-1.203,-1.1981,-1.16,-1.1334,-1.1276,-1.1823,-1.2365,-1.2996,-1.3555,-1.3993,-1.4422,-1.4721,-1.4971,-1.5365,-1.5828,-1.6346,-1.0995,-1.0955,-1.0713,-1.0586,-1.053,-0.969,-0.8549,-0.7372,-0.7697,-0.767,-0.7307,-0.7274,-0.7307,-0.734,-0.7697,-0.842,-0.9332,-0.969,-1.0142,-1.0561,-1.0586,-0.9881,-0.8646,-0.8156,-0.7312,-0.6075,-0.5976,-0.6695,-0.7989,-0.8784,-0.9837,-1.1132,-1.2366,-1.3386,-1.423,-1.593,-1.688,-1.7019,-1.6907,-1.6974,-1.7284,-1.7353,-1.7366,-1.7312,-1.7055,-1.6633,-1.6042,-1.603,-1.626,-1.673,-1.6226,-1.6572,-1.7917,-1.7774,-1.7922,-1.858,-1.8904,-1.8506,-1.7295,-1.6071,-1.4667,-1.3028,-1.212,-1.1804,-1.2158,-1.3036,-1.4083,-1.537,-1.5169,-1.5309,-1.603,-1.6163,-1.5979,-1.5434,-1.5339,-1.5008,-1.4273,-1.3392,-1.2435,-1.1284,-1.0703,-0.9983,-0.8775,-0.8188,-0.7715,-0.7006,-0.6175,-0.5046,-0.4038,-0.5538,-0.7474,-0.9176,-1.0433,-1.1591,-1.2551,-1.2866,-1.2715,-1.2393,-1.2046,-1.1665,-1.1366,-1.0939,-1.0813,-1.0813,-1.1065,-1.1482,-1.2116,-1.2468,-1.2962,-1.3586,-1.4037,-1.4329,-1.4595,-1.5118,-1.5976,-1.0808,-1.0724,-1.0477,-1.0226,-0.9945,-0.9102,-0.7832,-0.6465,-0.6396,-0.6396,-0.6396,-0.6396,-0.6396,-0.6429,-0.6588,-0.7437,-0.8646,-0.9139,-0.9658,-1.0269,-1.0301,-0.9492,-0.8091,-0.7827,-0.6985,-0.5818,-0.5683,-0.6597,-0.8124,-0.8291,-0.9154,-1.0856,-1.2451,-1.364,-1.4409,-1.6511,-1.7764,-1.8084,-1.8064,-1.7896,-1.7682,-1.8249,-1.8269,-1.7704,-1.7572,-1.6978,-1.589,-1.5937,-1.5904,-1.5669,-1.5397,-1.5798,-1.6954,-1.6977,-1.737,-1.8289,-1.8832,-1.8542,-1.712,-1.5138,-1.3326,-1.1919,-1.0815,-1.0242,-1.0305,-1.1214,-1.2327,-1.3247,-1.3456,-1.3642,-1.4175,-1.4567,-1.4529,-1.4064,-1.3982,-1.368,-1.2965,-1.2063,-1.1066,-1.011,-0.9378,-0.8683,-0.7832,-0.7144,-0.6534,-0.5762,-0.4391,-0.3048,-0.2371,-0.315,-0.4692,-0.6477,-0.8801,-1.0821,-1.1621,-1.2427,-1.2535,-1.1922,-1.1657,-1.1241,-1.0762,-1.0466,-1.0346,-1.0269,-1.044,-1.0712,-1.1241,-1.169,-1.2046,-1.2638,-1.317,-1.3637,-1.3909,-1.4664,-1.572,-1.0266,-0.9995,-0.9702,-0.9068,-0.8209,-0.7349,-0.6478,-0.5627,-0.5524,-0.5528,-0.5521,-0.5524,-0.5521,-0.562,-0.6334,-0.678,-0.7139,-0.8581,-0.9338,-0.9402,-0.9434,-0.8909,-0.7929,-0.7209,-0.6752,-0.656,-0.6523,-0.7377,-0.9037,-0.9204,-1.0053,-1.171,-1.3295,-1.4444,-1.5274,-1.6785,-1.7981,-1.8808,-1.992,-1.9918,-1.8864,-1.9529,-1.9557,-1.8782,-1.8376,-1.7608,-1.6323,-1.5384,-1.5238,-1.595,-1.5021,-1.5035,-1.6062,-1.6148,-1.6207,-1.6468,-1.6865,-1.6618,-1.5541,-1.4019,-1.2726,-1.1834,-1.0268,-0.939,-0.9326,-0.8796,-0.9382,-1.0889,-1.1451,-1.1896,-1.2688,-1.3081,-1.3092,-1.2854,-1.3139,-1.2917,-1.1178,-1.0696,-1.0008,-0.8409,-0.8183,-0.7795,-0.6981,-0.6584,-0.592,-0.4342,-0.3321,-0.2285,-0.1592,-0.2237,-0.3077,-0.4346,-0.7106,-1.0068,-1.139,-1.2393,-1.2403,-1.1873,-1.1291,-1.0712,-1.0115,-0.9458,-0.9035,-0.9413,-0.9562,-0.9943,-1.0328,-1.0864,-1.1765,-1.2055,-1.2589,-1.3166,-1.3684,-1.4329,-1.5197,-0.9362,-0.9214,-0.8951,-0.8329,-0.7439,-0.7061,-0.6386,-0.5532,-0.5532,-0.5174,-0.4622,-0.4586,-0.4891,-0.5395,-0.5209,-0.5665,-0.6715,-0.7437,-0.8059,-0.8522,-0.8549,-0.8091,-0.7242,-0.6883,-0.6719,-0.6719,-0.6719,-0.76,-0.9198,-1.0275,-1.1361,-1.2504,-1.3657,-1.4797,-1.5934,-1.7036,-1.8387,-1.9996,-2.0867,-2.1074,-2.0605,-2.0479,-2.0147,-1.947,-1.8556,-1.7508,-1.6306,-1.4917,-1.4195,-1.4192,-1.3323,-1.3038,-1.3517,-1.415,-1.453,-1.4604,-1.498,-1.5041,-1.4596,-1.3171,-1.1734,-1.0433,-0.9224,-0.8323,-0.7762,-0.6953,-0.6722,-0.7137,-0.8594,-0.9785,-1.019,-1.0437,-1.048,-1.028,-1.0392,-1.0113,-0.9192,-0.9035,-0.8527,-0.7437,-0.7209,-0.6887,-0.6071,-0.5441,-0.4373,-0.2841,-0.1996,-0.153,-0.0791,-0.1623,-0.2671,-0.361,-0.6356,-0.8878,-1.0389,-1.155,-1.1816,-1.14,-1.099,-1.0517,-0.951,-0.9061,-0.8804,-0.8804,-0.9113,-0.9468,-0.9814,-1.0472,-1.1291,-1.1724,-1.2393,-1.3079,-1.3684,-1.398,-1.4537,-0.8479,-0.8367,-0.8136,-0.7672,-0.7078,-0.6833,-0.6341,-0.5654,-0.5367,-0.476,-0.4035,-0.352,-0.3758,-0.447,-0.3926,-0.4389,-0.5556,-0.6088,-0.6655,-0.724,-0.7531,-0.7307,-0.6719,-0.6429,-0.6494,-0.6715,-0.6981,-0.8081,-0.9926,-1.1399,-1.2543,-1.3334,-1.4124,-1.5264,-1.6652,-1.7335,-1.8664,-2.0658,-2.139,-2.1783,-2.1871,-2.1499,-2.0912,-2.0111,-1.8869,-1.7544,-1.6129,-1.4611,-1.3457,-1.2797,-1.1978,-1.1639,-1.1898,-1.2608,-1.3104,-1.336,-1.3617,-1.3677,-1.3468,-1.2419,-1.1087,-0.9454,-0.8484,-0.7637,-0.6728,-0.5682,-0.4814,-0.4513,-0.5823,-0.6902,-0.7364,-0.7708,-0.7833,-0.775,-0.8022,-0.8057,-0.7381,-0.7265,-0.6804,-0.5822,-0.5427,-0.5397,-0.4749,-0.4048,-0.3111,-0.174,-0.1373,-0.114,-0.0705,-0.1646,-0.2763,-0.3449,-0.5944,-0.8137,-0.952,-1.0965,-1.1375,-1.1325,-1.1116,-1.0661,-0.9413,-0.9133,-0.9087,-0.9263,-0.914,-0.9375,-1.0099,-1.0719,-1.1291,-1.1956,-1.255,-1.3017,-1.3372,-1.3529,-1.3802,-0.766,-0.7364,-0.7229,-0.7134,-0.7051,-0.6244,-0.5875,-0.5721,-0.4745,-0.4247,-0.3874,-0.2298,-0.1985,-0.2787,-0.272,-0.2787,-0.3165,-0.4611,-0.5329,-0.5487,-0.6269,-0.6691,-0.6621,-0.5881,-0.5881,-0.6617,-0.7372,-0.9003,-1.1447,-1.2451,-1.3364,-1.4115,-1.4844,-1.6016,-1.7235,-1.7457,-1.8626,-2.0458,-2.1256,-2.1941,-2.2472,-2.2548,-2.1866,-2.0703,-1.9497,-1.7875,-1.5993,-1.4523,-1.3378,-1.241,-1.1543,-1.1447,-1.2142,-1.1903,-1.2058,-1.2821,-1.2954,-1.2687,-1.2097,-1.1826,-1.1055,-0.9518,-0.8484,-0.7642,-0.6721,-0.5159,-0.4168,-0.4013,-0.3528,-0.363,-0.4325,-0.5215,-0.5902,-0.6498,-0.7349,-0.6953,-0.5592,-0.5424,-0.4629,-0.3473,-0.3174,-0.3072,-0.2876,-0.2778,-0.2243,-0.1474,-0.1273,-0.124,-0.134,-0.2038,-0.2958,-0.398,-0.5802,-0.803,-0.945,-1.0939,-1.1703,-1.183,-1.1697,-1.1374,-1.0466,-0.9769,-0.9788,-0.9769,-0.9769,-1.0046,-1.0677,-1.1275,-1.1907,-1.2393,-1.2666,-1.3041,-1.3152,-1.3002,-1.3248,-0.6758,-0.6657,-0.6606,-0.658,-0.6543,-0.6245,-0.604,-0.5838,-0.4831,-0.3994,-0.3231,-0.1898,-0.1183,-0.0969,-0.0949,-0.1601,-0.2686,-0.3394,-0.3641,-0.3666,-0.3988,-0.4144,-0.4172,-0.4353,-0.4978,-0.5822,-0.6743,-0.8479,-1.0801,-1.1819,-1.2931,-1.4025,-1.4481,-1.54,-1.6641,-1.6894,-1.7736,-1.9274,-2.0054,-2.0935,-2.181,-2.1663,-2.122,-2.0652,-1.9397,-1.7906,-1.6254,-1.4317,-1.2637,-1.1227,-1.0396,-0.985,-0.9593,-0.9415,-0.9964,-1.1176,-1.0916,-1.0954,-1.1617,-1.1313,-1.0541,-0.9428,-0.8484,-0.7667,-0.671,-0.5121,-0.3825,-0.3278,-0.2397,-0.186,-0.1775,-0.2806,-0.3871,-0.4193,-0.4473,-0.4527,-0.3837,-0.3637,-0.3374,-0.2743,-0.2203,-0.1601,-0.1136,-0.0969,-0.0837,-0.0605,-0.094,-0.1274,-0.1574,-0.2544,-0.3577,-0.4132,-0.588,-0.7993,-0.9331,-1.0999,-1.2112,-1.248,-1.2512,-1.2211,-1.1522,-1.1107,-1.1057,-1.0757,-1.0639,-1.0747,-1.1347,-1.1664,-1.2297,-1.2642,-1.2915,-1.2915,-1.2915,-1.2915,-1.3002,-0.6103,-0.5825,-0.5786,-0.5786,-0.5786,-0.5786,-0.5694,-0.5453,-0.4493,-0.3458,-0.2398,-0.1362,-0.0368,0.0407,0.0525,0.0113,-0.0927,-0.1769,-0.2243,-0.2274,-0.254,-0.2673,-0.2785,-0.3285,-0.4043,-0.4972,-0.6154,-0.8033,-1.0312,-1.1164,-1.2344,-1.3848,-1.4298,-1.5191,-1.6315,-1.6736,-1.7417,-1.8271,-1.8951,-1.9723,-2.0309,-2.0246,-2.0093,-1.9775,-1.8615,-1.7164,-1.5694,-1.3665,-1.185,-1.0312,-0.9346,-0.8484,-0.7702,-0.7864,-0.8501,-0.945,-0.918,-0.934,-1.035,-1.0313,-0.9817,-0.8973,-0.8361,-0.7696,-0.6878,-0.5152,-0.397,-0.3281,-0.2133,-0.1105,-0.0841,-0.1345,-0.1971,-0.2329,-0.2554,-0.2546,-0.2277,-0.2277,-0.1975,-0.1304,-0.0434,0.0133,0.0334,0.0401,0.0235,0.0067,-0.0739,-0.1307,-0.1876,-0.2943,-0.4295,-0.4799,-0.6682,-0.8502,-1.0244,-1.2117,-1.3143,-1.3526,-1.3729,-1.3311,-1.2845,-1.2508,-1.2199,-1.1844,-1.1716,-1.1735,-1.1883,-1.2173,-1.2517,-1.2886,-1.2915,-1.2915,-1.2915,-1.2915,-1.2978,-0.5709,-0.4921,-0.4763,-0.4882,-0.4882,-0.496,-0.4802,-0.4518,-0.3622,-0.2691,-0.1701,-0.0529,0.0454,0.1323,0.1403,0.1949,0.2043,0.0076,-0.1056,-0.1167,-0.1985,-0.2367,-0.2461,-0.2589,-0.314,-0.4082,-0.5818,-0.7864,-0.9926,-1.0497,-1.1574,-1.3236,-1.4277,-1.5173,-1.6353,-1.6948,-1.739,-1.7439,-1.7814,-1.8039,-1.7899,-1.8243,-1.8491,-1.8293,-1.6999,-1.563,-1.4168,-1.2679,-1.1149,-0.9512,-0.8544,-0.7632,-0.6948,-0.7344,-0.7924,-0.8016,-0.8021,-0.8021,-0.8248,-0.8903,-0.8973,-0.8425,-0.8037,-0.7631,-0.6988,-0.5358,-0.4254,-0.4082,-0.2827,-0.1625,-0.1468,-0.1032,-0.0825,-0.1226,-0.2082,-0.2189,-0.1642,-0.1273,-0.0636,0.0804,0.184,0.2177,0.1608,0.1306,0.1006,0.0101,-0.0873,-0.1708,-0.2444,-0.348,-0.4758,-0.628,-0.7772,-0.9207,-1.133,-1.3351,-1.4084,-1.4706,-1.484,-1.4695,-1.41,-1.3684,-1.353,-1.3244,-1.3108,-1.3131,-1.3063,-1.329,-1.3082,-1.3272,-1.3138,-1.2929,-1.2915,-1.2915,-1.2915,-0.6103,-0.5825,-0.5786,-0.5354,-0.4844,-0.5473,-0.504,-0.3632,-0.3202,-0.2529,-0.1512,-0.0466,0.0582,0.1395,0.1588,0.2175,0.2965,0.209,0.1352,0.0693,0.0339,-0.0223,-0.0883,-0.1484,-0.2214,-0.3258,-0.4999,-0.6241,-0.7194,-0.8506,-1.0071,-1.1612,-1.2219,-1.3555,-1.5427,-1.5335,-1.5065,-1.4976,-1.5015,-1.4827,-1.4564,-1.5418,-1.5816,-1.5629,-1.4958,-1.4081,-1.3147,-1.2264,-1.1007,-0.9376,-0.8452,-0.7344,-0.6207,-0.6046,-0.6465,-0.7013,-0.7107,-0.7437,-0.7924,-0.8253,-0.8619,-0.8582,-0.7933,-0.7609,-0.763,-0.5837,-0.4657,-0.4571,-0.3436,-0.2627,-0.258,-0.2385,-0.1907,-0.137,-0.1558,-0.1742,-0.1344,-0.0335,0.0937,0.2075,0.3045,0.3111,0.2477,0.221,0.1508,0.0101,-0.1242,-0.2377,-0.2778,-0.4048,-0.5282,-0.6609,-0.8179,-0.9895,-1.1783,-1.3727,-1.5011,-1.5542,-1.5755,-1.582,-1.528,-1.4971,-1.4812,-1.471,-1.4586,-1.4415,-1.4378,-1.412,-1.3802,-1.3467,-1.3238,-1.3089,-1.2954,-1.2915,-1.2915,-0.6064,-0.5705,-0.5276,-0.4724,-0.41,-0.4494,-0.3791,-0.262,-0.254,-0.1957,-0.098,-0.0314,0.0589,0.1489,0.1957,0.2735,0.3632,0.3709,0.3164,0.2188,0.1699,0.103,0.0,-0.0883,-0.1307,-0.1883,-0.3539,-0.4616,-0.5045,-0.6638,-0.8274,-0.9512,-1.0519,-1.1768,-1.3438,-1.2998,-1.2508,-1.2088,-1.1559,-1.1118,-1.0967,-1.1759,-1.2575,-1.2942,-1.2877,-1.2773,-1.2609,-1.2029,-1.1018,-0.9625,-0.8403,-0.697,-0.5568,-0.5428,-0.5521,-0.5672,-0.5997,-0.633,-0.6613,-0.74,-0.824,-0.8652,-0.832,-0.8329,-0.8639,-0.7163,-0.6245,-0.5774,-0.4902,-0.4092,-0.3734,-0.3213,-0.2825,-0.2597,-0.2186,-0.19,-0.1584,-0.0268,0.0836,0.1637,0.2641,0.2878,0.2477,0.2143,0.1609,0.0101,-0.1543,-0.2678,-0.3111,-0.4574,-0.5866,-0.733,-0.9128,-1.0708,-1.2096,-1.3889,-1.5794,-1.6339,-1.6628,-1.663,-1.6358,-1.6237,-1.6133,-1.6019,-1.5914,-1.5459,-1.5318,-1.4618,-1.4154,-1.3789,-1.3396,-1.3089,-1.2915,-1.2915,-1.2939,-0.5709,-0.4688,-0.3669,-0.3318,-0.3085,-0.2387,-0.188,-0.1528,-0.1645,-0.1097,-0.0235,0.0,0.0589,0.1645,0.2347,0.324,0.4414,0.4336,0.3709,0.2774,0.1988,0.1084,0.0266,-0.0446,-0.0368,-0.0037,-0.1499,-0.2809,-0.3509,-0.4706,-0.6168,-0.7118,-0.8457,-0.9918,-0.9577,-0.9924,-0.8855,-0.7883,-0.7315,-0.6683,-0.6548,-0.7821,-0.9156,-1.0597,-1.1088,-1.1703,-1.2396,-1.1943,-1.1046,-0.9904,-0.8191,-0.6806,-0.5689,-0.5395,-0.5057,-0.4378,-0.4888,-0.4818,-0.4839,-0.6121,-0.778,-0.8402,-0.8861,-0.9873,-0.985,-0.9155,-0.8193,-0.7486,-0.6643,-0.5793,-0.4817,-0.3975,-0.3757,-0.4313,-0.3743,-0.3172,-0.2855,-0.1432,-0.0499,0.0033,0.1268,0.2139,0.1136,0.1037,0.057,-0.0369,-0.1877,-0.2711,-0.3376,-0.4836,-0.6724,-0.827,-0.9648,-1.1172,-1.2417,-1.4101,-1.5827,-1.6191,-1.6562,-1.6658,-1.6882,-1.6894,-1.6837,-1.6828,-1.6852,-1.6473,-1.5913,-1.5129,-1.4514,-1.412,-1.3647,-1.3138,-1.2915,-1.2915,-1.2929,-0.6141,-0.5747,-0.4727,-0.3826,-0.3124,-0.2812,-0.1761,-0.0667,-0.1293,-0.0941,0.0,0.0,0.0589,0.1567,0.1841,0.2542,0.332,0.3513,0.2969,0.2074,0.1762,0.1485,0.1204,0.0964,0.1302,0.191,0.0874,-0.0076,-0.103,-0.1525,-0.2518,-0.4076,-0.3321,-0.335,-0.3651,-0.258,-0.1668,-0.1345,-0.1181,-0.1385,-0.2304,-0.4505,-0.6555,-0.8439,-1.0076,-1.1324,-1.2274,-1.2215,-1.097,-0.9026,-0.8399,-0.7223,-0.5652,-0.5399,-0.4987,-0.4248,-0.4217,-0.435,-0.4245,-0.4809,-0.6136,-0.8068,-0.8486,-0.8649,-1.0258,-0.9701,-0.8844,-0.8008,-0.7468,-0.6969,-0.6069,-0.5427,-0.5537,-0.599,-0.5451,-0.5036,-0.5071,-0.4017,-0.2664,-0.1917,-0.0923,-0.0562,-0.0499,-0.0667,-0.0935,-0.1808,-0.2811,-0.368,-0.4107,-0.5456,-0.7442,-0.821,-0.9501,-1.1193,-1.2791,-1.4418,-1.5564,-1.59,-1.6144,-1.6218,-1.6524,-1.6823,-1.6771,-1.674,-1.7023,-1.6833,-1.616,-1.5433,-1.4949,-1.4306,-1.361,-1.3002,-1.2929,-1.2915,-1.2915,-0.63,-0.6141,-0.4647,-0.3669,-0.3007,-0.215,-0.1097,-0.0275,-0.0628,-0.0628,0.0,0.0,0.0,0.0941,0.1372,0.188,0.2423,0.2462,0.2152,0.1646,0.1137,0.1137,0.141,0.1606,0.2113,0.2968,0.2493,0.1906,0.136,0.1317,0.0768,0.0494,0.1283,0.192,0.2293,0.3598,0.4477,0.4408,0.4079,0.3149,0.1181,-0.2186,-0.519,-0.7508,-0.9702,-1.1273,-1.2144,-1.2305,-1.1142,-0.9257,-0.8551,-0.7616,-0.5738,-0.5423,-0.4957,-0.4115,-0.435,-0.4616,-0.4752,-0.5282,-0.6844,-0.8685,-0.9055,-0.9892,-1.0858,-1.0761,-1.0164,-0.9291,-0.8727,-0.7974,-0.7145,-0.6716,-0.7041,-0.7677,-0.7472,-0.7187,-0.7233,-0.5896,-0.4931,-0.4243,-0.3551,-0.2796,-0.2523,-0.2458,-0.2498,-0.2839,-0.3709,-0.4273,-0.4767,-0.651,-0.7984,-0.8843,-0.9736,-1.1308,-1.2188,-1.3483,-1.4114,-1.4544,-1.4649,-1.4935,-1.5681,-1.6168,-1.6489,-1.6522,-1.6982,-1.6995,-1.612,-1.5365,-1.4766,-1.4084,-1.3406,-1.2992,-1.2905,-1.2915,-1.2915,-0.63,-0.6145,-0.4139,-0.3242,-0.3007,-0.1097,-0.0392,-0.0196,-0.0118,0.0,0.0,0.0,0.0,0.0,0.0902,0.1411,0.1411,0.1411,0.1254,0.0784,0.0157,-0.0078,0.0587,0.1371,0.2112,0.3007,0.3163,0.3198,0.3228,0.3363,0.4134,0.4661,0.5104,0.6383,0.7762,0.9014,0.9411,0.9082,0.7934,0.5821,0.2732,-0.107,-0.4655,-0.7588,-1.0007,-1.1391,-1.2114,-1.2218,-1.1371,-0.94,-0.899,-0.7706,-0.598,-0.5481,-0.494,-0.4483,-0.4875,-0.5467,-0.5818,-0.7236,-0.9017,-1.0319,-1.1368,-1.2199,-1.2403,-1.2271,-1.162,-1.0809,-1.004,-0.8987,-0.8023,-0.757,-0.7854,-0.8534,-0.8975,-0.8827,-0.8273,-0.7474,-0.6964,-0.6835,-0.6132,-0.5386,-0.474,-0.4353,-0.4224,-0.4689,-0.5354,-0.5844,-0.6433,-0.7645,-0.8843,-0.9736,-1.0627,-1.1516,-1.1981,-1.2392,-1.258,-1.2809,-1.2697,-1.3047,-1.419,-1.488,-1.5664,-1.6111,-1.6215,-1.6059,-1.5618,-1.4959,-1.4411,-1.3967,-1.3348,-1.2997,-1.2764,-1.2881,-1.2915,-0.63,-0.618,-0.4882,-0.4375,-0.4023,-0.2152,-0.1254,-0.1215,-0.0353,0.0,0.0,0.0,0.0,0.0,0.0,0.0353,0.0314,0.0235,-0.0039,-0.1019,-0.1955,-0.2305,-0.1445,0.0195,0.1995,0.2929,0.3943,0.4285,0.4465,0.5694,0.7201,0.802,0.9485,1.1439,1.2976,1.3665,1.4452,1.3484,1.1154,0.7607,0.3565,-0.084,-0.4808,-0.7858,-1.0499,-1.1885,-1.2231,-1.2305,-1.1668,-1.0543,-0.9468,-0.812,-0.6255,-0.5672,-0.5216,-0.4858,-0.5625,-0.6494,-0.7087,-0.8667,-1.0398,-1.2344,-1.2501,-1.2714,-1.4331,-1.3127,-1.2382,-1.1773,-1.102,-0.9924,-0.8686,-0.8389,-0.8354,-0.8481,-0.8468,-0.8587,-0.8952,-0.9352,-0.9143,-0.8784,-0.8463,-0.8103,-0.7223,-0.6959,-0.6828,-0.687,-0.7154,-0.7668,-0.8377,-0.9125,-0.9977,-1.0951,-1.1356,-1.2112,-1.218,-1.2131,-1.1673,-1.1507,-1.1227,-1.1122,-1.2273,-1.3371,-1.4083,-1.4698,-1.5223,-1.5028,-1.4892,-1.4539,-1.398,-1.3637,-1.3266,-1.2832,-1.2559,-1.2725,-1.2608,-0.63,-0.6183,-0.516,-0.4688,-0.4453,-0.301,-0.2308,-0.2074,-0.1215,-0.0745,-0.0628,-0.0275,0.0,0.0,0.0,-0.0196,-0.0824,-0.1293,-0.1721,-0.2308,-0.2852,-0.3046,-0.2966,-0.1483,0.0117,0.1558,0.2688,0.3579,0.4936,0.6625,0.8316,1.0037,1.2221,1.3961,1.5504,1.6113,1.5436,1.3638,1.0833,0.6958,0.2407,-0.209,-0.6359,-0.922,-1.1415,-1.2305,-1.2305,-1.2305,-1.1731,-1.094,-1.0168,-0.8858,-0.6964,-0.6424,-0.6082,-0.5971,-0.7265,-0.8788,-0.9847,-1.1208,-1.2836,-1.4436,-1.4247,-1.4471,-1.4912,-1.4127,-1.3759,-1.3295,-1.2294,-1.0858,-0.9419,-0.8577,-0.843,-0.857,-0.8221,-0.8388,-0.9172,-0.9722,-1.0079,-0.9881,-0.9817,-0.9326,-0.8973,-0.8705,-0.8586,-0.8206,-0.8847,-0.9388,-1.0414,-1.1126,-1.1643,-1.2273,-1.2365,-1.2562,-1.2536,-1.2057,-1.1035,-1.0623,-1.0083,-0.9922,-1.0261,-1.1364,-1.2387,-1.3184,-1.4037,-1.437,-1.4226,-1.3873,-1.3613,-1.3276,-1.29,-1.2491,-1.2212,-1.2187,-1.1888,-0.6606,-0.6679,-0.5774,-0.5416,-0.5223,-0.4322,-0.3932,-0.3738,-0.2538,-0.2188,-0.1878,-0.094,0.0,0.0,0.0,-0.1058,-0.184,-0.2813,-0.3279,-0.3357,-0.3787,-0.3943,-0.3787,-0.3433,-0.2574,-0.074,0.0544,0.2021,0.4035,0.611,0.7677,1.027,1.2644,1.3897,1.5165,1.5393,1.4272,1.2208,0.8536,0.458,0.0075,-0.4133,-0.8112,-1.1205,-1.207,-1.2305,-1.2231,-1.207,-1.1694,-1.105,-1.0752,-0.9665,-0.853,-0.769,-0.7677,-0.776,-0.9513,-1.1263,-1.2907,-1.438,-1.5608,-1.6444,-1.6462,-1.6277,-1.5843,-1.534,-1.5084,-1.4573,-1.3588,-1.1866,-1.0484,-0.9303,-0.8931,-0.8879,-0.8415,-0.835,-0.9011,-0.9236,-0.946,-1.0364,-1.0371,-1.0015,-0.9843,-0.9671,-0.9635,-0.9737,-1.0412,-1.1248,-1.2264,-1.2962,-1.3378,-1.3805,-1.3975,-1.3112,-1.2876,-1.2662,-1.1548,-1.0588,-0.981,-0.9603,-0.9439,-1.0407,-1.1672,-1.219,-1.2842,-1.3266,-1.3637,-1.3529,-1.3252,-1.292,-1.251,-1.2055,-1.1798,-1.1616,-1.119,-0.805,-0.8808,-0.8604,-0.8528,-0.8367,-0.7381,-0.6946,-0.6607,-0.4953,-0.411,-0.3994,-0.3041,-0.2577,-0.2539,-0.254,-0.2735,-0.3085,-0.3904,-0.445,-0.4608,-0.5079,-0.5473,-0.5392,-0.5315,-0.4802,-0.3703,-0.2137,-0.0232,0.1817,0.3386,0.5661,0.8608,0.9828,1.0985,1.1857,1.1972,1.0761,0.8861,0.5417,0.1659,-0.1851,-0.567,-0.8948,-1.1922,-1.2114,-1.2077,-1.1966,-1.1502,-1.1347,-1.1805,-1.0421,-1.0013,-0.9988,-0.9437,-0.9323,-0.9945,-1.1505,-1.3406,-1.5195,-1.6957,-1.8041,-1.8446,-1.8134,-1.7746,-1.7189,-1.6228,-1.5843,-1.5504,-1.4426,-1.2862,-1.2398,-1.0482,-0.9466,-0.9053,-0.8221,-0.7735,-0.878,-0.8947,-0.9102,-1.0326,-1.053,-1.0656,-1.0573,-1.0717,-1.0965,-1.1248,-1.1881,-1.2926,-1.4134,-1.4594,-1.4827,-1.5293,-1.5716,-1.4411,-1.3222,-1.2986,-1.2342,-1.1291,-1.0601,-1.0397,-1.0338,-1.0491,-1.1116,-1.1772,-1.2135,-1.2468,-1.2759,-1.3011,-1.2711,-1.2246,-1.1907,-1.1616,-1.1107,-1.0686,-1.0413,-0.9594,-1.0088,-1.0539,-1.0756,-1.067,-1.0196,-0.9994,-0.9654,-0.7844,-0.6938,-0.6491,-0.544,-0.4383,-0.4001,-0.3887,-0.3893,-0.4215,-0.504,-0.5473,-0.5709,-0.606,-0.63,-0.63,-0.63,-0.6022,-0.5544,-0.4822,-0.2981,-0.027,0.0962,0.2789,0.4677,0.6085,0.6998,0.715,0.6793,0.5844,0.4098,0.1449,-0.1566,-0.4617,-0.8209,-1.0642,-1.1118,-1.1465,-1.1242,-1.0801,-1.1013,-1.1013,-1.1316,-1.1099,-1.1422,-1.1777,-1.187,-1.1425,-1.1768,-1.3431,-1.5332,-1.6968,-1.8587,-1.9641,-1.9836,-1.9476,-1.9092,-1.8533,-1.7565,-1.6546,-1.595,-1.5204,-1.3671,-1.2555,-1.1098,-1.0013,-0.9245,-0.8221,-0.8215,-0.8807,-0.8839,-0.9518,-1.0358,-1.0491,-1.08,-1.132,-1.1617,-1.2197,-1.2779,-1.3326,-1.4405,-1.5678,-1.6022,-1.6089,-1.6472,-1.6747,-1.5807,-1.4413,-1.3792,-1.3181,-1.2143,-1.1408,-1.1208,-1.0981,-1.1057,-1.1192,-1.1565,-1.1788,-1.2009,-1.2221,-1.2567,-1.2076,-1.1625,-1.1491,-1.1182,-1.033,-0.9729,-0.9387,-1.1495,-1.1672,-1.2406,-1.2718,-1.2718,-1.2718,-1.2725,-1.2349,-1.0777,-1.0029,-0.9765,-0.8244,-0.6908,-0.6051,-0.5685,-0.5588,-0.5461,-0.6289,-0.6409,-0.618,-0.6257,-0.63,-0.63,-0.63,-0.6219,-0.6254,-0.6896,-0.5938,-0.3249,-0.223,-0.1034,0.0342,0.2027,0.2703,0.227,0.2115,0.0647,-0.0384,-0.2398,-0.4881,-0.7677,-1.0125,-1.136,-1.0602,-1.049,-1.0153,-0.9669,-1.0045,-1.0522,-1.105,-1.1644,-1.2615,-1.3564,-1.4063,-1.3988,-1.3835,-1.5493,-1.6961,-1.8532,-1.9521,-2.0491,-2.0803,-2.0655,-2.0107,-1.9257,-1.8188,-1.7293,-1.6326,-1.5281,-1.4379,-1.3164,-1.1755,-1.0919,-1.0262,-0.9583,-0.9035,-0.9633,-0.9831,-0.9831,-1.0351,-1.0523,-1.0982,-1.1562,-1.2174,-1.2687,-1.3498,-1.4055,-1.4845,-1.6053,-1.689,-1.7153,-1.7499,-1.7545,-1.6956,-1.5945,-1.4903,-1.4113,-1.3047,-1.2419,-1.2076,-1.1747,-1.1474,-1.1654,-1.186,-1.1697,-1.1931,-1.2063,-1.1991,-1.1594,-1.13,-1.1208,-1.0543,-0.9351,-0.8541,-0.8125,-1.4166,-1.4676,-1.4783,-1.4854,-1.4838,-1.4838,-1.4811,-1.4652,-1.351,-1.31,-1.2898,-1.1827,-1.0728,-0.9755,-0.8831,-0.8176,-0.7736,-0.7433,-0.7211,-0.6602,-0.6451,-0.6412,-0.63,-0.63,-0.63,-0.6525,-0.7403,-0.6996,-0.5848,-0.6013,-0.5524,-0.3924,-0.3271,-0.2738,-0.1335,-0.1871,-0.2002,-0.1977,-0.3542,-0.5607,-0.7532,-0.9016,-0.9475,-0.9357,-0.9329,-0.9135,-0.8908,-0.9286,-0.9927,-1.0852,-1.1729,-1.2691,-1.3759,-1.5403,-1.6522,-1.6849,-1.721,-1.7673,-1.9673,-2.0515,-2.1005,-2.1302,-2.1005,-2.0204,-1.9182,-1.8147,-1.7337,-1.7274,-1.5873,-1.4821,-1.41,-1.3314,-1.2767,-1.2151,-1.1418,-1.1138,-1.1315,-1.0954,-1.093,-1.0874,-1.1226,-1.1507,-1.1927,-1.2543,-1.3183,-1.4025,-1.4835,-1.5565,-1.6319,-1.7102,-1.7877,-1.816,-1.7903,-1.7334,-1.6859,-1.5899,-1.4816,-1.3802,-1.3283,-1.2827,-1.2365,-1.2021,-1.227,-1.2376,-1.2058,-1.1469,-1.1234,-1.1099,-1.1006,-1.0551,-0.989,-0.9051,-0.8111,-0.7439,-0.6805,-1.703,-1.6385,-1.691,-1.6994,-1.6811,-1.6802,-1.6793,-1.6567,-1.5721,-1.5309,-1.5132,-1.4292,-1.3309,-1.2221,-1.0842,-0.9895,-0.9406,-0.8941,-0.8127,-0.7361,-0.7134,-0.6872,-0.6374,-0.63,-0.63,-0.6791,-0.774,-0.8575,-0.8206,-0.8235,-0.798,-0.7462,-0.7151,-0.6498,-0.4849,-0.5443,-0.5118,-0.5018,-0.5684,-0.6535,-0.7103,-0.7706,-0.7846,-0.6805,-0.7283,-0.7291,-0.7371,-0.8642,-0.9691,-1.0834,-1.2084,-1.3808,-1.5032,-1.6201,-1.7101,-1.8516,-1.8368,-1.8969,-2.0322,-2.1037,-2.1553,-2.1553,-2.1069,-2.002,-1.8777,-1.7675,-1.7031,-1.697,-1.5894,-1.5093,-1.4666,-1.4012,-1.3498,-1.3083,-1.3042,-1.2724,-1.2541,-1.2281,-1.2074,-1.1989,-1.1934,-1.2205,-1.2389,-1.2726,-1.3515,-1.4569,-1.5138,-1.5633,-1.6373,-1.7109,-1.7878,-1.8575,-1.8122,-1.7557,-1.7145,-1.6478,-1.5302,-1.4365,-1.3768,-1.3294,-1.2817,-1.2642,-1.2554,-1.2166,-1.1551,-1.0989,-1.0472,-1.0177,-1.0051,-0.9245,-0.8344,-0.7517,-0.6688,-0.5932,-0.5299,-1.921,-1.7952,-1.8392,-1.8364,-1.8018,-1.8008,-1.7974,-1.7896,-1.7217,-1.6978,-1.6842,-1.6078,-1.5158,-1.4201,-1.2731,-1.1862,-1.1371,-1.0461,-0.9465,-0.8789,-0.819,-0.7783,-0.748,-0.7173,-0.7173,-0.7057,-0.8874,-0.9513,-0.9777,-1.0147,-1.0441,-1.0088,-0.9868,-0.9125,-0.838,-0.78,-0.7191,-0.5544,-0.6118,-0.615,-0.571,-0.6043,-0.5694,-0.5313,-0.528,-0.5716,-0.5954,-0.8121,-1.0077,-1.1298,-1.3691,-1.5615,-1.6704,-1.7595,-1.8583,-1.9727,-1.9966,-2.0525,-2.1455,-2.2089,-2.2255,-2.2101,-2.1295,-2.0222,-1.8459,-1.7323,-1.6599,-1.6592,-1.5867,-1.5214,-1.4914,-1.4825,-1.4865,-1.467,-1.4446,-1.4019,-1.364,-1.3451,-1.3014,-1.2543,-1.2573,-1.2879,-1.3031,-1.3009,-1.3765,-1.4991,-1.5555,-1.5719,-1.626,-1.6849,-1.7263,-1.7859,-1.7777,-1.7171,-1.6699,-1.6235,-1.5347,-1.4778,-1.4167,-1.36,-1.2997,-1.2421,-1.2076,-1.1585,-1.1082,-1.0306,-0.9619,-0.9361,-0.8984,-0.7799,-0.6716,-0.6067,-0.5283,-0.4532,-0.4186,-2.0244,-1.9653,-1.8913,-1.8403,-1.8047,-1.8008,-1.8008,-1.8057,-1.7925,-1.8021,-1.8078,-1.7447,-1.6687,-1.6096,-1.5122,-1.4129,-1.3374,-1.243,-1.1495,-1.0542,-0.968,-0.9405,-0.9188,-0.9112,-0.9092,-0.9243,-1.0361,-1.0809,-1.1149,-1.2398,-1.2455,-1.2187,-1.1909,-1.0795,-0.9744,-0.9064,-0.7689,-0.6041,-0.5651,-0.4794,-0.3975,-0.3818,-0.3859,-0.4523,-0.4838,-0.5613,-0.7464,-0.9476,-1.1064,-1.2138,-1.517,-1.7133,-1.7891,-1.9005,-2.0149,-2.0974,-2.1436,-2.2108,-2.3062,-2.314,-2.3306,-2.3335,-2.2492,-2.0631,-1.8645,-1.7374,-1.6666,-1.6283,-1.5822,-1.5837,-1.5997,-1.634,-1.6242,-1.6203,-1.585,-1.5448,-1.5071,-1.4749,-1.4248,-1.3356,-1.3243,-1.3636,-1.3485,-1.3433,-1.3373,-1.4481,-1.4746,-1.4914,-1.5555,-1.6102,-1.6272,-1.6639,-1.6917,-1.6561,-1.5922,-1.539,-1.5017,-1.4606,-1.4084,-1.3539,-1.2992,-1.2421,-1.1594,-1.1217,-1.0691,-0.9747,-0.8864,-0.8521,-0.7791,-0.6228,-0.5151,-0.4689,-0.4118,-0.3442,-0.3395,-1.9318,-1.888,-1.8517,-1.8578,-1.875,-1.8232,-1.8154,-1.832,-1.8135,-1.8086,-1.8281,-1.7852,-1.7593,-1.7254,-1.6541,-1.5887,-1.5352,-1.4482,-1.3695,-1.2965,-1.2274,-1.1787,-1.1533,-1.1298,-1.1034,-1.1292,-1.2038,-1.2533,-1.2751,-1.3988,-1.4299,-1.4019,-1.352,-1.2405,-1.1286,-0.9922,-0.8257,-0.6992,-0.5796,-0.4864,-0.324,-0.2425,-0.2387,-0.2698,-0.4317,-0.5247,-0.7011,-1.0012,-1.1752,-1.3626,-1.6312,-1.7784,-1.8829,-2.0074,-2.1057,-2.1896,-2.2286,-2.3122,-2.3989,-2.3933,-2.3774,-2.3221,-2.2407,-2.1032,-1.8942,-1.7626,-1.6799,-1.6337,-1.6096,-1.6218,-1.6397,-1.6894,-1.7191,-1.7385,-1.7208,-1.675,-1.627,-1.5832,-1.5235,-1.4255,-1.4204,-1.4481,-1.4154,-1.3816,-1.3756,-1.3846,-1.3965,-1.4195,-1.4875,-1.5303,-1.5472,-1.5664,-1.5946,-1.5988,-1.5371,-1.5062,-1.4789,-1.4399,-1.3944,-1.342,-1.2813,-1.1767,-1.104,-1.0734,-1.0314,-0.937,-0.854,-0.7797,-0.6746,-0.5431,-0.4368,-0.3578,-0.2977,-0.2565,-0.3065,-1.9266,-1.8968,-1.883,-1.8986,-1.9192,-1.8643,-1.8641,-1.8914,-1.8928,-1.8738,-1.8604,-1.8355,-1.8266,-1.8154,-1.7779,-1.7682,-1.7542,-1.6927,-1.6395,-1.5937,-1.5508,-1.4931,-1.4569,-1.4359,-1.4342,-1.4002,-1.4001,-1.4431,-1.4474,-1.5263,-1.5473,-1.5332,-1.4871,-1.3937,-1.2357,-1.0748,-0.9233,-0.8188,-0.7088,-0.5624,-0.3775,-0.3041,-0.2696,-0.3005,-0.4433,-0.5966,-0.7947,-1.0676,-1.2926,-1.473,-1.6871,-1.8818,-1.9846,-2.0675,-2.1573,-2.2194,-2.2774,-2.342,-2.4063,-2.4481,-2.4339,-2.4019,-2.266,-2.1164,-1.9486,-1.8014,-1.6987,-1.6765,-1.6639,-1.6652,-1.6894,-1.7688,-1.8167,-1.8355,-1.7922,-1.7473,-1.6845,-1.6337,-1.5815,-1.5167,-1.5021,-1.4451,-1.3575,-1.3031,-1.3,-1.3092,-1.3455,-1.3756,-1.4353,-1.4663,-1.4639,-1.4847,-1.5107,-1.5028,-1.4862,-1.4368,-1.3924,-1.3958,-1.3532,-1.317,-1.2467,-1.1525,-1.1091,-1.1166,-1.0507,-0.9183,-0.8521,-0.8165,-0.6619,-0.4805,-0.3987,-0.3299,-0.3415,-0.3252,-0.3691,-2.0469,-2.0488,-2.0022,-1.966,-1.9594,-1.9304,-1.954,-2.0087,-2.0425,-2.0362,-1.9865,-1.9153,-1.8922,-1.9178,-1.906,-1.9407,-1.9662,-1.9249,-1.9085,-1.9127,-1.8734,-1.8516,-1.8465,-1.8235,-1.7859,-1.7451,-1.7128,-1.6763,-1.6457,-1.6677,-1.6757,-1.6567,-1.6245,-1.5404,-1.3554,-1.1702,-1.0233,-0.9192,-0.8369,-0.6851,-0.5369,-0.4755,-0.4573,-0.4632,-0.5704,-0.7271,-0.8911,-1.1568,-1.3606,-1.4866,-1.7798,-1.9498,-1.9987,-2.1667,-2.2537,-2.2781,-2.3022,-2.3547,-2.4221,-2.4922,-2.4909,-2.4591,-2.3101,-2.1523,-2.0175,-1.8652,-1.7177,-1.6956,-1.6797,-1.7219,-1.7895,-1.8581,-1.8874,-1.8847,-1.8382,-1.7759,-1.7107,-1.6415,-1.5777,-1.5167,-1.456,-1.3876,-1.2818,-1.2089,-1.2027,-1.2274,-1.2826,-1.3304,-1.3726,-1.3764,-1.3687,-1.4014,-1.4248,-1.4215,-1.4007,-1.3411,-1.3082,-1.3178,-1.3222,-1.2939,-1.2623,-1.1981,-1.1699,-1.1665,-1.0956,-0.9869,-0.9233,-0.8731,-0.7344,-0.6026,-0.4242,-0.3536,-0.3707,-0.4118,-0.4709,-1.9933,-2.0459,-2.0274,-2.0933,-2.1822,-2.0782,-2.0889,-2.1761,-2.1766,-2.1313,-2.0789,-2.0757,-2.0387,-2.0137,-2.039,-2.0697,-2.0613,-2.1115,-2.1152,-2.1472,-2.1417,-2.1651,-2.1659,-2.1522,-2.1332,-2.0935,-2.029,-1.9447,-1.9099,-1.8565,-1.7939,-1.7696,-1.7285,-1.6454,-1.5051,-1.3771,-1.3194,-1.2118,-1.1071,-0.9686,-0.7756,-0.7002,-0.6457,-0.6011,-0.7377,-0.8566,-0.9399,-1.2078,-1.3592,-1.4391,-1.7203,-1.8622,-1.9182,-2.0735,-2.2144,-2.2543,-2.2937,-2.3933,-2.4026,-2.4131,-2.4111,-2.3863,-2.3173,-2.1628,-2.0421,-1.8601,-1.7583,-1.7004,-1.6765,-1.7135,-1.7688,-1.8394,-1.8688,-1.8635,-1.8194,-1.7468,-1.6782,-1.6083,-1.541,-1.4776,-1.4174,-1.3416,-1.2473,-1.1996,-1.188,-1.1538,-1.1996,-1.2205,-1.2565,-1.2556,-1.2511,-1.3057,-1.3361,-1.3347,-1.3159,-1.2793,-1.256,-1.2667,-1.289,-1.2944,-1.2584,-1.2163,-1.203,-1.1848,-1.1266,-1.0628,-1.0153,-0.96,-0.8795,-0.75,-0.6095,-0.5242,-0.5551,-0.5842,-0.6069,-2.0401,-2.0988,-2.1321,-2.2424,-2.3643,-2.2366,-2.2455,-2.3371,-2.2937,-2.2377,-2.2144,-2.2205,-2.1924,-2.1453,-2.153,-2.2059,-2.1799,-2.2317,-2.288,-2.3306,-2.3839,-2.4236,-2.4435,-2.4425,-2.4403,-2.4065,-2.3273,-2.2387,-2.1507,-2.0264,-1.9058,-1.8148,-1.8008,-1.7295,-1.6324,-1.5738,-1.5255,-1.434,-1.3473,-1.2335,-1.0949,-1.0018,-0.914,-0.8708,-0.9145,-1.0028,-1.0243,-1.1403,-1.3026,-1.3634,-1.4969,-1.6732,-1.7581,-1.8835,-2.0467,-2.1217,-2.2084,-2.279,-2.2644,-2.2451,-2.2439,-2.2687,-2.2166,-2.1381,-2.022,-1.8622,-1.789,-1.7341,-1.6793,-1.6978,-1.7495,-1.8205,-1.8228,-1.8174,-1.7715,-1.6978,-1.6567,-1.5864,-1.5381,-1.4717,-1.4055,-1.3205,-1.2504,-1.2112,-1.188,-1.1483,-1.1146,-1.1406,-1.168,-1.1662,-1.186,-1.2443,-1.2761,-1.2761,-1.27,-1.2427,-1.2261,-1.2206,-1.2314,-1.2495,-1.2427,-1.1981,-1.1996,-1.2104,-1.1882,-1.1584,-1.1116,-1.0502,-0.9841,-0.9317,-0.8591,-0.7962,-0.7693,-0.7786,-0.8002,-2.1931,-2.2119,-2.3051,-2.3942,-2.4625,-2.383,-2.4113,-2.4933,-2.4072,-2.3837,-2.4057,-2.2777,-2.2594,-2.312,-2.2906,-2.3087,-2.3611,-2.3978,-2.4383,-2.4989,-2.5438,-2.6174,-2.6691,-2.6925,-2.6685,-2.6476,-2.579,-2.4599,-2.3712,-2.1288,-1.9477,-1.8418,-1.8076,-1.7886,-1.756,-1.7257,-1.6817,-1.64,-1.6156,-1.5146,-1.4124,-1.3793,-1.2554,-1.1833,-1.1659,-1.1101,-1.0902,-1.1205,-1.1452,-1.2062,-1.3222,-1.4265,-1.5341,-1.6553,-1.7849,-1.912,-2.0137,-2.0662,-2.0844,-2.0749,-2.0568,-2.0773,-2.0486,-2.0176,-1.9771,-1.8701,-1.7933,-1.7606,-1.725,-1.7234,-1.7424,-1.7551,-1.764,-1.7357,-1.7017,-1.6595,-1.635,-1.5892,-1.5439,-1.4874,-1.4264,-1.3567,-1.2984,-1.2535,-1.2249,-1.202,-1.1765,-1.1812,-1.1905,-1.1337,-1.1639,-1.2293,-1.2466,-1.2319,-1.2228,-1.2329,-1.2055,-1.2015,-1.1658,-1.1683,-1.1674,-1.1798,-1.1823,-1.203,-1.2608,-1.251,-1.194,-1.1475,-1.1065,-1.0604,-1.0354,-1.0043,-0.9585,-1.0084,-1.0337,-2.0897,-2.1666,-2.252,-2.3327,-2.4004,-2.4691,-2.5411,-2.5961,-2.5688,-2.5078,-2.3712,-2.4072,-2.3607,-2.2993,-2.351,-2.3777,-2.4155,-2.4589,-2.4951,-2.5533,-2.6073,-2.6799,-2.7395,-2.785,-2.8048,-2.7987,-2.7425,-2.6495,-2.486,-2.232,-2.0105,-1.9023,-1.8496,-1.8529,-1.862,-1.8657,-1.8636,-1.8559,-1.8586,-1.8057,-1.7528,-1.7229,-1.5808,-1.466,-1.3989,-1.2891,-1.1421,-1.0902,-1.0754,-1.037,-1.1144,-1.1883,-1.2058,-1.3653,-1.536,-1.7889,-1.8958,-1.9652,-1.9672,-1.9683,-1.9628,-1.9392,-1.9282,-1.9711,-1.9472,-1.8929,-1.7977,-1.7873,-1.7591,-1.7438,-1.722,-1.7216,-1.7134,-1.6821,-1.6491,-1.6226,-1.5979,-1.5729,-1.5294,-1.4903,-1.4293,-1.4076,-1.3489,-1.3118,-1.2856,-1.2639,-1.2544,-1.2573,-1.2175,-1.1622,-1.1598,-1.228,-1.2246,-1.2093,-1.2474,-1.2657,-1.2187,-1.1798,-1.1441,-1.1116,-1.1141,-1.1291,-1.1516,-1.1907,-1.2403,-1.2666,-1.2666,-1.2255,-1.185,-1.2181,-1.2027,-1.1771,-1.1623,-1.1846,-1.1879,-2.0262,-2.1227,-2.2143,-2.288,-2.3585,-2.4417,-2.5019,-2.5339,-2.5711,-2.5027,-2.3916,-2.4149,-2.39,-2.3187,-2.3236,-2.3372,-2.3732,-2.3898,-2.4328,-2.5058,-2.5933,-2.6797,-2.75,-2.8134,-2.8567,-2.8701,-2.8592,-2.7856,-2.5991,-2.3331,-2.0934,-1.9299,-1.8911,-1.9144,-1.9486,-2.0149,-2.0842,-2.0694,-2.0566,-2.0448,-2.0275,-1.9986,-1.8456,-1.7417,-1.6717,-1.4614,-1.2204,-1.1592,-1.0194,-0.9021,-0.9412,-0.9777,-1.0582,-1.2589,-1.4773,-1.7214,-1.8558,-1.917,-1.942,-1.9781,-1.9464,-1.9218,-1.9165,-1.972,-1.9796,-1.9474,-1.8874,-1.8534,-1.7962,-1.7471,-1.7176,-1.6893,-1.6631,-1.638,-1.6112,-1.5845,-1.5661,-1.5468,-1.5138,-1.4776,-1.456,-1.4471,-1.4139,-1.378,-1.3824,-1.4237,-1.4101,-1.3629,-1.2975,-1.2055,-1.2053,-1.2483,-1.221,-1.1934,-1.2452,-1.2876,-1.2335,-1.1798,-1.1241,-1.0965,-1.0788,-1.0737,-1.0965,-1.15,-1.2104,-1.2344,-1.2584,-1.2798,-1.2676,-1.2871,-1.291,-1.2662,-1.2477,-1.2745,-1.2682,-1.9507,-2.0388,-2.1454,-2.2139,-2.3093,-2.3228,-2.333,-2.338,-2.4142,-2.4319,-2.3735,-2.3311,-2.2907,-2.2335,-2.2031,-2.2173,-2.2531,-2.2851,-2.3444,-2.4163,-2.5106,-2.6117,-2.7202,-2.8015,-2.8441,-2.9042,-2.9102,-2.838,-2.6788,-2.4326,-2.1735,-1.965,-2.002,-2.0301,-2.045,-2.1646,-2.2481,-2.309,-2.2492,-2.2055,-2.2116,-2.1575,-2.0908,-2.0535,-1.9179,-1.7168,-1.4482,-1.2294,-1.0224,-0.9025,-0.8585,-0.9321,-1.1279,-1.3564,-1.5748,-1.7233,-1.8935,-1.976,-2.0148,-2.0491,-2.0589,-2.0443,-2.0276,-2.0381,-2.0299,-1.9991,-1.9521,-1.9582,-1.92,-1.8762,-1.8475,-1.776,-1.7286,-1.6769,-1.6328,-1.5915,-1.5555,-1.541,-1.5294,-1.5021,-1.5021,-1.4943,-1.509,-1.4763,-1.4864,-1.57,-1.5766,-1.5014,-1.4388,-1.3283,-1.2812,-1.3005,-1.2672,-1.2536,-1.2875,-1.3078,-1.2496,-1.1888,-1.1433,-1.0939,-1.0838,-1.0636,-1.0389,-1.1015,-1.1649,-1.2089,-1.2378,-1.2412,-1.2437,-1.2632,-1.2745,-1.3132,-1.329,-1.3351,-1.3194,-1.6781,-1.7126,-1.8414,-1.9408,-2.0358,-2.144,-2.1648,-2.1333,-2.1623,-2.1743,-2.1466,-2.0765,-2.0359,-2.0339,-2.0078,-2.0254,-2.0761,-2.1378,-2.2359,-2.2932,-2.38,-2.494,-2.6409,-2.7015,-2.7847,-2.867,-2.8795,-2.83,-2.6633,-2.4705,-2.3094,-2.1373,-2.1259,-2.1098,-2.177,-2.3017,-2.3758,-2.5011,-2.5039,-2.4764,-2.5106,-2.5094,-2.4792,-2.4133,-2.2837,-2.0798,-1.8259,-1.5914,-1.3998,-1.2442,-1.2168,-1.2905,-1.432,-1.6477,-1.7997,-1.9136,-2.0449,-2.1296,-2.1715,-2.1836,-2.1803,-2.1474,-2.1207,-2.1007,-2.0766,-2.0432,-2.0401,-2.0657,-2.0672,-2.0246,-1.9719,-1.89,-1.8027,-1.7357,-1.663,-1.611,-1.5575,-1.5497,-1.5468,-1.542,-1.542,-1.5603,-1.5792,-1.5992,-1.6095,-1.6328,-1.6607,-1.6428,-1.6347,-1.5583,-1.4165,-1.4026,-1.3541,-1.345,-1.3629,-1.3629,-1.3192,-1.2807,-1.2434,-1.1762,-1.1032,-1.0855,-1.078,-1.0762,-1.1116,-1.1683,-1.1891,-1.145,-1.1575,-1.2187,-1.2384,-1.2652,-1.3108,-1.3266,-1.319,-1.5134,-1.5607,-1.6377,-1.7188,-1.8121,-1.9333,-1.9656,-1.945,-1.9472,-1.9283,-1.9033,-1.8697,-1.8459,-1.8045,-1.7861,-1.8171,-1.8755,-1.9466,-2.0238,-2.1092,-2.2098,-2.3115,-2.4353,-2.5437,-2.587,-2.6659,-2.76,-2.7259,-2.6218,-2.5656,-2.4389,-2.2767,-2.2127,-2.2451,-2.3268,-2.3709,-2.4926,-2.6688,-2.722,-2.7837,-2.8077,-2.7701,-2.743,-2.6834,-2.5912,-2.4035,-2.214,-1.9738,-1.7788,-1.6486,-1.6079,-1.6847,-1.8216,-1.9952,-2.1362,-2.2433,-2.3334,-2.3792,-2.3938,-2.3844,-2.3502,-2.3235,-2.271,-2.272,-2.3174,-2.2892,-2.2249,-2.2439,-2.2592,-2.2255,-2.1753,-2.103,-1.9843,-1.8948,-1.798,-1.7208,-1.6525,-1.6036,-1.5748,-1.542,-1.569,-1.6301,-1.656,-1.6965,-1.7227,-1.8034,-1.8147,-1.7638,-1.7586,-1.7491,-1.6188,-1.5263,-1.4909,-1.4359,-1.4249,-1.4295,-1.4168,-1.3807,-1.3517,-1.2527,-1.1744,-1.1406,-1.1215,-1.1258,-1.13,-1.1509,-1.1509,-1.1191,-1.1609,-1.2403,-1.232,-1.2129,-1.2652,-1.3252,-1.319,-1.4042,-1.4807,-1.495,-1.5404,-1.6139,-1.7139,-1.7557,-1.7566,-1.7537,-1.7085,-1.6439,-1.697,-1.6753,-1.6204,-1.5762,-1.6161,-1.6697,-1.7398,-1.8131,-1.9065,-2.0177,-2.093,-2.1794,-2.2854,-2.3772,-2.4844,-2.59,-2.6287,-2.606,-2.5875,-2.5273,-2.381,-2.3702,-2.4076,-2.4105,-2.4793,-2.625,-2.7876,-2.8998,-3.0286,-3.014,-2.9642,-2.9502,-2.9173,-2.867,-2.7205,-2.5505,-2.3763,-2.178,-2.0986,-2.0585,-2.1518,-2.2644,-2.4196,-2.5265,-2.6397,-2.6849,-2.6894,-2.6645,-2.6394,-2.6052,-2.5667,-2.4939,-2.4654,-2.4981,-2.483,-2.4182,-2.3951,-2.4083,-2.3932,-2.3433,-2.263,-2.1383,-2.0225,-1.9224,-1.8235,-1.7456,-1.6743,-1.6273,-1.5796,-1.6273,-1.6968,-1.7263,-1.7693,-1.839,-1.9253,-1.9407,-1.8918,-1.8507,-1.8311,-1.7627,-1.7003,-1.6668,-1.6055,-1.5369,-1.5434,-1.5613,-1.515,-1.4767,-1.3478,-1.2488,-1.2292,-1.2047,-1.1798,-1.1857,-1.1788,-1.161,-1.1375,-1.195,-1.2559,-1.2246,-1.207,-1.2909,-1.3372,-1.331,-1.2666,-1.2915,-1.3673,-1.4091,-1.4399,-1.5307,-1.5711,-1.5703,-1.5738,-1.5155,-1.4633,-1.4385,-1.4327,-1.4217,-1.4172,-1.4299,-1.4452,-1.5192,-1.6079,-1.7048,-1.7312,-1.8187,-1.9158,-2.0072,-2.2122,-2.357,-2.4705,-2.5384,-2.6074,-2.6332,-2.6081,-2.505,-2.4297,-2.5012,-2.6442,-2.6913,-2.7138,-2.8904,-3.0744,-3.2063,-3.2752,-3.2378,-3.2014,-3.1884,-3.1838,-3.082,-2.9612,-2.818,-2.6665,-2.5785,-2.5494,-2.6216,-2.7143,-2.8218,-2.9259,-2.974,-3.0211,-2.9935,-2.956,-2.8624,-2.8072,-2.7284,-2.6425,-2.5384,-2.5673,-2.589,-2.535,-2.4954,-2.4984,-2.482,-2.4312,-2.3344,-2.2195,-2.1108,-2.0066,-1.9219,-1.8384,-1.7865,-1.7407,-1.7224,-1.7308,-1.7567,-1.7599,-1.8062,-1.8577,-1.9284,-1.9607,-1.9204,-1.9218,-1.9083,-1.8866,-1.8583,-1.82,-1.7747,-1.7096,-1.7258,-1.7321,-1.6774,-1.6142,-1.5141,-1.4191,-1.3308,-1.3035,-1.2964,-1.2329,-1.1942,-1.1735,-1.1978,-1.1953,-1.238,-1.207,-1.211,-1.3054,-1.3637,-1.3718]},{"header":{"parameterUnit":"m.s-1","parameterCategory":1,"la1":31.0,"la2":29.5877,"lo1":-88.7671,"lo2":-86.6584,"dy":0.0162,"dx":0.0185,"nx":115,"ny":88,"refTime":"2024-07-26T06:00:00:Z","depth":0,"parameterNumber":3,"parameterNumberName":"V-component_of_WINDS"},"data":[0.0,0.0,0.0,0.0,0.0,0.0,0.0,0.0,0.0,0.0,0.0,0.0,0.0,0.0,0.0,0.0,0.0,0.0,0.0,0.0,0.0,0.0,0.0,0.0,0.0,0.0,0.0,0.0,0.0,0.0,0.0,0.0,0.0,0.0,0.0,0.0,0.0,0.0,0.0,0.0,0.0,0.0,0.0,0.0,0.0,0.0,0.0,0.0,0.0,0.0,0.0,0.0,0.0,0.0,0.0,0.0,0.0,0.0,0.0,0.0,0.0,0.0,0.0,0.0,0.0,0.0,0.0,0.0,0.0,0.0,0.0,0.0,0.0,0.0,0.0,0.0,0.0,0.0,0.0,0.0,0.0,0.0,0.0,0.0,0.0,0.0,0.0,0.0,0.0,0.0,0.0,0.0,0.0,0.0,0.0,0.0,0.0,0.0,0.0,0.0,0.0,0.0,0.0,0.0,0.0,0.0,0.0,0.0,0.0,0.0,0.0,0.0,0.0,0.0,0.0,0.0,0.0,0.0,0.0,0.0,0.0,0.0,0.0,0.0,0.0,0.0,0.0,0.0,0.0,0.0,0.0,0.0,0.0,0.0,0.0,0.0,0.0,0.0,0.0,0.0,0.0,0.0,0.0,0.0,0.0,0.0,0.0,0.0,0.0,0.0,0.0,0.0,0.0,0.0,0.0,0.0,0.0,0.0,0.0,0.0,0.0,0.0,0.0,0.0,0.0,0.0,0.0,0.0,0.0,0.0,0.0,0.0,0.0,0.0,0.0,0.0,0.0,0.0,0.0,0.0,0.0,0.0,0.0,0.0,0.0,0.0,0.0,0.0,0.0,0.0,0.0,0.0,0.0,0.0,0.0,0.0,0.0,0.0,0.0,0.0,0.0,0.0,0.0,0.0,0.0,0.0,0.0,0.0,0.0,0.0,0.0,0.0,0.0,0.0,0.0,0.0,0.0,0.0,0.0,0.0,0.0,0.0,0.0,0.0,0.0,0.0,0.0,0.0,0.0,0.0,0.0,0.0,0.0,0.0,0.0,0.0,0.0,0.0,0.0,0.0,0.0,0.0,0.0,0.0,0.0,0.0,0.0,0.0,0.0,0.0,0.0,0.0,0.0,0.0,0.0,0.0,0.0,0.0,0.0,0.0,0.0,0.0,0.0,0.0,0.0,0.0,0.0,0.0,0.0,0.0,0.0,0.0,0.0,0.0,0.0,0.0,0.0,0.0,0.0,0.0,0.0,0.0,0.0,0.0,0.0,0.0,0.0,0.0,0.0,0.0,0.0,0.0,0.0,0.0,0.0,0.0,0.0,0.0,0.0,0.0,0.0,0.0,0.0,0.0,0.0,0.0,0.0,0.0,0.0,0.0,0.0,0.0,0.0,0.0,0.0,0.0,0.0,0.0,0.0,0.0,0.0,0.0,0.0,0.0,0.0,0.0,0.0,0.0,0.0,0.0,0.0,0.0,0.0,0.0,0.0,0.0,0.0,0.0,0.0,0.0,0.0,0.0,0.0,0.0,0.0,0.0,0.0,0.0,0.0,0.0,0.0,0.0,0.0,0.0,0.0,0.0,0.0,0.0,0.0,0.0,0.0,0.0,0.0,0.0,0.0,0.0,0.0,0.0,0.0,0.0,0.0,0.0,0.0,0.0,0.0,0.0,0.0,0.0,0.0,0.0,0.0,0.0,0.0,0.0,0.0,0.0,0.0,0.0,0.0,0.0,0.0,0.0,0.0,0.0,0.0,0.0,0.0,0.0,0.0,0.0,0.0,0.0,0.0,0.0,0.0,0.0,0.0,0.0,0.0,0.0,0.0,0.0,0.0,0.0,0.0,0.0,0.0,0.0,0.0,0.0,0.0,0.0,0.0,0.0,0.0,0.0,0.0,0.0,0.0,0.0,0.0,0.0,0.0,0.0,0.0,0.0,0.0,0.0,0.0,0.0,0.0,0.0,0.0,0.0,0.0,0.0,0.0,0.0,0.0,0.0,0.0,0.0,0.0,0.0,0.0,0.0,0.0,0.0,0.0,0.0,0.0,0.0,0.0,0.0,0.0,0.0,0.0,0.0,0.0,0.0,0.0,0.0,0.0,0.0,0.0,0.0,0.0,0.0,0.0,0.0,0.0,0.0,0.0,0.0,0.0,0.0,0.0,0.0,0.0,0.0,0.0,0.0,0.0,0.0,0.0,0.0,0.0,0.0,0.0,0.0,0.0,0.0,0.0,0.0,0.0,0.0,0.0,0.0,0.0,0.0,0.0,0.0,0.0,0.0,0.0,0.0,0.0,0.0,0.0,0.0,0.0,0.0,0.0,0.0,0.0,0.0,0.0,0.0,0.0,0.0,0.0,0.0,0.0,0.0,0.0,0.0,0.0,0.0,0.0,0.0,0.0,0.0,0.0,0.0,0.0,0.0,0.0,0.0,0.0,0.0,0.0,0.0,0.0,0.0,0.0,0.0,0.0,0.0,0.0,0.0,0.0,0.0,0.0,0.0,0.0,0.0,0.0,0.0,0.0,0.0,0.0,0.0,0.0,0.0,0.0,0.0,0.0,0.0,0.0,0.0,0.0,0.0,0.0,0.0,0.0,0.0,0.0,0.0,0.0,0.0,0.0,0.0,0.0,0.0,0.0,0.0,0.0,0.0,0.0,0.0,0.0,0.0,0.0,0.0,0.0,0.0,0.0,0.0,0.0,0.0,0.0,0.0,0.0,0.0,0.0,0.0,0.0,0.0,0.0,0.0,0.0,0.0,0.0,0.0,0.0,0.0,0.0,0.0,0.0,0.0,0.0,0.0,0.0,0.0,0.0,0.0,0.0,0.0,0.0,0.0,0.0,0.0,0.0,0.0,0.0,0.0,0.0,0.0,0.0,0.0,0.0,0.0,0.0,0.0,0.0,0.0,0.0,0.0,0.0,0.0,0.0,0.0,0.0,0.0,0.0,0.0,0.0,0.0,0.0,0.0,0.0,0.0,0.0,0.0,0.0,0.0,0.0,0.0,0.0,0.0,0.0,0.0,0.0,0.0,0.0,0.0,0.0,0.0,0.0,0.0,0.0,0.0,0.0,0.0,0.0,0.0,0.0,0.0,0.0,0.0,0.0,0.0,0.0,0.0,0.0,0.0,0.0,0.0,0.0,0.0,0.0,0.0,0.0,0.0,0.0,0.0,0.0,0.0,0.0,0.0,0.0,0.0,0.0,0.0,0.0,0.0,0.0,0.0,0.0,0.0,0.0,0.0,0.0,0.0,0.0,0.0,0.0,0.0,0.0,0.0,0.0,0.0,0.0,0.0,0.0,0.0,0.0,0.0,0.0,0.0,0.0,0.0,0.0,0.0,0.0,0.0,0.0,0.0,0.0,0.0,0.0,0.0,0.0,0.0,0.0,0.0,0.0,0.0,0.0,0.0,0.0,0.0,0.0,0.0,0.0,0.0,0.0,0.0,0.0,0.0,0.0,0.0,0.0,0.0,0.0,0.0,0.0,0.0,0.0,0.0,0.0,0.0,0.0,0.0,0.0,0.0,0.0,0.0,0.0,0.0,0.0,0.0,0.0,0.0,0.0,0.0,0.0,0.0,0.0,0.0,0.0,0.0,0.0,0.0,0.0,0.0,0.0,0.0,0.0,0.0,0.0,0.0,0.0,0.0,0.0,0.0,0.0,0.0,0.0,0.0,0.0,0.0,0.0,0.0,0.0,0.0,0.0,0.0,0.0,0.0,0.0,0.0,0.0,0.0,0.0,0.0,0.0,0.0,0.0,0.0,0.0,0.0,0.0,0.0,0.0,0.0,0.0,0.0,0.0,0.0,0.0,0.0,0.0,0.0,0.0,0.0,0.0,0.0,0.0,0.0,0.0,0.0,0.0,0.0,0.0,0.0,0.0,0.0,0.0,0.0,0.0,0.0,0.0,0.0,0.0,0.0,0.0,0.0,0.0,0.0,0.0,0.0,0.0,0.0,0.0,0.0,0.0,0.0,0.0,0.0,0.0,0.0,0.0,0.0,0.0,0.0,0.0,0.0,0.0,0.0,0.0,0.0,0.0,0.0,0.0,0.0,0.0,0.0,0.0,0.0,0.0,0.0,0.0,0.0,0.0,0.0,0.0,0.0,0.0,0.0,0.0,0.0,0.0,0.0,0.0,0.0,0.0,0.0,0.0,0.0,0.0,0.0,0.0,0.0,0.0,0.0,0.0,0.0,0.0,0.0,0.0,0.0,0.0,0.0,0.0,0.0,0.0,0.0,0.0,0.0,0.0,0.0,0.0,0.0,0.0,0.0,2.274,0.0,0.0,0.0,0.0,0.0,0.0,0.0,0.0,0.0,0.0,0.0,0.0,0.0,0.0,0.0,0.0,0.0,0.0,0.0,0.0,0.0,0.0,0.0,0.0,0.0,0.0,0.0,0.0,0.0,0.0,0.0,0.0,0.0,0.0,0.0,0.0,0.0,0.0,0.0,0.0,0.0,0.0,0.0,0.0,0.0,0.0,0.0,0.0,0.0,0.0,0.0,0.0,0.0,0.0,0.0,0.0,0.0,0.0,0.0,0.0,0.0,0.0,0.0,0.0,0.0,0.0,0.0,0.0,0.0,0.0,0.0,0.0,0.0,0.0,0.0,0.0,0.0,0.0,0.0,0.0,0.0,0.0,0.0,0.0,0.0,0.0,0.0,0.0,0.0,0.0,0.0,0.0,0.0,0.0,0.0,0.0,0.0,0.0,0.0,0.0,0.0,0.0,0.0,0.0,0.0,0.0,0.0,0.0,0.0,0.0,2.4574,2.5316,2.3694,2.2586,2.2047,0.0,0.0,0.0,0.0,0.0,0.0,0.0,0.0,0.0,0.0,0.0,0.0,0.0,0.0,0.0,0.0,0.0,0.0,0.0,0.0,0.0,0.0,0.0,0.0,0.0,0.0,0.0,0.0,0.0,0.0,0.0,0.0,0.0,0.0,0.0,0.0,0.0,0.0,0.0,0.0,0.0,0.0,0.0,0.0,0.0,0.0,0.0,0.0,0.0,0.0,0.0,0.0,0.0,0.0,0.0,0.0,0.0,0.0,0.0,0.0,0.0,0.0,0.0,0.0,0.0,0.0,0.0,0.0,0.0,0.0,0.0,0.0,0.0,0.0,0.0,0.0,0.0,0.0,0.0,0.0,0.0,0.0,0.0,0.0,0.0,0.0,0.0,0.0,0.0,0.0,0.0,0.0,0.0,0.0,0.0,0.0,0.0,0.0,0.0,0.0,0.0,0.0,0.0,0.0,0.0,0.0,0.0,0.0,0.0,0.0,0.0,0.0,2.3563,2.2133,2.092,0.0,0.0,0.0,0.0,0.0,0.0,0.0,0.0,0.0,0.0,0.0,0.0,0.0,0.0,0.0,0.0,0.0,0.0,0.0,0.0,0.0,0.0,0.0,0.0,0.0,0.0,0.0,0.0,0.0,0.0,0.0,0.0,0.0,0.0,0.0,0.0,0.0,0.0,0.0,0.0,0.0,0.0,0.0,0.0,0.0,0.0,0.0,0.0,0.0,0.0,0.0,0.0,0.0,0.0,0.0,0.0,0.0,0.0,0.0,0.0,0.0,0.0,0.0,0.0,0.0,0.0,0.0,0.0,0.0,0.0,0.0,0.0,0.0,0.0,0.0,0.0,0.0,0.0,0.0,0.0,0.0,0.0,0.0,0.0,0.0,0.0,0.0,0.0,0.0,0.0,0.0,0.0,0.0,0.0,0.0,0.0,0.0,0.0,0.0,0.0,0.0,0.0,0.0,0.0,0.0,0.0,0.0,0.0,0.0,0.0,2.2687,2.4235,2.3151,0.0,1.9192,0.0,0.0,0.0,0.0,0.0,0.0,0.0,0.0,0.0,0.0,0.0,0.0,0.0,0.0,0.0,0.0,0.0,0.0,0.0,0.0,0.0,0.0,0.0,0.0,0.0,0.0,0.0,0.0,0.0,0.0,0.0,0.0,0.0,0.0,0.0,0.0,0.0,0.0,0.0,0.0,0.0,0.0,0.0,0.0,0.0,0.0,0.0,0.0,0.0,0.0,0.0,0.0,0.0,0.0,0.0,0.0,0.0,0.0,0.0,0.0,0.0,0.0,0.0,0.0,0.0,0.0,0.0,0.0,0.0,0.0,0.0,0.0,0.0,0.0,0.0,0.0,0.0,0.0,0.0,0.0,0.0,0.0,0.0,0.0,0.0,0.0,0.0,0.0,0.0,0.0,0.0,0.0,0.0,0.0,0.0,0.0,0.0,0.0,0.0,0.0,0.0,0.0,0.0,0.0,0.0,0.0,0.0,0.0,0.0,0.0,0.0,2.418,2.219,2.0292,0.0,0.0,0.0,0.0,0.0,0.0,0.0,0.0,0.0,0.0,0.0,0.0,0.0,0.0,0.0,0.0,0.0,0.0,0.0,0.0,0.0,0.0,0.0,0.0,0.0,0.0,0.0,0.0,0.0,0.0,0.0,0.0,0.0,0.0,0.0,0.0,0.0,0.0,0.0,0.0,0.0,0.0,0.0,0.0,0.0,0.0,0.0,0.0,0.0,0.0,0.0,0.0,0.0,0.0,0.0,0.0,0.0,0.0,0.0,0.0,0.0,0.0,0.0,0.0,0.0,0.0,0.0,0.0,0.0,0.0,0.0,0.0,0.0,0.0,0.0,0.0,0.0,0.0,0.0,0.0,0.0,0.0,0.0,0.0,0.0,0.0,0.0,0.0,0.0,0.0,0.0,0.0,0.0,0.0,0.0,0.0,0.0,0.0,0.0,0.0,0.0,0.0,0.0,0.0,0.0,0.0,0.0,0.0,0.0,0.0,2.2362,0.0,2.3462,2.1578,1.9816,1.8409,0.0,0.0,0.0,0.0,0.0,0.0,0.0,0.0,0.0,0.0,0.0,0.0,0.0,0.0,0.0,0.0,0.0,0.0,0.0,0.0,0.0,0.0,0.0,0.0,0.0,0.0,0.0,0.0,0.0,0.0,0.0,0.0,0.0,0.0,0.0,0.0,0.0,0.0,0.0,0.0,0.0,0.0,0.0,0.0,0.0,0.0,0.0,0.0,0.0,0.0,0.0,0.0,0.0,0.0,0.0,0.0,0.0,0.0,0.0,0.0,0.0,0.0,0.0,0.0,0.0,0.0,0.0,0.0,0.0,0.0,0.0,0.0,0.0,0.0,0.0,0.0,0.0,0.0,0.0,0.0,0.0,0.0,0.0,0.0,0.0,0.0,0.0,0.0,0.0,0.0,0.0,0.0,0.0,0.0,0.0,0.0,0.0,0.0,0.0,0.0,0.0,0.0,0.0,0.0,0.0,0.0,0.0,0.0,0.0,2.1806,2.1597,2.2096,2.1658,2.034,0.0,0.0,0.0,0.0,0.0,0.0,0.0,0.0,0.0,0.0,0.0,0.0,0.0,0.0,0.0,0.0,0.0,0.0,0.0,0.0,0.0,0.0,0.0,0.0,0.0,0.0,0.0,0.0,0.0,0.0,0.0,0.0,0.0,0.0,0.0,0.0,0.0,0.0,0.0,0.0,0.0,0.0,0.0,0.0,0.0,0.0,0.0,0.0,0.0,0.0,0.0,0.0,0.0,0.0,0.0,0.0,0.0,0.0,0.0,0.0,0.0,0.0,0.0,0.0,0.0,0.0,0.0,0.0,0.0,0.0,0.0,0.0,0.0,0.0,0.0,0.0,0.0,0.0,0.0,0.0,0.0,0.0,0.0,0.0,0.0,0.0,0.0,0.0,0.0,0.0,0.0,0.0,0.0,0.0,0.0,0.0,0.0,0.0,0.0,0.0,0.0,0.0,0.0,0.0,0.0,0.0,0.0,0.0,0.0,2.0442,2.0241,2.063,2.1515,1.9832,1.8584,0.0,0.0,0.0,0.0,0.0,0.0,0.0,0.0,0.0,0.0,0.0,0.0,0.0,0.0,0.0,0.0,0.0,0.0,0.0,0.0,0.0,0.0,0.0,0.0,0.0,0.0,0.0,0.0,0.0,0.0,0.0,0.0,0.0,0.0,0.0,0.0,0.0,0.0,0.0,0.0,0.0,0.0,0.0,0.0,0.0,0.0,0.0,0.0,0.0,0.0,0.0,0.0,0.0,0.0,0.0,0.0,0.0,0.0,0.0,0.0,0.0,0.0,0.0,0.0,0.0,0.0,0.0,0.0,0.0,0.0,0.0,0.0,0.0,0.0,0.0,0.0,0.0,0.0,0.0,0.0,0.0,0.0,0.0,0.0,0.0,0.0,0.0,0.0,0.0,0.0,0.0,0.0,0.0,0.0,0.0,0.0,0.0,0.0,0.0,0.0,0.0,0.0,0.0,0.0,0.0,0.0,0.0,0.0,0.0,1.9104,0.0,1.9339,0.0,1.8168,1.7062,0.0,0.0,0.0,0.0,0.0,0.0,0.0,0.0,0.0,0.0,0.0,0.0,0.0,0.0,0.0,0.0,0.0,0.0,0.0,0.0,0.0,0.0,0.0,0.0,0.0,0.0,0.0,0.0,0.0,0.0,0.0,0.0,0.0,0.0,0.0,0.0,0.0,0.0,0.0,0.0,0.0,0.0,0.0,0.0,0.0,0.0,0.0,0.0,0.0,0.0,0.0,0.0,0.0,0.0,0.0,0.0,0.0,0.0,0.0,0.0,0.0,0.0,0.0,0.0,0.0,0.0,0.0,0.0,0.0,0.0,0.0,0.0,0.0,0.0,0.0,0.0,0.0,0.0,0.0,0.0,0.0,0.0,0.0,0.0,0.0,0.0,0.0,0.0,0.0,0.0,0.0,0.0,0.0,0.0,0.0,0.0,0.0,0.0,0.0,0.0,0.0,0.0,0.0,0.0,0.0,0.0,0.0,0.0,1.936,1.8757,1.8256,1.7526,1.6711,1.6691,1.593,0.0,0.0,0.0,0.0,0.0,0.0,0.0,0.0,0.0,0.0,0.0,0.0,0.0,0.0,0.0,0.0,0.0,0.0,0.0,0.0,0.0,0.0,0.0,0.0,0.0,0.0,0.0,0.0,0.0,0.0,0.0,0.0,0.0,0.0,0.0,0.0,0.0,0.0,0.0,0.0,0.0,0.0,0.0,0.0,0.0,0.0,0.0,0.0,0.0,0.0,0.0,0.0,0.0,0.0,0.0,0.0,0.0,0.0,0.0,0.0,0.0,0.0,0.0,0.0,0.0,0.0,0.0,0.0,0.0,0.0,0.0,0.0,0.0,0.0,0.0,0.0,0.0,0.0,0.0,0.0,0.0,0.0,0.0,0.0,0.0,0.0,0.0,0.0,0.0,0.0,0.0,0.0,0.0,0.0,0.0,0.0,0.0,0.0,0.0,0.0,0.0,0.0,0.0,0.0,0.0,0.0,0.0,0.0,0.0,1.6263,1.44,1.3526,1.3693,1.3047,1.2959,0.0,0.0,0.0,0.0,0.0,0.0,0.0,0.0,0.0,0.0,0.0,0.0,0.0,0.0,0.0,0.0,0.0,0.0,0.0,0.0,0.0,0.0,0.0,0.0,0.0,0.0,0.0,0.0,0.0,0.0,0.0,0.0,0.0,0.0,0.0,0.0,0.0,0.0,0.0,0.0,0.0,0.0,0.0,0.0,0.0,0.0,0.0,0.0,0.0,0.0,0.0,0.0,0.0,0.0,0.0,0.0,0.0,0.0,0.0,0.0,0.0,0.0,0.0,0.0,0.0,0.0,0.0,0.0,0.0,0.0,0.0,0.0,0.0,0.0,0.0,0.0,0.0,0.0,0.0,0.0,0.0,0.0,0.0,0.0,0.0,0.0,0.0,0.0,0.0,0.0,0.0,0.0,0.0,0.0,0.0,0.0,0.0,0.0,0.0,0.0,0.0,0.0,0.0,0.0,0.0,0.0,0.0,0.0,0.0,1.377,1.1961,1.095,1.0757,1.0271,1.0696,1.213,0.0,0.0,0.0,0.0,0.0,0.0,0.0,0.0,0.0,0.0,0.0,0.0,0.0,0.0,0.0,0.0,0.0,0.0,0.0,0.0,0.0,0.0,0.0,0.0,0.0,0.0,0.0,0.0,0.0,0.0,0.0,0.0,0.0,0.0,0.0,0.0,0.0,0.0,0.0,0.0,0.0,0.0,0.0,0.0,0.0,0.0,0.0,0.0,0.0,0.0,0.0,0.0,0.0,0.0,0.0,0.0,0.0,0.0,0.0,0.0,0.0,0.0,0.0,0.0,0.0,0.0,0.0,0.0,0.0,0.0,0.0,0.0,0.0,0.0,0.0,0.0,0.0,0.0,0.0,0.0,0.0,0.0,0.0,0.0,0.0,0.0,0.0,0.0,0.0,0.0,0.0,0.0,0.0,0.0,0.0,0.0,0.0,0.0,0.0,0.0,0.0,0.0,0.0,0.0,0.0,0.0,0.0,0.0,1.1438,1.075,0.9566,0.7866,0.8203,0.8991,0.0,0.0,0.0,0.0,0.0,0.0,0.0,0.0,0.0,0.0,0.0,0.0,0.0,0.0,0.0,0.0,0.0,0.0,0.0,0.0,0.0,0.0,0.0,0.0,0.0,0.0,0.0,0.0,0.0,0.0,0.0,0.0,0.0,0.0,0.0,0.0,0.0,0.0,0.0,0.0,0.0,0.0,0.0,0.0,0.0,0.0,0.0,0.0,0.0,0.0,0.0,0.0,0.0,0.0,0.0,0.0,0.0,0.0,0.0,0.0,0.0,0.0,0.0,0.0,0.0,0.0,0.0,0.0,0.0,0.0,0.0,0.0,0.0,0.0,0.0,0.0,0.0,0.0,0.0,0.0,0.0,0.0,0.0,0.0,0.0,0.0,0.0,0.0,0.0,0.0,0.0,0.0,0.0,0.0,0.0,0.0,0.0,0.0,0.0,0.0,0.0,0.0,0.0,0.0,0.0,0.0,0.0,0.0,0.0,1.144,0.9358,0.7376,0.5411,0.5455,0.6398,0.0,0.0,0.0,0.0,0.0,0.0,0.0,0.0,0.0,0.0,0.0,0.0,0.0,0.0,0.0,0.0,0.0,0.0,0.0,0.0,0.0,0.0,0.0,0.0,0.0,0.0,0.0,0.0,0.0,0.0,0.0,0.0,0.0,0.0,0.0,0.0,0.0,0.0,0.0,0.0,0.0,0.0,0.0,0.0,0.0,0.0,0.0,0.0,0.0,0.0,0.0,0.0,0.0,0.0,0.0,0.0,0.0,0.0,0.0,0.0,0.0,0.0,0.0,0.0,0.0,0.0,0.0,0.0,0.0,0.0,0.0,0.0,0.0,0.0,0.0,0.0,0.0,0.0,0.0,0.0,0.0,0.0,0.0,0.0,0.0,0.0,0.0,0.0,0.0,0.0,0.0,0.0,0.0,0.0,0.0,0.0,0.0,0.0,0.0,0.0,0.0,0.0,0.0,0.0,0.0,0.0,0.0,0.0,1.4963,1.1489,0.8853,0.6506,0.4477,0.4688,0.5896,0.0,0.0,0.0,0.0,0.0,0.0,0.0,0.0,0.0,0.0,0.0,0.0,0.0,0.0,0.0,0.0,0.0,0.0,0.0,0.0,0.0,0.0,0.0,0.0,0.0,0.0,0.0,0.0,0.0,0.0,0.0,0.0,0.0,0.0,0.0,0.0,0.0,0.0,0.0,0.0,0.0,0.0,0.0,0.0,0.0,0.0,0.0,0.0,0.0,0.0,0.0,0.0,0.0,0.0,0.0,0.0,0.0,0.0,0.0,0.0,0.0,0.0,0.0,0.0,0.0,0.0,0.0,0.0,0.0,0.0,0.0,0.0,0.0,0.0,0.0,0.0,0.0,0.0,0.0,0.0,0.0,0.0,0.0,0.0,0.0,0.0,0.0,0.0,0.0,0.0,0.0,0.0,0.0,0.0,0.0,0.0,0.0,0.0,0.0,0.0,0.0,0.0,0.0,0.0,0.0,0.0,0.0,0.0,1.4708,1.1571,0.895,0.6623,0.4638,0.5015,0.6325,0.0,0.0,0.0,0.0,0.0,0.0,0.0,0.0,0.0,0.0,0.0,0.0,0.0,0.0,0.0,0.0,0.0,0.0,0.0,0.0,0.0,0.0,0.0,0.0,0.0,0.0,0.0,0.0,0.0,0.0,0.0,0.0,0.0,0.0,0.0,0.0,0.0,0.0,0.0,0.0,0.0,0.0,0.0,0.0,0.0,0.0,0.0,0.0,0.0,0.0,0.0,0.0,0.0,0.0,0.0,0.0,0.0,0.0,0.0,0.0,0.0,0.0,0.0,0.0,0.0,0.0,0.0,0.0,0.0,0.0,0.0,0.0,0.0,0.0,0.0,0.0,0.0,0.0,0.0,0.0,0.0,0.0,0.0,0.0,0.0,0.0,0.0,0.0,0.0,0.0,0.0,0.0,0.0,0.0,0.0,0.0,0.0,0.0,0.0,0.0,0.0,0.0,0.0,0.0,0.0,0.0,0.0,0.0,1.4134,1.0946,0.9122,0.7272,0.5311,0.4299,0.4892,0.0,0.0,0.0,0.0,0.0,0.0,0.0,0.0,0.0,0.0,0.0,0.0,0.0,0.0,0.0,0.0,0.0,0.0,0.0,0.0,0.0,0.0,0.0,0.0,0.0,0.0,0.0,0.0,0.0,0.0,0.0,0.0,0.0,0.0,0.0,0.0,0.0,0.0,0.0,0.0,0.0,0.0,0.0,0.0,0.0,0.0,0.0,0.0,2.0464,0.0,0.0,0.0,0.0,0.0,0.0,0.0,0.0,0.0,0.0,0.0,0.0,0.0,0.0,0.0,0.0,0.0,0.0,0.0,0.0,0.0,0.0,0.0,0.0,0.0,0.0,0.0,0.0,0.0,0.0,0.0,0.0,0.0,0.0,0.0,0.0,0.0,0.0,0.0,0.0,0.0,0.0,0.0,0.0,0.0,0.0,0.0,0.0,0.0,0.0,0.0,0.0,0.0,0.0,0.0,0.0,0.0,0.0,0.0,1.4086,1.1254,0.9619,0.8023,0.6386,0.49,0.5169,0.0,0.0,0.0,0.0,0.0,0.0,0.0,0.0,0.0,0.0,0.0,0.0,0.0,0.0,0.0,0.0,0.0,0.0,0.0,0.0,0.0,0.0,0.0,0.0,0.0,0.0,0.0,0.0,0.0,0.0,0.0,0.0,0.0,0.0,0.0,0.0,0.0,0.0,0.0,0.0,0.0,0.0,0.0,0.0,0.0,0.0,0.0,0.0,0.0,0.0,0.0,0.0,0.0,0.0,0.0,0.0,0.0,0.0,0.0,0.0,0.0,0.0,0.0,0.0,0.0,0.0,0.0,0.0,0.0,0.0,0.0,0.0,0.0,0.0,0.0,0.0,0.0,0.0,0.0,0.0,0.0,0.0,0.0,0.0,0.0,0.0,0.0,0.0,0.0,0.0,0.0,0.0,0.0,0.0,0.0,0.0,0.0,0.0,0.0,0.0,0.0,0.0,0.0,0.0,0.0,0.0,0.0,1.5994,1.4244,1.1929,1.0173,0.8679,0.7482,0.5979,0.6067,0.7933,0.0,0.0,0.0,0.0,0.0,0.0,0.0,0.0,0.0,0.0,0.0,0.0,0.0,0.0,0.0,0.0,0.0,0.0,0.0,0.0,0.0,0.0,0.0,0.0,0.0,0.0,0.0,0.0,0.0,0.0,0.0,0.0,0.0,0.0,0.0,0.0,0.0,0.0,2.1545,2.1224,0.0,0.0,0.0,0.0,0.0,0.0,0.0,0.0,2.1685,0.0,0.0,0.0,0.0,0.0,0.0,0.0,0.0,0.0,0.0,0.0,0.0,0.0,0.0,0.0,0.0,0.0,0.0,0.0,0.0,0.0,0.0,0.0,0.0,0.0,0.0,0.0,0.0,0.0,0.0,0.0,0.0,0.0,0.0,0.0,0.0,0.0,0.0,0.0,0.0,0.0,0.0,0.0,0.0,0.0,0.0,0.0,0.0,0.0,0.0,0.0,0.0,0.0,0.0,0.0,0.0,1.7206,1.5638,1.4111,1.2624,1.033,0.8818,0.8134,0.6363,0.6239,0.7902,0.0,0.0,0.0,0.0,0.0,0.0,0.0,0.0,0.0,0.0,0.0,0.0,0.0,0.0,0.0,0.0,0.0,0.0,0.0,0.0,0.0,0.0,0.0,0.0,0.0,0.0,0.0,0.0,0.0,0.0,0.0,0.0,0.0,0.0,0.0,0.0,0.0,0.0,0.0,2.0604,2.0846,0.0,0.0,0.0,0.0,0.0,0.0,0.0,0.0,2.195,0.0,0.0,0.0,0.0,0.0,0.0,0.0,0.0,0.0,0.0,0.0,0.0,0.0,0.0,0.0,0.0,0.0,0.0,0.0,0.0,0.0,0.0,0.0,0.0,0.0,0.0,0.0,0.0,0.0,0.0,0.0,0.0,0.0,0.0,0.0,0.0,0.0,0.0,0.0,0.0,0.0,0.0,0.0,0.0,0.0,0.0,0.0,0.0,0.0,0.0,0.0,0.0,0.0,0.0,0.0,1.7206,1.5552,1.4075,1.2792,1.0965,0.9537,0.8623,0.7155,0.6868,0.0,0.0,0.0,0.0,0.0,0.0,0.0,0.0,0.0,0.0,0.0,0.0,0.0,0.0,0.0,0.0,0.0,0.0,0.0,0.0,0.0,0.0,0.0,0.0,0.0,0.0,0.0,0.0,0.0,0.0,0.0,0.0,0.0,0.0,0.0,0.0,0.0,0.0,0.0,0.0,2.0783,2.0957,2.1258,0.0,0.0,0.0,0.0,0.0,0.0,2.2227,2.2386,0.0,0.0,0.0,0.0,0.0,0.0,0.0,0.0,0.0,0.0,0.0,0.0,0.0,0.0,0.0,0.0,0.0,0.0,0.0,0.0,0.0,0.0,0.0,0.0,0.0,0.0,0.0,0.0,0.0,0.0,0.0,0.0,0.0,0.0,0.0,0.0,0.0,0.0,0.0,0.0,0.0,0.0,0.0,0.0,0.0,0.0,0.0,0.0,0.0,0.0,0.0,0.0,0.0,0.0,0.0,1.7518,1.5879,1.4435,1.3189,1.1727,1.0441,0.9305,0.8007,0.7573,0.0,0.0,0.0,0.0,0.0,0.0,0.0,0.0,0.0,0.0,0.0,0.0,0.0,0.0,0.0,0.0,0.0,0.0,0.0,0.0,0.0,0.0,0.0,0.0,0.0,0.0,0.0,0.0,0.0,0.0,0.0,0.0,0.0,0.0,0.0,0.0,0.0,0.0,0.0,0.0,0.0,2.0847,2.0701,2.0835,0.0,0.0,0.0,0.0,2.1476,2.2116,0.0,0.0,0.0,0.0,0.0,0.0,0.0,0.0,0.0,0.0,0.0,0.0,0.0,0.0,0.0,0.0,0.0,0.0,0.0,0.0,0.0,0.0,0.0,0.0,0.0,0.0,0.0,0.0,0.0,0.0,0.0,0.0,0.0,0.0,0.0,0.0,0.0,0.0,0.0,0.0,0.0,0.0,0.0,0.0,0.0,0.0,0.0,0.0,0.0,0.0,0.0,0.0,0.0,0.0,0.0,0.0,1.8608,1.7021,1.5652,1.4459,1.2592,1.1274,1.0575,0.8768,0.8066,0.0,0.0,0.0,0.0,0.0,0.0,0.0,0.0,0.0,0.0,0.0,0.0,0.0,0.0,0.0,0.0,0.0,0.0,0.0,0.0,0.0,0.0,0.0,0.0,0.0,0.0,0.0,0.0,0.0,0.0,0.0,0.0,0.0,0.0,0.0,0.0,0.0,0.0,0.0,0.0,0.0,1.9738,1.9612,1.9695,1.9929,0.0,0.0,2.1055,2.1071,2.168,0.0,0.0,0.0,0.0,0.0,0.0,0.0,0.0,0.0,0.0,0.0,0.0,0.0,0.0,0.0,0.0,0.0,0.0,0.0,0.0,0.0,0.0,0.0,0.0,0.0,0.0,0.0,0.0,0.0,0.0,0.0,0.0,0.0,0.0,0.0,0.0,0.0,0.0,0.0,0.0,0.0,0.0,0.0,0.0,0.0,0.0,0.0,0.0,0.0,0.0,0.0,0.0,0.0,0.0,0.0,1.988,1.9229,1.737,1.6164,1.5616,1.3379,1.1881,1.1317,0.9689,0.8785,0.0,0.0,0.0,0.0,0.0,0.0,0.0,0.0,0.0,0.0,0.0,0.0,0.0,0.0,0.0,0.0,0.0,0.0,0.0,0.0,0.0,0.0,0.0,0.0,0.0,0.0,0.0,0.0,0.0,0.0,0.0,0.0,0.0,0.0,0.0,0.0,0.0,0.0,0.0,0.0,0.0,0.0,1.8293,1.8811,0.0,0.0,0.0,1.985,2.0103,0.0,0.0,0.0,0.0,0.0,0.0,0.0,0.0,0.0,0.0,0.0,0.0,0.0,0.0,0.0,0.0,0.0,0.0,0.0,0.0,0.0,0.0,0.0,0.0,0.0,0.0,0.0,0.0,0.0,0.0,0.0,0.0,0.0,0.0,0.0,0.0,0.0,0.0,0.0,0.0,0.0,0.0,0.0,0.0,0.0,0.0,0.0,0.0,0.0,0.0,0.0,0.0,0.0,0.0,0.0,0.0,0.0,1.9718,1.8074,1.6931,1.6362,1.4239,1.272,1.1904,1.0461,0.0,0.0,0.0,0.0,0.0,0.0,0.0,0.0,0.0,0.0,0.0,0.0,0.0,0.0,0.0,0.0,0.0,0.0,0.0,0.0,0.0,0.0,0.0,0.0,0.0,0.0,0.0,1.3053,0.0,0.0,0.0,0.0,0.0,0.0,0.0,0.0,0.0,0.0,0.0,0.0,0.0,0.0,1.8242,1.7127,1.7792,1.8602,0.0,0.0,1.8795,1.9276,1.9518,1.9794,0.0,0.0,0.0,0.0,0.0,0.0,0.0,0.0,0.0,0.0,0.0,0.0,0.0,0.0,0.0,0.0,0.0,0.0,0.0,0.0,0.0,0.0,0.0,0.0,0.0,0.0,0.0,0.0,0.0,0.0,0.0,0.0,0.0,0.0,0.0,0.0,0.0,0.0,0.0,0.0,0.0,0.0,0.0,0.0,0.0,0.0,0.0,0.0,0.0,0.0,0.0,0.0,0.0,0.0,0.0,2.0172,1.9665,1.8384,1.6469,1.5334,1.4002,1.2478,1.0965,0.9933,0.0,0.0,0.0,0.0,0.0,0.0,0.0,0.0,0.0,0.0,0.0,0.0,0.0,0.0,0.0,0.0,0.0,0.0,0.0,0.0,0.0,0.0,0.0,0.0,0.0,0.0,0.0,0.0,0.0,0.0,0.0,0.0,0.0,0.0,0.0,0.0,0.0,0.0,0.0,0.0,0.0,1.5943,1.63,1.648,1.6967,0.0,0.0,1.8333,1.8849,1.89,1.8778,1.8528,0.0,0.0,0.0,0.0,0.0,0.0,0.0,0.0,0.0,0.0,0.0,0.0,0.0,0.0,0.0,0.0,0.0,0.0,0.0,0.0,0.0,0.0,0.0,0.0,0.0,0.0,0.0,0.0,0.0,0.0,0.0,0.0,0.0,0.0,0.0,0.0,0.0,0.0,0.0,0.0,0.0,0.0,0.0,0.0,0.0,0.0,0.0,0.0,0.0,0.0,0.0,0.0,0.0,2.1429,2.107,2.0099,1.9196,1.8322,1.6104,1.4603,1.4002,1.2157,1.078,0.0,0.0,0.0,0.0,0.0,0.0,0.0,0.0,0.0,0.0,0.0,0.0,0.0,0.0,0.0,0.0,0.0,0.0,0.0,0.0,0.0,0.0,0.0,0.0,0.0,0.0,0.0,0.0,1.3912,1.3805,1.3507,0.0,0.0,0.0,0.0,0.0,0.0,0.0,0.0,0.0,0.0,1.5321,1.5152,1.5245,0.0,0.0,1.7376,1.7312,1.7987,1.7666,1.7281,1.7155,1.7482,0.0,0.0,0.0,0.0,0.0,0.0,0.0,0.0,0.0,0.0,0.0,0.0,0.0,0.0,0.0,0.0,0.0,0.0,0.0,0.0,0.0,0.0,0.0,0.0,0.0,0.0,0.0,0.0,0.0,0.0,0.0,0.0,0.0,0.0,0.0,0.0,0.0,0.0,0.0,0.0,0.0,0.0,0.0,0.0,0.0,0.0,0.0,0.0,0.0,0.0,0.0,0.0,2.1733,2.1597,2.0553,1.9871,1.9573,1.6945,1.535,1.4854,1.3131,1.1627,0.0,0.0,0.0,0.0,0.0,0.0,0.0,0.0,0.0,0.0,0.0,0.0,0.0,0.0,0.0,0.0,0.0,0.0,0.0,0.0,0.0,0.0,0.0,0.0,0.0,0.0,0.0,0.0,1.4209,1.4247,1.4089,0.0,0.0,0.0,0.0,0.0,0.0,0.0,0.0,0.0,0.0,1.4931,1.4465,1.4411,1.5062,1.6874,1.6535,1.6372,1.7225,1.6934,1.6467,1.6075,0.0,0.0,0.0,0.0,0.0,0.0,0.0,0.0,0.0,0.0,0.0,0.0,0.0,0.0,0.0,0.0,0.0,0.0,0.0,0.0,0.0,0.0,0.0,0.0,0.0,0.0,0.0,1.0273,0.0,0.0,2.0105,0.0,0.0,0.0,0.0,0.0,0.0,0.0,0.0,0.0,0.0,0.0,0.0,0.0,0.0,0.0,0.0,0.0,0.0,0.0,0.0,0.0,0.0,2.2063,2.1628,2.1166,2.0517,1.9626,1.7937,1.6371,1.498,1.3732,1.2431,1.1038,0.0,0.0,0.0,0.0,0.0,0.0,0.0,0.0,0.0,0.0,0.0,0.0,0.0,0.0,0.0,0.0,0.0,0.0,0.0,0.0,0.0,0.0,0.0,0.0,0.0,0.0,1.313,1.3572,1.416,0.0,0.0,0.0,0.0,0.0,0.0,0.0,0.0,0.0,0.0,1.487,1.456,1.4426,1.4038,1.4352,1.5916,1.5679,1.5669,1.6664,1.6976,1.6654,0.0,0.0,0.0,0.0,0.0,0.0,0.0,0.0,0.0,0.0,0.0,0.0,0.0,0.0,0.0,0.0,0.0,0.0,0.0,0.0,0.0,0.0,0.0,0.0,0.0,0.0,0.0,1.454,1.4867,0.0,0.0,0.0,0.0,0.0,0.0,0.0,0.0,0.0,0.0,0.0,1.8229,1.8581,0.0,0.0,0.0,0.0,0.0,0.0,0.0,0.0,0.0,0.0,0.0,0.0,2.1913,2.2017,2.1337,2.0862,2.0502,1.8713,1.7319,1.6389,1.4967,1.3385,1.1601,0.0,0.0,0.0,0.0,0.0,0.0,0.0,0.0,0.0,0.0,0.0,0.0,0.0,0.0,0.0,0.0,0.0,0.0,0.0,0.0,0.0,0.0,0.0,0.0,0.0,1.3249,0.0,0.0,0.0,0.0,0.0,0.0,0.0,0.0,0.0,0.0,0.0,1.6647,1.5781,1.484,1.4246,1.422,1.3388,1.3553,0.0,0.0,0.0,0.0,0.0,0.0,0.0,0.0,0.0,0.0,0.0,0.0,0.0,0.0,1.4635,1.3693,1.3664,1.3692,1.3476,0.0,0.0,0.0,0.0,0.0,0.0,0.0,0.0,0.0,0.0,0.0,0.0,0.0,0.0,1.921,0.0,1.9762,0.0,0.0,0.0,0.0,0.0,0.0,0.0,0.0,1.9461,1.9318,1.8806,1.9343,1.9508,0.0,1.9133,1.9141,0.0,0.0,0.0,0.0,0.0,0.0,0.0,0.0,2.1922,2.2257,2.1275,2.0845,2.0943,1.9229,1.7931,1.7089,1.5213,1.3451,1.1859,1.1296,1.0963,0.0,0.0,0.0,0.0,0.0,0.0,0.0,0.0,0.0,0.0,0.0,0.0,0.0,0.0,0.0,0.0,0.0,0.0,0.0,0.0,0.0,0.0,0.0,1.3539,0.0,0.0,0.0,0.0,0.0,0.0,0.0,0.0,0.0,1.759,1.7667,1.7686,1.7267,1.5999,1.4954,1.4434,0.0,0.0,0.0,0.0,0.0,0.0,0.0,1.7953,1.6867,1.7186,1.7508,1.7243,1.7489,1.7573,1.7192,0.0,0.0,1.5831,1.5426,1.5046,1.4237,1.4187,1.3756,1.1952,1.1736,1.1481,0.0,0.0,0.0,0.0,0.0,0.0,0.0,0.0,2.2427,2.2156,0.0,2.2615,0.0,0.0,0.0,0.0,0.0,2.113,0.0,0.0,2.0823,2.0472,1.9927,2.0509,2.051,1.9964,2.047,2.0418,1.985,1.9333,0.0,0.0,0.0,0.0,0.0,0.0,2.2085,2.2257,2.1039,2.0566,2.0943,1.9527,1.8216,1.7057,1.458,1.2812,1.1904,1.1562,1.1242,1.0956,1.0635,0.0,0.0,0.0,0.0,0.0,0.0,0.0,0.0,0.0,0.0,0.0,0.0,0.0,0.0,0.0,0.0,0.0,0.0,0.0,0.0,1.3515,0.0,0.0,0.0,0.0,0.0,0.0,0.0,0.0,0.0,0.0,2.0054,1.9874,1.9815,1.9679,0.0,0.0,0.0,0.0,1.3944,1.3742,1.4913,1.6014,1.6514,1.7825,1.8531,1.7759,0.0,0.0,1.7797,1.852,1.8867,1.7855,1.8103,1.8444,1.8409,1.7797,1.7098,1.6034,1.6026,1.5555,1.3525,1.307,1.2854,2.9457,0.0,0.0,0.0,0.0,2.5553,2.4905,2.4735,2.4611,2.4056,2.3261,2.3424,0.0,0.0,0.0,0.0,0.0,0.0,2.2146,2.2111,2.1657,2.1328,2.1159,2.1352,2.1559,2.178,2.1549,2.1289,2.1069,2.0553,2.0368,2.0533,0.0,0.0,0.0,0.0,2.2085,2.2245,2.1583,2.1149,2.0991,2.0229,1.8826,1.6729,1.5472,1.4198,1.2906,1.265,1.2296,1.1768,1.153,0.0,0.0,0.0,0.0,0.0,0.0,0.0,0.0,0.0,0.0,0.0,0.0,0.0,0.0,0.0,0.0,0.0,0.0,0.0,1.4271,1.4732,1.5222,0.0,0.0,0.0,0.0,0.0,0.0,0.0,0.0,0.0,2.3,2.1901,2.0732,0.0,0.0,1.6496,1.5721,1.4054,1.3363,1.4696,1.5184,0.0,1.7608,1.916,1.9774,1.8596,1.8992,1.9411,1.9202,1.9424,1.955,1.9212,1.9303,1.9393,1.9328,1.8098,1.6848,1.6063,1.5683,1.4949,1.3368,1.3021,1.2756,3.0489,3.0317,2.8973,2.8445,2.8403,2.7505,2.7077,2.7037,2.7052,2.6641,2.5972,2.5972,2.5644,2.5067,2.4544,0.0,0.0,0.0,2.3195,2.3402,2.2712,2.2398,2.2341,2.2566,2.2623,2.2554,2.2198,2.1886,2.1636,2.1312,2.1298,2.1535,0.0,0.0,2.2372,2.2218,2.2166,2.2259,2.169,2.1244,2.0991,2.0116,1.875,1.6886,1.6163,1.5136,1.3675,1.3683,1.3463,1.2922,1.294,1.2749,0.0,0.0,0.0,0.0,0.0,0.0,0.0,0.0,0.0,0.0,0.0,1.6375,1.6497,0.0,0.0,0.0,1.579,1.551,1.5372,1.6144,0.0,0.0,0.0,0.0,0.0,0.0,0.0,2.2852,2.3466,2.4014,2.4751,2.421,2.3257,2.1915,1.9507,1.7739,1.7294,0.0,1.4351,1.5235,1.581,1.6789,1.8598,1.9948,2.057,1.9991,2.0244,2.0446,2.022,2.0194,2.0105,1.9877,1.98,1.9711,1.9422,1.8248,1.7178,1.6576,1.6148,1.5331,1.3636,1.3373,1.3235,3.1526,3.1719,3.0154,2.981,3.0234,2.9651,2.9368,2.9406,2.9368,2.9406,2.9406,2.9406,2.906,2.841,2.7268,0.0,2.657,2.4797,2.4212,2.4603,2.3941,2.3565,2.3486,2.4005,2.373,2.2716,2.2702,2.2431,2.1941,2.1918,2.2202,2.2725,2.2202,2.2272,2.2948,2.2577,2.2346,2.2285,2.1524,2.1087,2.0975,1.9574,1.8338,1.7399,1.6742,1.5721,1.4388,1.4618,1.4619,1.4256,1.4541,1.4709,1.4709,0.0,0.0,0.0,0.0,0.0,0.0,0.0,0.0,0.0,0.0,0.0,0.0,0.0,0.0,0.0,1.5858,0.0,1.6652,1.7733,0.0,0.0,0.0,2.1406,2.2033,2.2706,2.3312,2.3839,0.0,0.0,2.5642,2.6459,2.6492,2.4763,2.1836,1.9784,1.9524,1.7756,1.6288,1.5588,1.6654,1.8062,1.93,2.0181,2.0863,2.1393,2.1675,2.1329,2.0886,2.0777,2.0524,1.9903,1.9799,1.9635,1.8902,1.8492,1.8034,1.746,1.7098,1.6275,1.4365,1.4136,1.4023,3.2248,3.2281,3.1882,3.1175,3.0251,2.9651,2.9406,2.9406,2.9406,2.9406,2.9406,2.9406,2.9294,2.9134,2.8841,2.8408,2.7809,2.6881,2.6198,2.5763,2.5111,2.4768,2.4756,2.4902,2.4827,2.4558,2.4574,2.4225,2.364,2.3604,2.3516,2.3317,2.3516,2.34,2.302,2.2885,2.2667,2.2299,2.2092,2.1676,2.1007,2.0277,1.9258,1.7953,1.7365,1.6693,1.5945,1.5192,1.4943,1.5222,1.4903,1.4709,1.4709,1.4709,0.0,0.0,0.0,0.0,0.0,0.0,0.0,0.0,0.0,1.8179,1.8465,0.0,1.8705,0.0,1.8719,1.9073,1.9225,1.9935,0.0,0.0,2.1434,2.2283,2.3733,2.4519,2.5136,2.5639,2.655,2.705,2.6791,2.6588,2.6304,2.5765,2.3353,2.1417,2.0924,1.8762,1.7027,1.6677,1.7119,1.8037,1.9484,1.9909,2.0483,2.152,2.1344,2.0955,2.0844,2.0797,2.0583,1.9971,1.9799,1.9723,1.9566,1.8817,1.8217,1.7916,1.6915,1.5693,1.4686,1.4567,1.4312,3.1767,3.2208,3.1664,3.0958,3.024,3.062,3.0757,3.0793,3.0793,3.0774,3.0757,3.0757,3.0774,3.072,3.0125,2.9538,2.8886,2.7631,2.6929,2.6746,2.61,2.5988,2.6404,2.6404,2.6285,2.6044,2.6044,2.5655,2.4933,2.4914,2.4689,2.4266,2.4498,2.4366,2.3813,2.3474,2.3145,2.2786,2.2082,2.1477,2.1007,2.0364,1.9521,1.8513,1.8175,1.7633,1.6897,1.6235,1.5925,1.5983,1.5666,1.55,1.55,1.5488,1.5488,0.0,0.0,0.0,0.0,0.0,0.0,0.0,0.0,0.0,0.0,0.0,2.0158,1.9923,2.0502,2.0776,2.0465,2.1817,2.2715,2.2701,2.3714,2.4661,2.5267,2.6211,2.6786,2.6711,2.7253,2.7575,2.7359,2.7267,2.711,2.6971,2.5022,2.32,2.1915,1.9795,1.8216,1.8215,1.8238,1.8882,2.0512,2.1045,2.1445,2.2064,2.1997,2.168,2.1415,2.1338,2.0988,2.007,1.9957,1.997,1.9761,1.9118,1.8473,1.8087,1.7405,1.6382,1.5309,1.5096,1.479,3.0892,3.1791,3.0725,3.0275,3.0381,3.1777,3.228,3.2183,3.2183,3.2183,3.2183,3.22,3.2183,3.2114,3.0905,3.0109,2.9578,2.7841,2.7187,2.7521,2.696,2.7104,2.7897,2.7936,2.7691,2.7263,2.7248,2.6842,2.6116,2.6027,2.5775,2.5379,2.5376,2.5253,2.4936,2.4281,2.3683,2.3152,2.1772,2.1039,2.091,2.0174,1.9533,1.9024,1.893,1.8458,1.7544,1.7435,1.7146,1.6637,1.6595,1.6573,1.6522,1.6513,1.6505,0.0,1.6506,0.0,0.0,0.0,0.0,0.0,0.0,0.0,0.0,2.1471,2.1784,2.1269,2.1877,2.2103,2.1535,2.3647,2.4861,2.4429,2.6207,2.7252,2.6772,2.7622,2.8019,2.7313,2.7774,2.7996,2.7639,2.801,2.8202,2.7751,2.6333,2.4679,2.3049,2.1046,1.9789,2.005,1.9789,2.0109,2.1291,2.2183,2.2604,2.2784,2.2742,2.2675,2.2037,2.1981,2.1576,2.0395,2.0283,2.0315,1.9909,1.9398,1.8814,1.8349,1.81,1.7538,1.6378,1.6024,1.5696,3.1292,3.1503,3.1256,3.1144,3.118,3.1472,3.1207,3.0563,3.0547,3.0563,3.0547,3.0547,3.0563,3.0529,3.0274,2.9788,2.9127,2.8751,2.8294,2.7827,2.7698,2.7733,2.7894,2.8058,2.8092,2.7995,2.8009,2.7906,2.7725,2.7257,2.6738,2.6268,2.6352,2.6214,2.5783,0.0,0.0,0.0,2.1632,2.1166,2.0466,2.0263,2.0,1.9551,1.9132,0.0,1.8593,1.819,1.7706,1.7188,1.7146,0.0,0.0,0.0,0.0,0.0,0.0,0.0,0.0,0.0,0.0,0.0,2.3321,2.3406,2.3422,2.3603,2.3512,2.3003,2.392,2.4593,2.4643,2.5938,2.6975,2.745,2.7412,2.7476,2.7874,2.8068,2.7961,2.7513,2.7979,2.8213,2.7894,2.7933,2.797,2.7837,2.65,2.5282,2.4526,2.2694,2.1521,2.1499,2.1136,2.0889,2.0676,2.1157,2.176,2.2012,2.2186,2.2153,2.2036,2.2018,2.1878,2.1169,2.0961,2.0805,2.0483,1.9915,1.9346,1.8855,1.8424,1.7993,1.7679,1.7639,1.7342,3.0448,0.0,3.0375,3.021,0.0,3.021,2.9982,2.962,3.0422,3.0807,3.0952,3.0934,3.0952,3.0916,3.0521,2.9981,2.9283,2.888,2.8504,2.8161,2.8156,2.8324,2.8634,2.8752,2.8828,2.8941,2.8952,2.8798,2.8494,2.819,2.7741,2.7199,2.7269,2.7066,2.6623,2.5682,2.4182,2.2171,2.1594,2.0975,2.0331,2.0106,1.9927,1.9708,1.9442,0.0,0.0,0.0,0.0,0.0,0.0,0.0,0.0,0.0,0.0,1.8509,1.8342,1.92,2.1419,2.2132,2.3069,2.4569,2.5336,2.5439,2.4767,2.4699,2.4749,2.4847,2.5694,2.6278,2.6456,2.7588,2.8356,2.8405,2.8311,2.8236,2.8196,2.8234,2.8028,2.7537,2.7856,2.8129,2.8142,2.828,2.8236,2.7979,2.6948,2.5902,2.5182,2.3549,2.2247,2.2021,2.142,2.1117,2.1293,2.1461,2.1697,2.2076,2.2142,2.2142,2.2142,2.2158,2.2077,2.1852,2.1547,2.1246,2.1021,2.061,2.0215,1.9956,1.9534,1.9207,1.9152,1.8608,1.7966,2.9592,3.0118,2.9335,2.8987,2.8987,2.9062,2.91,2.9219,0.0,0.0,0.0,3.144,3.1422,3.1374,3.0708,3.009,2.953,2.8824,2.8515,2.8515,2.8496,2.8814,2.9402,2.9434,2.957,2.9756,2.9765,2.9486,2.8972,2.8842,2.8518,2.8034,2.794,2.771,2.7203,2.5631,2.4147,2.2817,2.1649,2.0725,2.0058,1.9806,1.9639,1.9566,1.9639,1.9479,1.9091,1.9642,1.9748,1.9271,1.92,1.9163,1.9057,1.8049,1.8158,1.9732,1.9503,2.0529,2.3301,2.396,2.478,2.6126,2.6952,2.687,2.5658,2.5566,2.5835,2.6409,2.7009,2.7437,2.7546,2.8731,2.9232,2.8584,2.8907,2.8887,2.8253,2.8168,2.798,2.7622,2.7811,2.8143,2.8529,2.8759,2.8706,2.821,2.7569,2.6697,2.5612,2.3945,2.2561,2.218,2.1568,2.1271,2.1884,2.2194,2.2282,2.2276,2.2341,2.236,2.2391,2.2415,2.2442,2.2471,2.2086,2.1784,2.1562,2.1262,2.1086,2.1007,2.0699,2.0399,2.0213,1.9353,1.854,3.0099,3.0136,2.9335,2.8987,2.9017,2.9235,2.9454,2.9617,2.9666,2.9791,2.9991,2.9991,3.001,2.9973,2.9708,2.9529,2.9408,2.9081,2.8917,2.8917,2.8917,2.9082,2.9412,2.957,2.9773,2.9947,2.9962,2.9818,2.9551,2.9058,2.8646,2.8324,2.8065,2.7692,2.7203,2.5631,2.4256,2.3134,2.1911,2.0551,1.9136,1.9497,1.946,1.9043,1.946,1.9675,1.9617,2.0021,2.011,1.9809,1.9639,1.942,1.9086,1.8432,1.8564,1.9755,1.9835,2.1054,2.3867,2.4145,2.5033,2.6915,2.756,2.7589,2.7065,2.7001,2.6995,2.7021,2.7511,2.7833,2.8127,2.9299,2.978,2.9059,2.8981,2.886,2.8408,2.7848,2.7729,2.817,2.8303,2.8578,2.9115,2.9264,2.9061,2.8528,2.8137,2.7683,2.6195,2.4348,2.3019,2.2481,2.2198,2.1956,2.1915,2.2046,2.2282,2.2313,2.2487,2.2625,2.2652,2.2827,2.2982,2.3054,2.2712,2.2422,2.2062,2.1746,2.1444,2.1181,2.0975,2.0797,2.0483,2.0078,1.9785,3.021,3.0099,2.9335,2.8987,2.9028,2.9278,2.957,2.9845,2.9763,2.979,2.9861,2.9869,2.9861,2.9853,2.9763,2.9607,2.9373,2.9278,2.9145,2.9017,2.8987,2.9214,2.9542,2.9661,2.988,3.0196,3.0215,3.0044,2.9686,2.942,2.9084,2.8719,2.8188,2.7675,2.7118,2.5743,2.4446,2.3317,2.1689,2.0228,1.8945,1.8855,1.8869,1.8893,1.9151,1.9518,2.0032,2.0564,2.0905,2.1033,2.0956,2.0834,2.0656,1.9871,1.9948,2.114,2.1087,2.2104,2.4585,2.5471,2.6461,2.778,2.821,2.8322,2.8129,2.7798,2.794,2.868,2.8985,2.9331,2.9833,3.0802,3.0942,2.9728,2.9624,2.9376,2.8784,2.8235,2.8094,2.8554,2.8819,2.9097,2.9504,2.9652,2.9435,2.8768,2.8439,2.7907,2.7222,2.5639,2.4163,2.3444,2.2762,2.2326,2.2184,2.2229,2.236,2.2473,2.2595,2.2772,2.2923,2.3129,2.3189,2.3189,2.3069,2.2843,2.2491,2.232,2.206,2.1796,2.1461,2.1244,2.1039,2.0666,2.0085,3.0733,3.0494,2.969,2.9281,2.9192,2.9425,2.9748,3.0095,3.0089,3.0089,3.0089,3.0089,3.0089,3.0082,3.0028,2.9829,2.9542,2.9434,2.9289,2.91,2.9089,2.9322,2.9678,2.9729,2.9958,3.0286,3.0292,3.0066,2.967,2.9644,2.9368,2.8845,2.8129,2.7507,2.6957,2.5793,2.4562,2.3198,2.148,2.005,1.9003,1.8651,1.8631,1.8902,1.9051,1.9531,2.0476,2.1006,2.1542,2.217,2.2194,2.2199,2.2195,2.1535,2.1546,2.2435,2.2493,2.331,2.5322,2.6689,2.7704,2.8337,2.8735,2.8924,2.8901,2.8561,2.8865,3.0105,3.0312,3.055,3.1016,3.1781,3.1606,2.9905,2.9814,2.9588,2.9034,2.8679,2.864,2.895,2.9297,2.9551,2.9748,2.9901,2.978,2.9302,2.8531,2.8116,2.8162,2.7122,2.5946,2.4712,2.3462,2.2623,2.2685,2.2477,2.244,2.266,2.2754,2.2984,2.3212,2.3369,2.3444,2.3477,2.338,2.3236,2.2984,2.2759,2.2595,2.2337,2.2027,2.1718,2.1521,2.0991,2.0212,3.2315,3.1581,3.0772,3.013,2.9727,2.9891,3.0152,3.0362,3.0361,3.038,3.0342,3.0361,3.0342,3.0323,3.0122,2.9965,2.9882,2.9561,2.9392,2.9372,2.9361,2.9484,2.9722,2.9885,2.9991,3.0054,3.0042,2.9864,2.9445,2.9414,2.9093,2.8446,2.7718,2.7093,2.6522,2.5662,2.4355,2.2615,2.1456,2.0269,1.9196,1.9444,1.9472,1.9113,1.945,2.0122,2.1177,2.1077,2.1661,2.2832,2.2802,2.2769,2.2992,2.2955,2.2986,2.3088,2.3644,2.4695,2.6253,2.7293,2.8006,2.8394,2.8997,2.9334,2.9355,2.9457,2.987,3.0642,3.0833,3.0789,3.0726,3.1387,3.0937,2.8955,2.8998,2.9012,2.8931,2.88,2.8964,2.957,2.9633,2.9738,2.9939,3.0009,3.0107,3.0177,2.9147,2.8639,2.9156,2.882,2.7819,2.6323,2.4579,2.3224,2.2845,2.2473,2.249,2.2686,2.296,2.3236,2.3544,2.3858,2.4084,2.3896,2.3816,2.3639,2.3473,2.3165,2.2721,2.2612,2.2364,2.2075,2.1688,2.1244,2.0632,3.3055,3.2671,3.1872,3.1495,3.1437,3.1524,3.1388,3.1173,3.1173,3.0918,3.0472,3.0457,3.0449,3.0404,3.0317,3.0196,2.998,2.9829,2.9687,2.9598,2.957,2.9678,2.9877,2.9962,2.9999,2.9999,2.9999,2.9788,2.9395,2.9016,2.8566,2.8084,2.7542,2.6902,2.613,2.5496,2.4345,2.2651,2.1798,2.0799,1.9768,1.9476,1.9456,1.9641,2.0428,2.1333,2.2289,2.2753,2.3393,2.4214,2.4347,2.4456,2.4575,2.4757,2.4853,2.4855,2.5495,2.6183,2.6812,2.7691,2.8415,2.8959,2.9367,2.9635,2.9746,2.9966,3.0478,3.1226,3.112,3.1033,3.1478,3.1767,3.1321,3.0068,2.9968,2.9898,2.9377,2.9323,2.9495,2.9829,2.9885,2.9981,3.0177,3.0277,3.039,3.0552,2.9953,2.9824,3.0204,2.9721,2.8724,2.742,2.573,2.4308,2.3403,2.2853,2.276,2.2928,2.3105,2.3346,2.3837,2.4074,2.419,2.419,2.4054,2.3959,2.3988,2.3452,2.296,2.2764,2.2473,2.2149,2.1688,2.1476,2.1102,3.3695,3.3402,3.2634,3.2425,3.26,3.2672,3.2433,3.2064,3.2073,3.1616,3.091,3.0894,3.0885,3.083,3.0864,3.0743,3.0534,3.0432,3.0333,3.0159,2.9926,2.9861,2.9999,3.0082,3.0068,2.998,2.9939,2.9641,2.9137,2.8572,2.8088,2.7722,2.735,2.664,2.5702,2.5341,2.4379,2.2793,2.2053,2.122,2.0306,1.9787,1.9758,2.0243,2.1328,2.2405,2.3468,2.4078,2.4785,2.5527,2.5835,2.5989,2.5958,2.6359,2.6573,2.6577,2.7016,2.7357,2.7461,2.8058,2.8694,2.9314,2.9589,2.9799,3.0037,3.0471,3.1055,3.1613,3.1418,3.1459,3.1895,3.1954,3.1562,3.0798,3.0607,3.0335,2.9883,2.9831,2.992,3.0126,3.02,3.0225,3.0413,3.0494,3.0565,3.0634,3.0672,3.0721,3.0754,3.015,2.9362,2.8346,2.709,2.5613,2.3938,2.3053,2.294,2.2965,2.3045,2.3259,2.3896,2.4026,2.4064,2.3976,2.4044,2.3953,2.3721,2.3318,2.296,2.2665,2.2409,2.2209,2.1928,2.1809,2.1613,3.4552,3.3737,3.2947,3.2687,3.2646,3.2889,3.2897,3.2865,3.2981,3.2536,3.1835,3.187,3.1891,3.1851,3.1896,3.1851,3.1776,3.1559,3.1426,3.132,3.0475,3.0025,3.0021,3.0254,3.0254,3.0002,2.9845,2.9333,2.8511,2.8129,2.7707,2.7332,2.6988,2.6264,2.5433,2.5281,2.4384,2.2921,2.2156,2.1421,2.0864,2.0752,2.0795,2.0976,2.1893,2.3138,2.4336,2.4472,2.516,2.6689,2.6948,2.6968,2.6877,2.7622,2.7981,2.7812,2.7858,2.8002,2.8241,2.8376,2.8706,2.9293,2.9589,2.9817,3.0159,3.1039,3.166,3.1818,3.1895,3.1864,3.1777,3.1584,3.1085,3.0247,2.9891,2.9966,3.017,3.0181,3.0293,3.0486,3.0519,3.051,3.0568,3.0597,3.0641,3.0687,3.0696,3.0717,3.0693,3.0577,3.003,2.9242,2.8358,2.7219,2.4301,2.3259,2.2906,2.2665,2.2712,2.2875,2.3369,2.3732,2.3703,2.3732,2.3732,2.3595,2.3294,2.2989,2.2691,2.2473,2.2388,2.2194,2.2106,2.224,2.2049,3.5177,3.4858,3.459,3.4455,3.4462,3.4537,3.4257,3.3757,3.3837,3.3434,3.281,3.2797,3.285,3.2896,3.3443,3.334,3.2761,3.2636,3.259,3.2489,3.1624,3.121,3.1167,3.0728,3.0356,3.0126,2.9953,2.9448,2.8699,2.8358,2.789,2.7378,2.7162,2.6607,2.5872,2.5707,2.5038,2.3749,2.312,2.2352,2.1527,2.1758,2.1974,2.2002,2.3014,2.4143,2.5331,2.6163,2.7101,2.8052,2.837,2.8606,2.8672,2.8977,2.8938,2.8555,2.8718,2.8724,2.8484,2.8627,2.8962,2.9343,2.9589,3.0053,3.0741,3.1441,3.2018,3.255,3.2744,3.276,3.251,3.1673,3.097,3.1066,3.0612,3.0289,3.0423,3.0447,3.0497,3.058,3.0546,3.0544,3.0604,3.061,3.0672,3.0795,3.0767,3.0716,3.0682,3.0617,3.0219,2.9399,2.8741,2.7759,2.5723,2.4135,2.3267,2.2515,2.2228,2.2373,2.2735,2.2963,2.2987,2.3537,2.3548,2.3112,2.2758,2.2707,2.2415,2.2402,2.2313,2.2313,2.2313,2.2313,2.224,3.5515,3.5522,3.5528,3.5528,3.5528,3.5528,3.5206,3.4671,3.471,3.4338,3.3763,3.3722,3.3767,3.3884,3.439,3.4492,3.3991,3.3762,3.3656,3.3575,3.2734,3.2174,3.1831,3.1254,3.0711,3.0318,3.008,2.9593,2.892,2.8895,2.856,2.7927,2.7985,2.7689,2.7019,2.6783,2.6252,2.5497,2.4922,2.4139,2.3209,2.329,2.3319,2.3256,2.4096,2.515,2.6184,2.7407,2.8345,2.892,2.9307,2.9589,2.9782,2.9739,2.9523,2.9192,2.9339,2.9289,2.8927,2.9023,2.9235,2.9465,2.9644,3.0166,3.1184,3.1852,3.263,3.3315,3.3663,3.3751,3.3505,3.2433,3.1657,3.1809,3.1145,3.0637,3.0638,3.0638,3.0639,3.0636,3.0583,3.0566,3.0623,3.0642,3.0722,3.0859,3.0772,3.0714,3.0665,3.0562,3.0322,2.9673,2.9086,2.8362,2.6863,2.5403,2.371,2.2792,2.1706,2.1828,2.197,2.2163,2.2468,2.3119,2.3119,2.2604,2.235,2.2304,2.2293,2.2262,2.2313,2.2313,2.2313,2.2313,2.2254,3.554,3.5579,3.5581,3.5585,3.5585,3.5574,3.5576,3.5514,3.5578,3.5171,3.4626,3.4664,3.4665,3.4643,3.4737,3.5004,3.5292,3.4844,3.4574,3.4492,3.3652,3.2825,3.2172,3.2005,3.1524,3.0746,3.0286,2.9739,2.924,2.9745,2.9762,2.9297,2.9435,2.9225,2.883,2.8347,2.817,2.7841,2.73,2.6681,2.6044,2.5517,2.5046,2.461,2.538,2.6336,2.7217,2.7984,2.867,2.9275,2.9551,2.978,2.9947,2.9872,2.9703,2.9658,2.9677,2.9677,2.9615,2.9465,2.9465,2.9626,2.9734,3.0324,3.136,3.2451,3.3441,3.4171,3.4474,3.461,3.448,3.3773,3.288,3.2086,3.1239,3.0821,3.0698,3.0696,3.0696,3.0693,3.0628,3.0645,3.068,3.0675,3.0726,3.084,3.0788,3.0675,3.0625,3.0545,3.0471,3.0194,2.9521,2.8655,2.7694,2.656,2.4705,2.3029,2.1795,2.1183,2.1303,2.148,2.16,2.2097,2.2087,2.164,2.1795,2.1795,2.1989,2.2034,2.2137,2.2282,2.2313,2.2313,2.2313,3.5515,3.5522,3.5528,3.5556,3.559,3.5558,3.5582,3.5675,3.5696,3.5613,3.5515,3.5563,3.5542,3.55,3.5492,3.5558,3.5678,3.5446,3.5404,3.5306,3.4569,3.4042,3.3719,3.315,3.2679,3.2356,3.2014,3.1736,3.1473,3.1468,3.1229,3.0752,3.0726,3.0267,2.9556,2.9538,2.9567,2.9393,2.9153,2.8789,2.8353,2.8032,2.7742,2.7624,2.828,2.9031,2.9615,2.8892,2.8767,2.9401,2.9598,2.9872,3.0169,3.0221,3.0095,2.9931,2.9889,2.9829,2.9703,2.9634,2.957,2.9683,3.0267,3.1094,3.1933,3.3103,3.4216,3.5015,3.5282,3.5352,3.5238,3.4645,3.3579,3.2178,3.1719,3.128,3.0791,3.0701,3.0669,3.0633,3.0571,3.0565,3.0623,3.0643,3.0705,3.0859,3.0756,3.063,3.0597,3.0494,3.0344,3.0123,2.9492,2.8838,2.7844,2.6653,2.5045,2.337,2.2037,2.0898,2.0887,2.0653,2.0814,2.0863,2.0831,2.0973,2.1117,2.1384,2.1613,2.1869,2.2032,2.2166,2.2268,2.2313,2.2313,3.5521,3.5521,3.5568,3.5586,3.5644,3.5636,3.5698,3.5783,3.5769,3.5845,3.5924,3.5975,3.5972,3.5907,3.5845,3.5755,3.5675,3.5667,3.5719,3.5773,3.5369,3.4965,3.4629,3.3738,3.3256,3.3169,3.2975,3.2841,3.2778,3.2812,3.2579,3.2239,3.2254,3.2007,3.1278,3.1379,3.1452,3.149,3.1543,3.1286,3.0863,3.0633,3.0265,2.9854,3.0244,3.0648,3.0821,2.9961,2.9765,3.0182,3.0302,3.0342,3.0412,3.0398,3.0342,3.0234,3.0151,3.0103,2.9982,2.9818,2.984,3.0049,3.0649,3.1495,3.2383,3.352,3.4319,3.5213,3.5444,3.5566,3.5527,3.497,3.4004,3.3003,3.227,3.1623,3.0877,3.0663,3.0653,3.0601,3.057,3.0587,3.0623,3.0648,3.07,3.082,3.0723,3.0606,3.0565,3.038,3.0177,2.9815,2.9172,2.8546,2.7901,2.668,2.5276,2.3774,2.2319,2.1285,2.0704,2.0051,1.9834,1.9826,1.9784,2.0192,2.042,2.1023,2.1385,2.1645,2.1913,2.2166,2.2313,2.2313,2.2299,3.554,3.5611,3.5652,3.5686,3.5707,3.5819,3.5869,3.5905,3.588,3.5921,3.5976,3.5996,3.5972,3.588,3.5802,3.5693,3.5626,3.5636,3.5667,3.5752,3.5706,3.5472,3.4843,3.4099,3.3728,3.3574,3.3502,3.3358,3.339,3.3755,3.3896,3.367,3.3762,3.3891,3.34,3.3502,3.3336,3.3479,3.3867,3.3599,3.3109,3.3052,3.2464,3.1219,3.1421,3.151,3.137,3.142,3.1519,3.1651,3.1249,3.086,3.0509,3.0404,3.0422,3.0429,3.043,3.0422,3.0339,3.0087,3.0084,3.0687,3.0903,3.1312,3.2729,3.3437,3.4128,3.5029,3.5199,3.5329,3.5396,3.4891,3.4307,3.3906,3.2539,3.1501,3.0707,3.0513,3.0484,3.0527,3.0579,3.0589,3.0623,3.0666,3.0737,3.0779,3.0685,3.0603,3.0517,3.032,3.0018,2.9568,2.9045,2.8452,2.7888,2.6943,2.5577,2.4346,2.29,2.1807,2.0709,1.9912,1.9369,1.9273,1.9174,1.9501,1.9961,2.0634,2.1118,2.1384,2.1735,2.2137,2.2313,2.2313,2.2282,3.5508,3.5534,3.5605,3.5655,3.5703,3.5729,3.5855,3.5951,3.5914,3.5925,3.5996,3.6016,3.5972,3.5884,3.5871,3.5789,3.5705,3.5667,3.5736,3.5838,3.5875,3.5809,3.5605,3.5338,3.5093,3.4987,3.4833,3.4961,3.4946,3.4928,3.4909,3.4762,3.4489,3.4015,3.3336,3.324,3.322,3.3313,3.3827,3.4308,3.4572,3.4512,3.4321,3.3847,3.3478,3.3241,3.3048,3.3111,3.2433,3.1221,3.1072,3.0825,3.0496,3.0423,3.0414,3.0467,3.0491,3.0472,3.0448,3.0364,3.0502,3.0918,3.1534,3.2279,3.2911,3.3832,3.451,3.5034,3.5133,3.5235,3.5322,3.4755,3.3768,3.2321,3.1723,3.1138,3.0301,3.0006,3.0077,3.0252,3.022,3.0307,3.0484,3.0559,3.0591,3.065,3.0594,3.0521,3.0427,3.0175,2.9848,2.9605,2.9134,2.8506,2.7826,2.6974,2.5966,2.4839,2.36,2.2426,2.1293,2.0227,1.9811,1.9556,1.9284,1.945,1.9912,2.0481,2.0813,2.126,2.1781,2.224,2.2282,2.2313,2.2313,3.55,3.5508,3.5596,3.5652,3.5713,3.5795,3.5901,3.5975,3.5971,3.5971,3.5996,3.6016,3.5976,3.5945,3.5911,3.5869,3.5777,3.5775,3.5834,3.59,3.5939,3.5919,3.589,3.5882,3.5836,3.5717,3.5655,3.5633,3.5599,3.5483,3.5206,3.4821,3.4566,3.3813,3.2791,3.285,3.29,3.2929,3.3522,3.427,3.4921,3.5108,3.4988,3.4765,3.44,3.4062,3.3823,3.3807,3.3179,3.2151,3.1638,3.1273,3.0957,3.0558,3.0439,3.0485,3.0472,3.0433,3.0432,3.0543,3.0871,3.1318,3.2107,3.2737,3.3294,3.4002,3.445,3.4675,3.4841,3.5062,3.512,3.4549,3.2947,3.1078,3.0826,3.0673,2.9839,2.9813,2.9869,2.9955,3.0005,3.0066,3.0364,3.0389,3.0464,3.0532,3.0478,3.0404,3.0311,2.9985,2.9667,2.9382,2.9098,2.8524,2.7946,2.7192,2.6406,2.5319,2.3963,2.2834,2.1682,2.0555,2.0047,1.969,1.945,1.9465,1.9995,2.0483,2.0943,2.1431,2.193,2.2223,2.2296,2.2313,2.2313,3.55,3.5527,3.5639,3.5712,3.5713,3.5901,3.5974,3.5995,3.5976,3.5996,3.6016,3.6016,3.5996,3.5976,3.5946,3.591,3.591,3.591,3.5896,3.5929,3.5918,3.5898,3.5854,3.5892,3.5817,3.5713,3.57,3.5658,3.5557,3.5329,3.4932,3.4531,3.4152,3.3419,3.2645,3.2504,3.2553,3.2748,3.3367,3.4097,3.4717,3.5023,3.5063,3.4767,3.4333,3.4043,3.3855,3.3797,3.3617,3.3471,3.2693,3.2096,3.1687,3.0885,3.0541,3.0453,3.0353,3.0232,3.0286,3.0581,3.1061,3.1641,3.2213,3.2847,3.3396,3.3715,3.3986,3.4151,3.4445,3.4594,3.4409,3.3971,3.2402,3.0387,3.0178,3.0161,2.9831,2.9699,2.9722,2.9752,2.9805,2.9969,3.0137,3.0255,3.0293,3.0244,3.0173,3.0062,2.9942,2.9696,2.9382,2.9098,2.8805,2.8504,2.7972,2.7428,2.6674,2.5761,2.4261,2.3003,2.1851,2.0862,2.023,1.9851,2.0069,2.0144,2.0217,2.0685,2.1165,2.1507,2.1943,2.2175,2.2332,2.231,2.2313,3.55,3.5501,3.5585,3.5631,3.5653,3.5834,3.5916,3.5917,3.5975,3.5996,3.5996,3.5996,3.6016,3.6016,3.5976,3.5975,3.5956,3.5976,3.5957,3.5903,3.5806,3.5766,3.5772,3.5839,3.5823,3.572,3.5642,3.5543,3.5403,3.5206,3.481,3.4229,3.3771,3.3222,3.2422,3.2095,3.2177,3.2552,3.3216,3.3963,3.4641,3.5009,3.5043,3.4727,3.4206,3.3915,3.3834,3.3807,3.3887,3.3824,3.3431,3.2718,3.1992,3.1565,3.1168,3.0672,3.0164,3.0068,3.0396,3.0349,3.0523,3.1538,3.2042,3.2483,3.2764,3.3433,3.3675,3.383,3.4042,3.391,3.3138,3.2731,3.159,3.0199,2.9776,2.9823,2.9512,2.9326,2.9331,2.942,2.9514,2.9594,2.9801,2.9844,2.9874,2.9905,2.9798,2.9649,2.9457,2.9275,2.8975,2.8621,2.8463,2.8192,2.7928,2.7246,2.6295,2.562,2.4353,2.3583,2.2428,2.1608,2.1127,2.0943,2.0952,2.0924,2.0734,2.1006,2.1476,2.1718,2.1969,2.2226,2.2426,2.2377,2.2398,3.55,3.552,3.5585,3.5611,3.5621,3.5752,3.5805,3.5838,3.5917,3.5949,3.5951,3.5975,3.6016,3.6016,3.5996,3.5976,3.5948,3.5895,3.5838,3.5805,3.5746,3.571,3.5697,3.575,3.5761,3.5689,3.5641,3.5543,3.54,3.5103,3.4641,3.4019,3.3463,3.2691,3.2053,3.1795,3.1912,3.2424,3.3096,3.3823,3.4428,3.48,3.4735,3.4411,3.3994,3.3807,3.3807,3.3807,3.3948,3.4047,3.3919,3.3497,3.2764,3.2297,3.1846,3.145,3.0855,3.0396,3.0418,3.0381,3.0516,3.1046,3.1627,3.2125,3.244,3.2981,3.3115,3.3219,3.3436,3.3417,3.2185,3.1732,3.0922,3.0011,2.9643,2.9616,2.9424,2.9267,2.9167,2.9214,2.9235,2.9355,2.9465,2.9504,2.9458,2.9465,2.9279,2.9109,2.8613,2.8427,2.8283,2.8058,2.8018,2.7887,2.7749,2.7001,2.5763,2.5026,2.4194,2.388,2.3459,2.2793,2.2231,2.1996,2.1718,2.1405,2.129,2.1568,2.1733,2.1986,2.2231,2.2419,2.255,2.2563,2.2656,3.5424,3.5391,3.5451,3.5448,3.5477,3.5519,3.5545,3.5566,3.573,3.5773,3.583,3.5906,3.5937,3.5957,3.5937,3.5902,3.5851,3.5749,3.5689,3.5682,3.5659,3.5642,3.5659,3.5655,3.5688,3.5676,3.564,3.5587,3.5415,3.5097,3.4628,3.399,3.3264,3.2739,3.2063,3.1824,3.215,3.276,3.3459,3.393,3.4297,3.4598,3.4448,3.3981,3.385,3.3807,3.3834,3.385,3.3961,3.4135,3.423,3.4126,3.3743,3.3143,3.2444,3.2324,3.1485,3.084,3.0316,3.0317,3.0386,3.0365,3.1042,3.1689,3.2126,3.2434,3.2533,3.2636,3.2805,3.2823,3.1793,3.1283,3.0517,2.9738,2.9588,2.9607,2.9474,2.9404,2.9332,2.9067,2.9085,2.9189,2.9206,2.9222,2.9111,2.8995,2.8801,2.8464,2.7955,2.7639,2.7505,2.7315,2.7207,2.6809,2.662,2.6398,2.5194,2.4425,2.3757,2.3842,2.3886,2.3374,2.2724,2.2628,2.2355,2.1969,2.1718,2.1809,2.2001,2.2265,2.2453,2.2612,2.2725,2.2797,2.2944,3.5044,3.4841,3.4832,3.4851,3.485,3.4912,3.4921,3.5007,3.524,3.5387,3.54,3.5652,3.5727,3.575,3.5769,3.5755,3.5707,3.5646,3.5602,3.5601,3.5577,3.5558,3.555,3.5562,3.5576,3.5609,3.558,3.5507,3.5403,3.5169,3.4757,3.4207,3.3856,3.3437,3.3138,3.3117,3.3243,3.3658,3.4202,3.453,3.4599,3.4577,3.4443,3.3902,3.3855,3.3868,3.3908,3.4006,3.4037,3.3923,3.4353,3.4352,3.3992,3.346,3.2782,3.2027,3.1292,3.0739,3.0311,2.9744,2.9878,3.0249,3.0709,3.1048,3.1493,3.2021,3.2126,3.1966,3.1931,3.1836,3.1075,3.066,3.0253,2.9726,2.9643,2.9773,2.9523,2.9493,2.9425,2.906,2.9028,2.8982,2.895,2.8855,2.8658,2.8464,2.8247,2.772,2.708,2.6879,2.6818,2.6556,2.6285,2.5799,2.5331,2.5146,2.4553,2.3806,2.3329,2.3421,2.3426,2.3357,2.311,2.298,2.2703,2.232,2.2155,2.2144,2.2295,2.2554,2.2691,2.2797,2.3028,2.3247,2.3457,3.4451,3.433,3.4071,3.3983,3.3969,3.4012,3.4011,3.4089,3.449,3.4684,3.481,3.5089,3.5374,3.5459,3.5491,3.5549,3.5611,3.5582,3.5558,3.554,3.5502,3.55,3.55,3.55,3.5509,3.5507,3.5435,3.5402,3.5409,3.528,3.4947,3.4647,3.4288,3.4014,3.4002,3.3956,3.4231,3.4622,3.4931,3.4984,3.4773,3.4526,3.4141,3.4092,3.4018,3.4093,3.4255,3.4147,3.4147,3.4068,3.416,3.4012,3.3725,3.3403,3.3062,3.2443,3.1642,3.0919,3.0455,2.9818,2.9534,2.9756,3.0063,3.0332,3.0767,3.1285,3.1616,3.122,3.0328,3.0172,3.0125,2.9881,2.9602,2.9544,2.9643,2.9624,2.9494,2.9485,2.9293,2.9048,2.9021,2.8887,2.8645,2.8484,2.8219,2.796,2.7704,2.7092,2.6353,2.6145,2.6127,2.5609,2.5243,2.4574,2.4106,2.3949,2.3779,2.314,2.288,2.2979,2.3088,2.3052,2.3203,2.326,2.295,2.2526,2.2567,2.2556,2.2712,2.2815,2.286,2.2991,2.3408,2.3706,2.3907,3.3864,3.3659,3.3291,3.3131,3.3131,3.3131,3.3149,3.325,3.3669,3.3858,3.3915,3.4337,3.473,3.4988,3.5149,3.5283,3.5481,3.5442,3.5441,3.5501,3.5488,3.55,3.55,3.55,3.5494,3.5468,3.527,3.5245,3.5359,3.5203,3.5082,3.4842,3.4374,3.4347,3.4633,3.4584,3.4896,3.5174,3.5407,3.5289,3.4808,3.4319,3.4074,3.4277,3.4311,3.4412,3.4572,3.4464,3.4281,3.4135,3.3937,3.363,3.3258,3.3029,3.2955,3.2892,3.221,3.1484,3.054,2.9917,2.9333,2.9232,2.9361,2.9739,3.0227,3.0723,3.0878,3.0384,2.9434,2.8841,2.9223,2.8913,2.8821,2.8979,2.9169,2.9323,2.9214,2.9169,2.9169,2.903,2.901,2.8797,2.8527,2.825,2.8002,2.7599,2.7363,2.692,2.6195,2.564,2.5371,2.4703,2.4093,2.3338,2.2931,2.2785,2.2641,2.2372,2.2347,2.2534,2.2686,2.2825,2.2997,2.3089,2.3019,2.2678,2.2807,2.2911,2.294,2.2977,2.2979,2.327,2.3816,2.4118,2.4282,3.3474,3.2676,3.2627,3.2595,3.2559,3.2559,3.2593,3.2622,3.2921,3.3045,3.3061,3.3397,3.3766,3.4162,3.4614,3.4895,3.5075,3.516,3.5246,3.5405,3.5453,3.546,3.55,3.55,3.55,3.542,3.5207,3.517,3.5181,3.4995,3.4878,3.4779,3.4768,3.4795,3.4955,3.4969,3.5256,3.5492,3.5566,3.5399,3.5059,3.4707,3.4605,3.4617,3.4665,3.4696,3.4756,3.4656,3.4478,3.4157,3.3825,3.3497,3.3115,3.2383,3.1738,3.1522,3.137,3.1157,2.9935,2.9435,2.9111,2.8919,2.9111,2.9673,3.0182,3.0202,3.018,3.0148,2.9007,2.8396,2.8434,2.8229,2.8095,2.8196,2.8438,2.8549,2.8542,2.8724,2.8754,2.8796,2.8682,2.857,2.8355,2.8088,2.7794,2.7378,2.6971,2.6556,2.6053,2.5475,2.489,2.4319,2.3437,2.2642,2.212,2.1933,2.1811,2.1613,2.189,2.2161,2.2422,2.2608,2.2541,2.2617,2.2677,2.3003,2.3291,2.3335,2.3206,2.3287,2.3513,2.389,2.4328,2.4522,2.4644,3.3695,3.2773,3.2483,3.213,3.1785,3.1768,3.175,3.1825,3.2143,3.2276,3.2359,3.2675,3.3045,3.3463,3.3997,3.4366,3.4502,3.4727,3.5027,3.5195,3.5262,3.5354,3.5467,3.55,3.55,3.535,3.5094,3.4879,3.4848,3.4801,3.474,3.4735,3.476,3.4848,3.5057,3.5108,3.5295,3.5427,3.5386,3.5259,3.5109,3.4941,3.485,3.5009,3.5012,3.5051,3.5054,3.4823,3.4505,3.4102,3.3658,3.3031,3.2514,3.1969,3.1497,3.0664,3.0798,3.0431,2.9569,2.9088,2.8732,2.8732,2.9065,2.9821,3.0344,3.0005,2.9499,2.9467,2.8236,2.7653,2.7728,2.7648,2.7751,2.7819,2.7731,2.7921,2.8004,2.8161,2.8272,2.8329,2.8373,2.8237,2.8156,2.8006,2.7634,2.7115,2.6824,2.6539,2.595,2.5306,2.472,2.4152,2.3143,2.2122,2.1651,2.1329,2.1256,2.1197,2.1612,2.1907,2.2257,2.2402,2.2474,2.2642,2.2917,2.33,2.3729,2.3688,2.3465,2.3773,2.4146,2.4396,2.4636,2.4828,2.4931,3.4214,3.3323,3.259,3.1887,3.1207,3.119,3.121,3.1232,3.1545,3.1763,3.2012,3.2424,3.2692,3.2757,3.3273,3.3613,3.3741,3.4218,3.4567,3.4766,3.4952,3.5105,3.519,3.5254,3.5254,3.5278,3.4784,3.4595,3.4521,3.4394,3.4285,3.4472,3.4414,3.4659,3.4906,3.5001,3.5151,3.5507,3.5373,3.5328,3.5303,3.5168,3.5206,3.5286,3.533,3.5341,3.5342,3.4827,3.4292,3.3889,3.2952,3.2194,3.1665,3.1179,3.0623,2.9946,2.981,2.9381,2.8732,2.8273,2.8167,2.8288,2.8779,2.9424,3.0196,2.9555,2.8824,2.8738,2.7622,2.7028,2.6905,2.6953,2.6887,2.6949,2.7026,2.7293,2.7507,2.7578,2.783,2.8088,2.8075,2.7936,2.7865,2.7897,2.7532,2.6906,2.6607,2.6487,2.6021,2.5456,2.4654,2.408,2.3115,2.1978,2.1182,2.0826,2.074,2.091,2.1353,2.1764,2.2175,2.2525,2.2712,2.2922,2.317,2.3632,2.4109,2.3917,2.379,2.4184,2.4527,2.4675,2.4855,2.5062,2.5182,3.5064,3.4299,3.2923,3.1955,3.1258,3.119,3.119,3.1275,3.1283,3.1611,3.2117,3.2641,3.24,3.2197,3.2429,3.2788,3.2998,3.3469,3.3864,3.4213,3.4467,3.4645,3.4743,3.4763,3.4688,3.4648,3.4289,3.4151,3.4061,3.3606,3.3648,3.3829,3.3865,3.4237,3.4551,3.4735,3.5045,3.5386,3.5431,3.5518,3.5579,3.5577,3.5592,3.5553,3.5551,3.5437,3.5114,3.4463,3.3925,3.3576,3.2255,3.1391,3.0987,3.034,2.9663,2.9134,2.8771,2.8233,2.7485,2.7394,2.7227,2.7202,2.7652,2.8659,2.9551,2.9276,2.865,2.7991,2.713,2.6554,2.6298,2.6086,2.6055,2.6057,2.625,2.6489,2.6705,2.6884,2.7153,2.7689,2.7765,2.7574,2.7648,2.7695,2.7725,2.7162,2.7019,2.6905,2.6539,2.5958,2.4878,2.4042,2.3125,2.2027,2.0796,2.0562,2.0764,2.1055,2.1431,2.1825,2.2223,2.2525,2.294,2.3191,2.346,2.3973,2.4355,2.4229,2.4248,2.4635,2.4902,2.4994,2.5114,2.5294,2.536,3.5671,3.4954,3.4372,3.3516,3.2476,3.1579,3.1444,3.1732,3.141,3.1326,3.1664,3.1796,3.1739,3.1614,3.186,3.2126,3.2277,3.2719,3.3268,3.3664,3.3839,3.3991,3.4098,3.4012,3.3832,3.3747,3.3529,3.341,3.3327,3.2955,3.2885,3.3027,3.3255,3.3625,3.3975,3.4459,3.4896,3.5151,3.5348,3.5449,3.5693,3.5797,3.5819,3.5777,3.548,3.5375,3.5048,3.421,3.3652,3.2895,3.1671,3.0959,3.0427,2.9691,2.905,2.8472,2.8143,2.7434,2.6759,2.6756,2.6872,2.7069,2.7242,2.7658,2.8755,2.8414,2.8027,2.7461,2.6854,2.6208,2.605,2.5707,2.5486,2.5354,2.5451,2.5731,2.6038,2.6284,2.6656,2.7238,2.7286,2.7162,2.7334,2.7485,2.7515,2.747,2.7409,2.7269,2.6904,2.6505,2.5497,2.441,2.3475,2.2518,2.1351,2.1068,2.0926,2.1197,2.1522,2.1899,2.2304,2.2786,2.3146,2.3419,2.365,2.4018,2.4284,2.4451,2.464,2.4883,2.5091,2.5256,2.5392,2.5477,2.5421,3.5855,3.5394,3.5136,3.4428,3.3326,3.229,3.1884,3.195,3.1737,3.1418,3.1271,3.1395,3.1243,3.1128,3.1186,3.1174,3.1164,3.1502,3.2265,3.2406,3.2332,3.2668,3.2916,3.2731,3.2119,3.2396,3.2588,3.2507,3.2509,3.2362,3.2349,3.2416,3.2631,3.2934,3.3496,3.4088,3.461,3.4772,3.5032,3.5257,3.5542,3.5652,3.5758,3.5694,3.5466,3.5181,3.4767,3.3988,3.3239,3.2416,3.1399,3.041,2.9843,2.9323,2.8693,2.8216,2.775,2.7181,2.6666,2.631,2.6388,2.6442,2.6649,2.7211,2.77,2.7542,2.7317,2.6765,2.6244,2.5888,2.5707,2.5144,2.4776,2.4637,2.4953,2.5246,2.5693,2.6019,2.6385,2.6808,2.689,2.7178,2.7604,2.7865,2.788,2.7837,2.7663,2.7515,2.7208,2.6797,2.6275,2.5143,2.4001,2.3031,2.2086,2.1759,2.1442,2.1443,2.1761,2.2027,2.2433,2.2865,2.3057,2.3086,2.3393,2.3923,2.4146,2.4227,2.4594,2.5011,2.5174,2.5274,2.5298,2.5339,2.5259,3.5633,3.5487,3.4854,3.4138,3.3431,3.3351,3.26,3.1759,3.1984,3.1885,3.1483,3.1876,3.1491,3.0692,3.0651,3.0316,2.9918,3.007,3.0543,3.0908,3.0347,3.0664,3.0808,3.065,3.0169,3.0766,3.1059,3.128,3.153,3.1613,3.1681,3.1825,3.1969,3.2296,3.2925,3.3627,3.4001,3.4156,3.4527,3.484,3.5139,3.5227,3.533,3.548,3.5264,3.4955,3.4613,3.3715,3.3051,3.2526,3.0905,3.0025,2.9772,2.8622,2.8018,2.782,2.762,2.7148,2.6549,2.5864,2.585,2.5857,2.6111,2.6401,2.6592,2.6638,2.6641,2.611,2.5864,2.5468,2.4973,2.4491,2.4266,2.4287,2.4617,2.507,2.5542,2.6016,2.6453,2.6808,2.7098,2.7454,2.7964,2.8308,2.8334,2.8228,2.7982,2.7736,2.753,2.716,2.6718,2.5282,2.4068,2.3084,2.22,2.2155,2.1989,2.1931,2.195,2.2186,2.2368,2.2652,2.2776,2.2772,2.31,2.3606,2.382,2.3988,2.4305,2.4625,2.5014,2.5163,2.5178,2.5114,2.495,3.5868,3.5436,3.5204,3.4497,3.3523,3.2937,3.2475,3.211,3.1894,3.1823,3.1935,3.1886,3.1544,3.1008,3.0443,2.9974,2.9438,2.8863,2.9247,2.969,2.8615,2.8732,2.8873,2.8561,2.8116,2.8486,2.9044,2.9662,2.998,3.0519,3.1072,3.1278,3.1507,3.1862,3.2462,3.294,3.3071,3.3293,3.3573,3.3918,3.445,3.4611,3.4836,3.5213,3.4893,3.468,3.4626,3.364,3.312,3.2802,3.1196,3.0462,3.0182,2.9137,2.828,2.7963,2.764,2.6756,2.6567,2.6393,2.6544,2.6214,2.568,2.5833,2.6255,2.5957,2.5763,2.5752,2.5815,2.5524,2.5144,2.4632,2.441,2.445,2.4756,2.5297,2.5781,2.6245,2.6691,2.7003,2.7301,2.766,2.8098,2.8347,2.8417,2.8558,2.8347,2.8237,2.8057,2.7632,2.7138,2.5285,2.3857,2.2943,2.2284,2.2271,2.2313,2.2275,2.2215,2.2251,2.2412,2.2577,2.2625,2.2699,2.2972,2.3253,2.3421,2.3611,2.384,2.4155,2.4447,2.4664,2.4656,2.4569,2.4453,3.5514,3.5103,3.4878,3.4203,3.33,3.2926,3.2748,3.239,3.1571,3.1444,3.1847,3.1566,3.1238,3.0924,3.0393,2.9744,2.906,2.8119,2.8066,2.8399,2.6945,2.6799,2.6724,2.6308,2.5659,2.5976,2.6714,2.7461,2.8155,2.9347,3.0352,3.1041,3.119,3.1524,3.195,3.2178,3.2345,3.259,3.2831,3.3213,3.3572,3.3821,3.4109,3.4444,3.4431,3.4266,3.4304,3.3957,3.3389,3.3018,3.2284,3.1385,3.0917,3.0216,2.923,2.8739,2.8203,2.7585,2.7654,2.7786,2.7896,2.7644,2.6069,2.5708,2.6114,2.5749,2.5431,2.5408,2.5797,2.5652,2.5278,2.4772,2.4803,2.4843,2.5125,2.5652,2.5943,2.6401,2.6708,2.7035,2.7363,2.7762,2.8084,2.8277,2.8417,2.8601,2.8755,2.859,2.8373,2.7895,2.7194,2.5441,2.3874,2.2962,2.2504,2.2477,2.2523,2.2598,2.2561,2.2484,2.2477,2.2652,2.2621,2.2586,2.2704,2.2857,2.3045,2.3246,2.3469,2.3577,2.3685,2.3883,2.4033,2.3962,2.3829,3.4591,3.4471,3.3855,3.3182,3.2678,3.295,3.2961,3.242,3.116,3.0995,3.1565,3.1639,3.1385,3.0682,2.9987,2.9352,2.8579,2.7342,2.714,2.6797,2.5605,2.5276,2.4673,2.3979,2.3661,2.3631,2.4207,2.5362,2.622,2.8443,2.9992,3.0882,3.1151,3.1215,3.1355,3.1456,3.1627,3.1757,3.1794,3.2115,3.2386,3.2592,3.3026,3.3416,3.3622,3.3913,3.4059,3.3981,3.3858,3.3479,3.2828,3.2324,3.1806,3.1214,3.0605,3.0013,2.9506,2.9236,2.9155,2.9223,2.9374,2.8989,2.7433,2.6836,2.6236,2.574,2.5258,2.532,2.5635,2.5551,2.5351,2.5359,2.5368,2.5492,2.5649,2.5924,2.6103,2.6384,2.6674,2.6971,2.7255,2.7587,2.7844,2.8071,2.792,2.8231,2.8317,2.8255,2.8047,2.7797,2.6928,2.5557,2.4139,2.3047,2.2697,2.2531,2.2612,2.2656,2.2819,2.2807,2.2789,2.2725,2.2712,2.2625,2.2398,2.2453,2.2695,2.289,2.3069,2.3135,2.3119,2.3235,2.3428,2.326,2.3148,3.4268,3.3764,3.3153,3.2181,3.1212,3.1321,3.1521,3.1704,3.1371,3.1811,3.2938,3.2458,3.2122,3.194,3.1269,3.0026,2.8786,2.761,2.6699,2.5869,2.4959,2.4236,2.3501,2.2805,2.2311,2.2262,2.2708,2.3492,2.5078,2.744,2.9528,3.0444,3.0858,3.0838,3.076,3.067,3.0636,3.066,3.0553,3.0732,3.0902,3.1003,3.162,3.2168,3.2657,3.3148,3.3765,3.4059,3.4106,3.4184,3.3796,3.344,3.3356,3.246,3.158,3.0446,3.0046,2.9831,3.0005,3.0021,3.0081,2.9861,2.8387,2.713,2.6435,2.5816,2.5203,2.5348,2.6018,2.6284,2.6265,2.6197,2.6134,2.6151,2.6199,2.6157,2.6332,2.6504,2.6758,2.6955,2.7239,2.733,2.7581,2.7197,2.7106,2.7573,2.7767,2.7668,2.7589,2.7297,2.6754,2.5389,2.4098,2.2924,2.2562,2.2371,2.2563,2.2725,2.2885,2.3045,2.3033,2.296,2.2848,2.2691,2.249,2.2388,2.2388,2.2571,2.2764,2.2611,2.2561,2.2673,2.275,2.2635,2.2639,3.3556,3.3001,3.237,3.1492,3.0598,3.0491,3.0758,3.1152,3.168,3.2396,3.2767,3.2935,3.2971,3.2809,3.1909,3.0736,2.9438,2.798,2.69,2.6005,2.4879,2.3917,2.3075,2.2329,2.1772,2.153,2.1545,2.2207,2.4078,2.6663,2.8946,3.0293,3.0559,3.0414,3.0149,2.9592,2.9085,2.9214,2.9304,2.9339,2.9364,2.9491,3.0266,3.0628,3.1193,3.2254,3.3303,3.3666,3.4278,3.4726,3.4521,3.4379,3.4078,3.3118,3.2138,3.1056,3.0432,3.0236,3.0192,2.9957,3.0187,2.995,2.8818,2.7774,2.6753,2.6019,2.5565,2.5451,2.6568,2.7358,2.7222,2.71,2.694,2.6796,2.6617,2.6435,2.6522,2.6657,2.6824,2.7003,2.7098,2.7145,2.6945,2.6472,2.6206,2.6495,2.659,2.6462,2.6528,2.653,2.6145,2.5312,2.3963,2.2743,2.2463,2.2245,2.2483,2.2725,2.2984,2.3117,2.32,2.3224,2.3117,2.2878,2.2586,2.25,2.2412,2.2335,2.2405,2.2293,2.2248,2.2323,2.2337,2.2186,2.2244,3.287,3.247,3.1657,3.1038,3.0507,3.0478,3.0473,3.0608,3.1893,3.2273,3.2076,3.2985,3.3408,3.3113,3.2281,3.1374,3.0172,2.8792,2.7571,2.6602,2.5604,2.4515,2.3335,2.2384,2.1873,2.1101,2.0951,2.1727,2.3544,2.5973,2.8325,3.0043,2.9821,2.9607,2.9409,2.8466,2.7762,2.7155,2.7652,2.7977,2.7929,2.8373,2.8844,2.8656,2.9534,3.0813,3.2056,3.3103,3.4106,3.4584,3.4756,3.4485,3.3586,3.2646,3.1759,3.109,3.0084,2.9713,2.9522,2.9333,2.9336,2.9128,2.8624,2.7924,2.7061,2.629,2.5788,2.5693,2.6609,2.7109,2.707,2.7218,2.7198,2.6901,2.6645,2.6553,2.6607,2.6691,2.6758,2.689,2.689,2.6888,2.6604,2.6161,2.5811,2.5747,2.5477,2.5362,2.5431,2.5585,2.5213,2.4783,2.3522,2.2327,2.2133,2.2037,2.2371,2.2656,2.2868,2.3129,2.3177,2.3271,2.3403,2.3093,2.2802,2.2616,2.2504,2.2508,2.2494,2.2385,2.2298,2.2073,2.1955,2.1895,2.2013,3.3383,3.3163,3.1655,3.0686,3.0182,3.0337,3.0141,2.9838,3.1684,3.2311,3.2355,3.2832,3.3223,3.319,3.2845,3.2023,3.0852,2.9902,2.8682,2.7695,2.6666,2.5602,2.42,2.3432,2.25,2.1604,2.1404,2.1863,2.3719,2.5694,2.728,2.8818,2.8927,2.8972,2.8372,2.737,2.6677,2.5396,2.5204,2.531,2.4888,2.5039,2.5283,2.5431,2.6213,2.7663,2.9079,3.0734,3.1908,3.2839,3.2983,3.245,3.1422,3.0347,2.9585,2.9049,2.8405,2.807,2.8045,2.8074,2.8223,2.8303,2.8015,2.775,2.7247,2.6567,2.6171,2.6144,2.6282,2.6685,2.6955,2.718,2.73,2.6921,2.655,2.6549,2.6573,2.6641,2.6657,2.6708,2.6708,2.6488,2.6217,2.5843,2.5571,2.5144,2.4679,2.447,2.4523,2.4578,2.4048,2.3518,2.2647,2.1788,2.1654,2.1654,2.19,2.2127,2.2317,2.2656,2.3064,2.3147,2.3183,2.3212,2.3045,2.2807,2.2721,2.2903,2.284,2.2563,2.2456,2.2306,2.2087,2.1969,2.2061,3.3305,3.2999,3.2055,3.1249,3.0763,3.0641,3.0412,3.0312,3.1314,3.1934,3.2311,3.3046,3.3559,3.3584,3.3416,3.2781,3.1681,3.0927,2.9863,2.8831,2.7968,2.7184,2.6001,2.4942,2.4549,2.369,2.2802,2.3179,2.4235,2.4885,2.6154,2.768,2.8194,2.7911,2.7183,2.6799,2.5643,2.3716,2.3043,2.2043,2.1544,2.1838,2.2114,2.2318,2.2825,2.4246,2.5808,2.7545,2.8957,2.9896,3.0161,2.9402,2.8319,2.7148,2.6204,2.558,2.5242,2.5403,2.5614,2.6021,2.6564,2.667,2.7245,2.6956,2.6541,2.5931,2.605,2.6041,2.6219,2.6581,2.6389,2.6497,2.6573,2.6381,2.5798,2.5451,2.5877,2.6297,2.647,2.6708,2.6505,2.6087,2.5622,2.4742,2.4489,2.4316,2.3864,2.3782,2.3821,2.3746,2.3119,2.2522,2.1795,2.1389,2.1275,2.1243,2.1305,2.1517,2.1632,2.2197,2.2621,2.2815,2.2932,2.2954,2.2977,2.2895,2.2895,2.3009,2.2845,2.249,2.2514,2.2573,2.2306,2.2001,2.2061,3.3081,3.2681,3.2616,3.2296,3.176,3.1321,3.1111,3.1128,3.1234,3.155,3.2177,3.3396,3.416,3.4164,3.3897,3.3319,3.2593,3.1713,3.078,3.0071,2.9289,2.8611,2.7958,2.7176,2.6402,2.5559,2.4632,2.4246,2.4461,2.477,2.5384,2.6735,2.6909,2.668,2.6654,2.6069,2.4801,2.2928,2.136,1.9017,1.8697,1.8793,1.8795,1.8945,1.9247,2.0594,2.2074,2.3608,2.5165,2.6207,2.6646,2.5644,2.4443,2.3163,2.1963,2.1186,2.093,2.144,2.221,2.3045,2.3925,2.4733,2.5713,2.6094,2.5699,2.56,2.5706,2.5628,2.5826,2.5833,2.5629,2.5354,2.5427,2.554,2.4884,2.4531,2.5163,2.5783,2.6105,2.6419,2.6105,2.5635,2.5059,2.413,2.3752,2.3564,2.3387,2.3258,2.3163,2.302,2.2663,2.2109,2.1479,2.1161,2.0723,2.0529,2.0393,2.0521,2.0703,2.1518,2.2242,2.264,2.2837,2.2725,2.2717,2.295,2.291,2.294,2.2712,2.2426,2.2554,2.2582,2.2136,2.1928,2.1988,3.3652,3.3536,3.3214,3.2996,3.282,3.2363,3.2213,3.2195,3.2178,3.25,3.2866,3.3082,3.3447,3.3494,3.3386,3.3183,3.3138,3.2396,3.19,3.1236,3.0912,3.0269,2.9571,2.8934,2.7625,2.6583,2.5694,2.5163,2.4475,2.4341,2.4696,2.5659,2.64,2.6185,2.5646,2.5151,2.4705,2.2582,2.0397,1.8372,1.549,1.5184,1.4716,1.453,1.43,1.5746,1.7226,1.8785,2.088,2.2316,2.2854,2.1901,2.0547,1.9078,1.7668,1.6485,1.6276,1.6937,1.7849,1.9627,2.0772,2.2541,2.3689,2.5384,2.5064,2.4839,2.4695,2.415,2.4232,2.4232,2.3996,2.3446,2.3338,2.3806,2.3599,2.3893,2.4396,2.4874,2.5268,2.5416,2.536,2.5205,2.5134,2.4465,2.4101,2.3867,2.3627,2.3504,2.3366,2.2843,2.2286,2.1758,2.1263,2.0104,1.9324,1.9336,1.928,1.9424,1.9801,2.0649,2.1594,2.2649,2.2807,2.251,2.2886,2.3311,2.3219,2.2587,2.26,2.2391,2.2582,2.2538,2.2051,2.1718,2.169]}]]